Time,TemperatureF,DewpointF,PressureIn,WindDirection,WindDirectionDegrees,WindSpeedMPH,WindSpeedGustMPH,Humidity,HourlyPrecipIn,Conditions,Clouds,dailyrainin,SolarRadiationWatts/m^2,SoftwareType,DateUTC
2013-01-17 00:00:00,38.8,37.0,30.04,NNW,327,0.0,0.0,93,0.00,,,0.00,0.00,VWS V14.00,2013-01-17 06:00:00,
2013-01-17 00:01:00,38.8,37.0,30.04,West,263,0.0,0.0,93,0.00,,,0.00,0.00,VWS V14.00,2013-01-17 06:01:00,
2013-01-17 00:02:00,38.8,37.2,30.04,West,263,0.0,0.0,94,0.00,,,0.00,0.00,VWS V14.00,2013-01-17 06:02:00,
2013-01-17 00:03:00,38.8,37.2,30.04,WNW,302,0.0,0.0,94,0.00,,,0.00,0.00,VWS V14.00,2013-01-17 06:03:00,
2013-01-17 00:04:00,38.8,37.2,30.04,SW,229,0.0,0.0,94,0.00,,,0.00,0.00,VWS V14.00,2013-01-17 06:04:00,
2013-01-17 00:05:00,38.8,37.2,30.04,West,259,0.0,0.0,94,0.00,,,0.00,0.00,VWS V14.00,2013-01-17 06:05:00,
2013-01-17 00:06:00,38.8,37.2,30.04,West,271,0.0,0.0,94,0.00,,,0.00,0.00,VWS V14.00,2013-01-17 06:06:00,
2013-01-17 00:07:00,38.8,37.2,30.04,NNW,333,0.0,0.0,94,0.00,,,0.00,0.00,VWS V14.00,2013-01-17 06:07:00,
2013-01-17 00:08:00,38.8,37.2,30.04,West,278,0.0,0.0,94,0.00,,,0.00,0.00,VWS V14.00,2013-01-17 06:08:00,
2013-01-17 00:09:00,38.8,37.2,30.04,NNW,342,0.0,0.0,94,0.00,,,0.00,0.00,VWS V14.00,2013-01-17 06:09:00,
2013-01-17 00:10:00,38.8,37.2,30.04,WNW,294,0.0,0.0,94,0.00,,,0.00,0.00,VWS V14.00,2013-01-17 06:10:00,
2013-01-17 00:11:00,38.8,37.2,30.04,WNW,284,0.0,0.0,94,0.00,,,0.00,0.00,VWS V14.00,2013-01-17 06:11:00,
2013-01-17 00:12:00,38.6,37.0,30.04,West,268,0.0,0.0,94,0.00,,,0.00,0.00,VWS V14.00,2013-01-17 06:12:00,
2013-01-17 00:13:00,38.6,37.0,30.04,West,271,0.0,0.0,94,0.00,,,0.00,0.00,VWS V14.00,2013-01-17 06:13:00,
2013-01-17 00:14:00,38.6,37.0,30.05,WNW,286,0.0,0.0,94,0.00,,,0.00,0.00,VWS V14.00,2013-01-17 06:14:00,
2013-01-17 00:15:00,38.6,37.0,30.05,WNW,299,0.0,0.0,94,0.00,,,0.00,0.00,VWS V14.00,2013-01-17 06:15:00,
2013-01-17 00:16:00,38.6,37.0,30.05,NW,324,0.0,0.0,94,0.00,,,0.00,0.00,VWS V14.00,2013-01-17 06:16:00,
2013-01-17 00:17:00,38.6,37.0,30.05,WNW,288,0.0,0.0,94,0.00,,,0.00,0.00,VWS V14.00,2013-01-17 06:17:00,
2013-01-17 00:18:00,38.6,37.0,30.05,NNW,344,0.0,0.0,94,0.00,,,0.00,0.00,VWS V14.00,2013-01-17 06:18:00,
2013-01-17 00:19:00,38.6,37.0,30.05,WSW,258,0.0,0.0,94,0.00,,,0.00,0.00,VWS V14.00,2013-01-17 06:19:00,
2013-01-17 00:20:00,38.5,37.2,30.05,West,273,0.0,0.0,95,0.00,,,0.00,0.00,VWS V14.00,2013-01-17 06:20:00,
2013-01-17 00:21:00,38.5,36.9,30.05,NW,311,0.0,0.0,94,0.00,,,0.00,0.00,VWS V14.00,2013-01-17 06:21:00,
2013-01-17 00:22:00,38.5,37.2,30.05,WNW,284,0.0,0.0,95,0.00,,,0.00,0.00,VWS V14.00,2013-01-17 06:22:00,
2013-01-17 00:23:00,38.5,37.2,30.05,WSW,258,0.0,0.0,95,0.00,,,0.00,0.00,VWS V14.00,2013-01-17 06:23:00,
2013-01-17 00:24:00,38.5,37.2,30.05,WNW,296,0.0,0.0,95,0.00,,,0.00,0.00,VWS V14.00,2013-01-17 06:24:00,
2013-01-17 00:25:00,38.5,37.2,30.05,WNW,300,0.0,0.0,95,0.00,,,0.00,0.00,VWS V14.00,2013-01-17 06:25:00,
2013-01-17 00:26:00,38.5,37.2,30.05,West,278,0.0,0.0,95,0.00,,,0.00,0.00,VWS V14.00,2013-01-17 06:26:00,
2013-01-17 00:27:00,38.5,37.2,30.05,WNW,301,0.0,0.0,95,0.00,,,0.00,0.00,VWS V14.00,2013-01-17 06:27:00,
2013-01-17 00:28:00,38.3,37.0,30.05,WNW,293,0.0,0.0,95,0.00,,,0.00,0.00,VWS V14.00,2013-01-17 06:28:00,
2013-01-17 00:29:00,38.3,37.0,30.05,NW,313,0.0,0.0,95,0.00,,,0.00,0.00,VWS V14.00,2013-01-17 06:29:00,
2013-01-17 00:30:00,38.3,37.0,30.05,West,271,0.0,0.0,95,0.00,,,0.00,0.00,VWS V14.00,2013-01-17 06:30:00,
2013-01-17 00:31:00,38.3,37.0,30.05,West,261,0.0,0.0,95,0.00,,,0.00,0.00,VWS V14.00,2013-01-17 06:31:00,
2013-01-17 00:32:00,38.3,37.0,30.05,West,273,0.0,0.0,95,0.00,,,0.00,0.00,VWS V14.00,2013-01-17 06:32:00,
2013-01-17 00:33:00,38.3,37.0,30.05,WNW,288,0.0,0.0,95,0.00,,,0.00,0.00,VWS V14.00,2013-01-17 06:33:00,
2013-01-17 00:34:00,38.3,37.0,30.05,North,9,0.0,0.0,95,0.00,,,0.00,0.00,VWS V14.00,2013-01-17 06:34:00,
2013-01-17 00:35:00,38.2,36.9,30.05,SW,236,0.0,0.0,95,0.00,,,0.00,0.00,VWS V14.00,2013-01-17 06:35:00,
2013-01-17 00:36:00,38.2,36.9,30.05,WNW,294,0.0,0.0,95,0.00,,,0.00,0.00,VWS V14.00,2013-01-17 06:36:00,
2013-01-17 00:37:00,38.2,36.9,30.05,WSW,252,0.0,0.0,95,0.00,,,0.00,0.00,VWS V14.00,2013-01-17 06:37:00,
2013-01-17 00:38:00,38.2,36.9,30.05,WNW,296,0.0,0.0,95,0.00,,,0.00,0.00,VWS V14.00,2013-01-17 06:38:00,
2013-01-17 00:39:00,38.2,36.9,30.05,West,269,0.0,0.0,95,0.00,,,0.00,0.00,VWS V14.00,2013-01-17 06:39:00,
2013-01-17 00:40:00,38.0,36.7,30.05,WNW,300,0.0,0.0,95,0.00,,,0.00,0.00,VWS V14.00,2013-01-17 06:40:00,
2013-01-17 00:41:00,38.0,36.7,30.05,West,274,0.0,0.0,95,0.00,,,0.00,0.00,VWS V14.00,2013-01-17 06:41:00,
2013-01-17 00:42:00,38.0,36.7,30.05,NW,324,0.0,0.0,95,0.00,,,0.00,0.00,VWS V14.00,2013-01-17 06:42:00,
2013-01-17 00:43:00,38.0,36.7,30.05,WSW,257,0.0,0.0,95,0.00,,,0.00,0.00,VWS V14.00,2013-01-17 06:43:00,
2013-01-17 00:44:00,37.9,36.9,30.05,West,272,0.0,0.0,96,0.00,,,0.00,0.00,VWS V14.00,2013-01-17 06:44:00,
2013-01-17 00:45:00,37.9,36.9,30.05,West,273,0.0,0.0,96,0.00,,,0.00,0.00,VWS V14.00,2013-01-17 06:45:00,
2013-01-17 00:46:00,37.9,36.9,30.05,West,269,0.0,0.0,96,0.00,,,0.00,0.00,VWS V14.00,2013-01-17 06:46:00,
2013-01-17 00:47:00,37.9,36.9,30.05,West,279,0.0,0.0,96,0.00,,,0.00,0.00,VWS V14.00,2013-01-17 06:47:00,
2013-01-17 00:48:00,37.9,36.9,30.05,WNW,283,0.0,0.0,96,0.00,,,0.00,0.00,VWS V14.00,2013-01-17 06:48:00,
2013-01-17 00:49:00,37.9,36.9,30.05,West,275,0.0,0.0,96,0.00,,,0.00,0.00,VWS V14.00,2013-01-17 06:49:00,
2013-01-17 00:50:00,37.9,36.9,30.05,WSW,257,0.0,0.0,96,0.00,,,0.00,0.00,VWS V14.00,2013-01-17 06:50:00,
2013-01-17 00:51:00,37.9,36.9,30.05,West,274,0.0,0.0,96,0.00,,,0.00,0.00,VWS V14.00,2013-01-17 06:51:00,
2013-01-17 00:52:00,37.9,36.9,30.05,West,277,0.0,0.0,96,0.00,,,0.00,0.00,VWS V14.00,2013-01-17 06:52:00,
2013-01-17 00:53:00,37.8,36.8,30.05,WNW,282,0.0,0.0,96,0.00,,,0.00,0.00,VWS V14.00,2013-01-17 06:53:00,
2013-01-17 00:54:00,37.8,36.8,30.05,WNW,297,0.0,0.0,96,0.00,,,0.00,0.00,VWS V14.00,2013-01-17 06:54:00,
2013-01-17 00:55:00,37.8,36.8,30.05,WNW,284,0.0,0.0,96,0.00,,,0.00,0.00,VWS V14.00,2013-01-17 06:55:00,
2013-01-17 00:56:00,37.8,36.8,30.05,West,276,0.0,0.0,96,0.00,,,0.00,0.00,VWS V14.00,2013-01-17 06:56:00,
2013-01-17 00:57:00,37.8,36.8,30.05,WSW,242,0.0,0.0,96,0.00,,,0.00,0.00,VWS V14.00,2013-01-17 06:57:00,
2013-01-17 00:58:00,37.8,36.8,30.05,West,277,0.0,0.0,96,0.00,,,0.00,0.00,VWS V14.00,2013-01-17 06:58:00,
2013-01-17 00:59:00,37.8,36.8,30.05,WNW,296,0.0,0.0,96,0.00,,,0.00,0.00,VWS V14.00,2013-01-17 06:59:00,
2013-01-17 01:00:00,37.8,36.8,30.05,NW,316,0.0,0.0,96,0.00,,,0.00,0.00,VWS V14.00,2013-01-17 07:00:00,
2013-01-17 01:01:00,37.6,36.6,30.05,West,260,0.0,0.0,96,0.00,,,0.00,0.00,VWS V14.00,2013-01-17 07:01:00,
2013-01-17 01:02:00,37.6,36.6,30.05,WNW,297,0.0,0.0,96,0.00,,,0.00,0.00,VWS V14.00,2013-01-17 07:02:00,
2013-01-17 01:03:00,37.6,36.6,30.05,WSW,257,0.0,0.0,96,0.00,,,0.00,0.00,VWS V14.00,2013-01-17 07:03:00,
2013-01-17 01:04:00,37.6,36.6,30.05,WNW,302,0.0,0.0,96,0.00,,,0.00,0.00,VWS V14.00,2013-01-17 07:04:00,
2013-01-17 01:05:00,37.6,36.6,30.05,West,279,0.0,0.0,96,0.00,,,0.00,0.00,VWS V14.00,2013-01-17 07:05:00,
2013-01-17 01:06:00,37.6,36.6,30.05,West,279,0.0,0.0,96,0.00,,,0.00,0.00,VWS V14.00,2013-01-17 07:06:00,
2013-01-17 01:07:00,37.6,36.6,30.05,West,268,0.0,0.0,96,0.00,,,0.00,0.00,VWS V14.00,2013-01-17 07:07:00,
2013-01-17 01:08:00,37.6,36.6,30.05,North,360,0.0,0.0,96,0.00,,,0.00,0.00,VWS V14.00,2013-01-17 07:08:00,
2013-01-17 01:09:00,37.6,36.6,30.05,West,275,0.0,0.0,96,0.00,,,0.00,0.00,VWS V14.00,2013-01-17 07:09:00,
2013-01-17 01:10:00,37.6,36.6,30.05,NW,306,0.0,0.0,96,0.00,,,0.00,0.00,VWS V14.00,2013-01-17 07:10:00,
2013-01-17 01:11:00,37.6,36.6,30.05,WNW,303,0.0,0.0,96,0.00,,,0.00,0.00,VWS V14.00,2013-01-17 07:11:00,
2013-01-17 01:12:00,37.6,36.6,30.05,WNW,298,0.0,0.0,96,0.00,,,0.00,0.00,VWS V14.00,2013-01-17 07:12:00,
2013-01-17 01:13:00,37.6,36.6,30.05,West,277,0.0,0.0,96,0.00,,,0.00,0.00,VWS V14.00,2013-01-17 07:13:00,
2013-01-17 01:14:00,37.6,36.6,30.05,North,5,0.0,0.0,96,0.00,,,0.00,0.00,VWS V14.00,2013-01-17 07:14:00,
2013-01-17 01:15:00,37.6,36.6,30.05,WSW,253,0.0,0.0,96,0.00,,,0.00,0.00,VWS V14.00,2013-01-17 07:15:00,
2013-01-17 01:16:00,37.6,36.6,30.05,WNW,285,0.0,0.0,96,0.00,,,0.00,0.00,VWS V14.00,2013-01-17 07:16:00,
2013-01-17 01:17:00,37.6,36.6,30.05,WNW,284,0.0,0.0,96,0.00,,,0.00,0.00,VWS V14.00,2013-01-17 07:17:00,
2013-01-17 01:18:00,37.6,36.8,30.05,WNW,285,0.0,0.0,97,0.00,,,0.00,0.00,VWS V14.00,2013-01-17 07:18:00,
2013-01-17 01:19:00,37.6,36.8,30.05,WNW,290,0.0,0.0,97,0.00,,,0.00,0.00,VWS V14.00,2013-01-17 07:19:00,
2013-01-17 01:20:00,37.6,36.8,30.05,WSW,253,0.0,0.0,97,0.00,,,0.00,0.00,VWS V14.00,2013-01-17 07:20:00,
2013-01-17 01:21:00,37.6,36.8,30.05,West,264,0.0,0.0,97,0.00,,,0.00,0.00,VWS V14.00,2013-01-17 07:21:00,
2013-01-17 01:22:00,37.5,36.7,30.05,WSW,254,0.0,0.0,97,0.00,,,0.00,0.00,VWS V14.00,2013-01-17 07:22:00,
2013-01-17 01:23:00,37.5,36.7,30.05,WSW,257,0.0,0.0,97,0.00,,,0.00,0.00,VWS V14.00,2013-01-17 07:23:00,
2013-01-17 01:24:00,37.5,36.7,30.05,NW,306,0.0,0.0,97,0.00,,,0.00,0.00,VWS V14.00,2013-01-17 07:24:00,
2013-01-17 01:25:00,37.5,36.7,30.05,WNW,300,0.0,0.0,97,0.00,,,0.00,0.00,VWS V14.00,2013-01-17 07:25:00,
2013-01-17 01:26:00,37.5,36.7,30.05,SW,232,0.0,0.0,97,0.00,,,0.00,0.00,VWS V14.00,2013-01-17 07:26:00,
2013-01-17 01:27:00,37.5,36.7,30.05,WNW,291,0.0,0.0,97,0.00,,,0.00,0.00,VWS V14.00,2013-01-17 07:27:00,
2013-01-17 01:28:00,37.5,36.7,30.05,WSW,241,0.0,0.0,97,0.00,,,0.00,0.00,VWS V14.00,2013-01-17 07:28:00,
2013-01-17 01:29:00,37.5,36.7,30.05,SW,222,0.0,0.0,97,0.00,,,0.00,0.00,VWS V14.00,2013-01-17 07:29:00,
2013-01-17 01:30:00,37.5,36.7,30.05,West,271,0.0,0.0,97,0.00,,,0.00,0.00,VWS V14.00,2013-01-17 07:30:00,
2013-01-17 01:31:00,37.5,36.7,30.05,West,269,0.0,0.0,97,0.00,,,0.00,0.00,VWS V14.00,2013-01-17 07:31:00,
2013-01-17 01:32:00,37.5,36.7,30.05,West,273,0.0,0.0,97,0.00,,,0.00,0.00,VWS V14.00,2013-01-17 07:32:00,
2013-01-17 01:33:00,37.5,36.7,30.05,West,280,0.0,0.0,97,0.00,,,0.00,0.00,VWS V14.00,2013-01-17 07:33:00,
2013-01-17 01:34:00,37.5,36.7,30.05,WNW,293,0.0,0.0,97,0.00,,,0.00,0.00,VWS V14.00,2013-01-17 07:34:00,
2013-01-17 01:35:00,37.5,36.7,30.05,SW,233,0.0,0.0,97,0.00,,,0.00,0.00,VWS V14.00,2013-01-17 07:35:00,
2013-01-17 01:36:00,37.5,36.7,30.05,WNW,296,0.0,0.0,97,0.00,,,0.00,0.00,VWS V14.00,2013-01-17 07:36:00,
2013-01-17 01:37:00,37.5,36.7,30.05,West,263,0.0,0.0,97,0.00,,,0.00,0.00,VWS V14.00,2013-01-17 07:37:00,
2013-01-17 01:38:00,37.5,36.7,30.05,West,280,0.0,0.0,97,0.00,,,0.00,0.00,VWS V14.00,2013-01-17 07:38:00,
2013-01-17 01:39:00,37.5,36.7,30.05,WNW,286,0.0,0.0,97,0.00,,,0.00,0.00,VWS V14.00,2013-01-17 07:39:00,
2013-01-17 01:40:00,37.5,36.7,30.05,WNW,287,0.0,0.0,97,0.00,,,0.00,0.00,VWS V14.00,2013-01-17 07:40:00,
2013-01-17 01:41:00,37.5,36.7,30.05,WSW,244,0.0,0.0,97,0.00,,,0.00,0.00,VWS V14.00,2013-01-17 07:41:00,
2013-01-17 01:42:00,37.5,36.7,30.05,WNW,294,0.0,0.0,97,0.00,,,0.00,0.00,VWS V14.00,2013-01-17 07:42:00,
2013-01-17 01:43:00,37.5,36.7,30.05,West,277,0.0,0.0,97,0.00,,,0.00,0.00,VWS V14.00,2013-01-17 07:43:00,
2013-01-17 01:44:00,37.3,36.5,30.05,West,261,0.0,0.0,97,0.00,,,0.00,0.00,VWS V14.00,2013-01-17 07:44:00,
2013-01-17 01:45:00,37.5,36.7,30.05,West,261,0.0,0.0,97,0.00,,,0.00,0.00,VWS V14.00,2013-01-17 07:45:00,
2013-01-17 01:46:00,37.5,36.7,30.05,West,261,0.0,0.0,97,0.00,,,0.00,0.00,VWS V14.00,2013-01-17 07:46:00,
2013-01-17 01:47:00,37.5,36.7,30.05,West,266,0.0,0.0,97,0.00,,,0.00,0.00,VWS V14.00,2013-01-17 07:47:00,
2013-01-17 01:48:00,37.5,36.7,30.05,West,272,0.0,0.0,97,0.00,,,0.00,0.00,VWS V14.00,2013-01-17 07:48:00,
2013-01-17 01:49:00,37.5,36.7,30.05,West,272,0.0,0.0,97,0.00,,,0.00,0.00,VWS V14.00,2013-01-17 07:49:00,
2013-01-17 01:50:00,37.5,36.7,30.05,West,277,0.0,0.0,97,0.00,,,0.00,0.00,VWS V14.00,2013-01-17 07:50:00,
2013-01-17 01:51:00,37.5,36.7,30.05,West,273,0.0,0.0,97,0.00,,,0.00,0.00,VWS V14.00,2013-01-17 07:51:00,
2013-01-17 01:52:00,37.5,36.7,30.05,West,259,0.0,0.0,97,0.00,,,0.00,0.00,VWS V14.00,2013-01-17 07:52:00,
2013-01-17 01:53:00,37.5,36.7,30.05,West,259,0.0,0.0,97,0.00,,,0.00,0.00,VWS V14.00,2013-01-17 07:53:00,
2013-01-17 01:54:00,37.5,36.7,30.05,West,259,0.0,0.0,97,0.00,,,0.00,0.00,VWS V14.00,2013-01-17 07:54:00,
2013-01-17 01:55:00,37.6,36.8,30.05,SSW,202,0.0,0.0,97,0.00,,,0.00,0.00,VWS V14.00,2013-01-17 07:55:00,
2013-01-17 01:56:00,37.6,36.8,30.05,WNW,296,0.0,0.0,97,0.00,,,0.00,0.00,VWS V14.00,2013-01-17 07:56:00,
2013-01-17 01:57:00,37.6,36.8,30.05,WSW,247,0.0,0.0,97,0.00,,,0.00,0.00,VWS V14.00,2013-01-17 07:57:00,
2013-01-17 01:58:00,37.6,36.8,30.05,West,261,0.0,0.0,97,0.00,,,0.00,0.00,VWS V14.00,2013-01-17 07:58:00,
2013-01-17 01:59:00,37.6,36.8,30.05,West,265,0.0,0.0,97,0.00,,,0.00,0.00,VWS V14.00,2013-01-17 07:59:00,
2013-01-17 02:00:00,37.6,36.8,30.05,WNW,292,0.0,0.0,97,0.00,,,0.00,0.00,VWS V14.00,2013-01-17 08:00:00,
2013-01-17 02:01:00,37.6,36.8,30.05,West,263,0.0,0.0,97,0.00,,,0.00,0.00,VWS V14.00,2013-01-17 08:01:00,
2013-01-17 02:02:00,37.6,36.8,30.05,West,271,0.0,0.0,97,0.00,,,0.00,0.00,VWS V14.00,2013-01-17 08:02:00,
2013-01-17 02:03:00,37.6,36.8,30.05,West,269,0.0,0.0,97,0.00,,,0.00,0.00,VWS V14.00,2013-01-17 08:03:00,
2013-01-17 02:04:00,37.6,36.8,30.05,WSW,248,0.0,0.0,97,0.00,,,0.00,0.00,VWS V14.00,2013-01-17 08:04:00,
2013-01-17 02:05:00,37.6,36.8,30.05,NW,311,0.0,0.0,97,0.00,,,0.00,0.00,VWS V14.00,2013-01-17 08:05:00,
2013-01-17 02:06:00,37.6,36.8,30.05,NW,315,0.0,0.0,97,0.00,,,0.00,0.00,VWS V14.00,2013-01-17 08:06:00,
2013-01-17 02:07:00,37.6,36.8,30.05,WSW,250,0.0,0.0,97,0.00,,,0.00,0.00,VWS V14.00,2013-01-17 08:07:00,
2013-01-17 02:08:00,37.5,36.7,30.05,NW,310,0.0,0.0,97,0.00,,,0.00,0.00,VWS V14.00,2013-01-17 08:08:00,
2013-01-17 02:09:00,37.6,36.8,30.05,West,269,0.0,0.0,97,0.00,,,0.00,0.00,VWS V14.00,2013-01-17 08:09:00,
2013-01-17 02:10:00,37.6,36.8,30.05,West,272,0.0,0.0,97,0.00,,,0.00,0.00,VWS V14.00,2013-01-17 08:10:00,
2013-01-17 02:11:00,37.6,36.8,30.05,WNW,298,0.0,0.0,97,0.00,,,0.00,0.00,VWS V14.00,2013-01-17 08:11:00,
2013-01-17 02:12:00,37.6,36.8,30.05,WSW,258,0.0,0.0,97,0.00,,,0.00,0.00,VWS V14.00,2013-01-17 08:12:00,
2013-01-17 02:13:00,37.6,36.8,30.05,West,271,0.0,0.0,97,0.00,,,0.00,0.00,VWS V14.00,2013-01-17 08:13:00,
2013-01-17 02:14:00,37.6,36.8,30.05,West,266,0.0,0.0,97,0.00,,,0.00,0.00,VWS V14.00,2013-01-17 08:14:00,
2013-01-17 02:15:00,37.6,36.8,30.05,NNW,342,0.0,0.0,97,0.00,,,0.00,0.00,VWS V14.00,2013-01-17 08:15:00,
2013-01-17 02:16:00,37.6,36.8,30.05,NNW,338,0.0,0.0,97,0.00,,,0.00,0.00,VWS V14.00,2013-01-17 08:16:00,
2013-01-17 02:17:00,37.6,36.8,30.05,NW,304,0.0,0.0,97,0.00,,,0.00,0.00,VWS V14.00,2013-01-17 08:17:00,
2013-01-17 02:18:00,37.6,36.8,30.05,WNW,286,0.0,0.0,97,0.00,,,0.00,0.00,VWS V14.00,2013-01-17 08:18:00,
2013-01-17 02:19:00,37.6,36.8,30.05,West,277,0.0,0.0,97,0.00,,,0.00,0.00,VWS V14.00,2013-01-17 08:19:00,
2013-01-17 02:20:00,37.6,36.8,30.05,WSW,252,0.0,0.0,97,0.00,,,0.00,0.00,VWS V14.00,2013-01-17 08:20:00,
2013-01-17 02:21:00,37.6,36.8,30.05,NW,311,0.0,0.0,97,0.00,,,0.00,0.00,VWS V14.00,2013-01-17 08:21:00,
2013-01-17 02:22:00,37.6,36.8,30.05,NW,310,0.0,0.0,97,0.00,,,0.00,0.00,VWS V14.00,2013-01-17 08:22:00,
2013-01-17 02:23:00,37.6,36.8,30.05,West,275,0.0,0.0,97,0.00,,,0.00,0.00,VWS V14.00,2013-01-17 08:23:00,
2013-01-17 02:24:00,37.6,36.8,30.05,WNW,300,0.0,0.0,97,0.00,,,0.00,0.00,VWS V14.00,2013-01-17 08:24:00,
2013-01-17 02:25:00,37.6,36.8,30.05,WNW,292,0.0,0.0,97,0.00,,,0.00,0.00,VWS V14.00,2013-01-17 08:25:00,
2013-01-17 02:26:00,37.6,36.8,30.05,NW,311,0.0,0.0,97,0.00,,,0.00,0.00,VWS V14.00,2013-01-17 08:26:00,
2013-01-17 02:27:00,37.6,36.8,30.05,WNW,282,0.0,0.0,97,0.00,,,0.00,0.00,VWS V14.00,2013-01-17 08:27:00,
2013-01-17 02:28:00,37.6,36.8,30.05,West,278,0.0,0.0,97,0.00,,,0.00,0.00,VWS V14.00,2013-01-17 08:28:00,
2013-01-17 02:29:00,37.6,36.8,30.05,NW,317,0.0,0.0,97,0.00,,,0.00,0.00,VWS V14.00,2013-01-17 08:29:00,
2013-01-17 02:30:00,37.6,36.8,30.05,West,271,0.0,0.0,97,0.00,,,0.00,0.00,VWS V14.00,2013-01-17 08:30:00,
2013-01-17 02:31:00,37.6,36.8,30.05,NW,326,0.0,0.0,97,0.00,,,0.00,0.00,VWS V14.00,2013-01-17 08:31:00,
2013-01-17 02:32:00,37.6,36.8,30.05,NW,321,0.0,0.0,97,0.00,,,0.00,0.00,VWS V14.00,2013-01-17 08:32:00,
2013-01-17 02:33:00,37.6,36.8,30.05,NW,311,0.0,0.0,97,0.00,,,0.00,0.00,VWS V14.00,2013-01-17 08:33:00,
2013-01-17 02:34:00,37.6,36.8,30.05,West,280,0.0,0.0,97,0.00,,,0.00,0.00,VWS V14.00,2013-01-17 08:34:00,
2013-01-17 02:35:00,37.5,36.7,30.05,WNW,284,0.0,0.0,97,0.00,,,0.00,0.00,VWS V14.00,2013-01-17 08:35:00,
2013-01-17 02:36:00,37.5,36.7,30.05,WSW,251,0.0,0.0,97,0.00,,,0.00,0.00,VWS V14.00,2013-01-17 08:36:00,
2013-01-17 02:37:00,37.5,36.7,30.05,WNW,285,0.0,0.0,97,0.00,,,0.00,0.00,VWS V14.00,2013-01-17 08:37:00,
2013-01-17 02:38:00,37.5,36.7,30.05,NW,319,0.0,0.0,97,0.00,,,0.00,0.00,VWS V14.00,2013-01-17 08:38:00,
2013-01-17 02:39:00,37.3,36.5,30.05,West,280,0.0,0.0,97,0.00,,,0.00,0.00,VWS V14.00,2013-01-17 08:39:00,
2013-01-17 02:40:00,37.3,36.5,30.05,WNW,285,0.0,0.0,97,0.00,,,0.00,0.00,VWS V14.00,2013-01-17 08:40:00,
2013-01-17 02:41:00,37.3,36.5,30.05,NW,313,0.0,0.0,97,0.00,,,0.00,0.00,VWS V14.00,2013-01-17 08:41:00,
2013-01-17 02:42:00,37.3,36.5,30.05,WNW,286,0.0,0.0,97,0.00,,,0.00,0.00,VWS V14.00,2013-01-17 08:42:00,
2013-01-17 02:43:00,37.3,36.5,30.05,NW,318,0.0,0.0,97,0.00,,,0.00,0.00,VWS V14.00,2013-01-17 08:43:00,
2013-01-17 02:44:00,37.2,36.4,30.05,WNW,286,0.0,0.0,97,0.00,,,0.00,0.00,VWS V14.00,2013-01-17 08:44:00,
2013-01-17 02:45:00,37.2,36.4,30.05,WNW,284,0.0,0.0,97,0.00,,,0.00,0.00,VWS V14.00,2013-01-17 08:45:00,
2013-01-17 02:46:00,37.2,36.4,30.05,ENE,63,0.0,0.0,97,0.00,,,0.00,0.00,VWS V14.00,2013-01-17 08:46:00,
2013-01-17 02:47:00,37.2,36.4,30.05,West,274,0.0,0.0,97,0.00,,,0.00,0.00,VWS V14.00,2013-01-17 08:47:00,
2013-01-17 02:48:00,37.2,36.4,30.05,NNW,332,0.0,0.0,97,0.00,,,0.00,0.00,VWS V14.00,2013-01-17 08:48:00,
2013-01-17 02:49:00,37.2,36.4,30.05,West,268,0.0,0.0,97,0.00,,,0.00,0.00,VWS V14.00,2013-01-17 08:49:00,
2013-01-17 02:50:00,37.2,36.4,30.05,West,281,0.0,0.0,97,0.00,,,0.00,0.00,VWS V14.00,2013-01-17 08:50:00,
2013-01-17 02:51:00,37.2,36.4,30.05,West,275,0.0,0.0,97,0.00,,,0.00,0.00,VWS V14.00,2013-01-17 08:51:00,
2013-01-17 02:52:00,37.2,36.4,30.05,West,260,0.0,0.0,97,0.00,,,0.00,0.00,VWS V14.00,2013-01-17 08:52:00,
2013-01-17 02:53:00,37.2,36.4,30.05,WNW,284,0.0,0.0,97,0.00,,,0.00,0.00,VWS V14.00,2013-01-17 08:53:00,
2013-01-17 02:54:00,37.2,36.4,30.05,North,349,0.0,0.0,97,0.00,,,0.00,0.00,VWS V14.00,2013-01-17 08:54:00,
2013-01-17 02:55:00,37.2,36.4,30.05,West,271,0.0,0.0,97,0.00,,,0.00,0.00,VWS V14.00,2013-01-17 08:55:00,
2013-01-17 02:56:00,37.0,36.2,30.05,WNW,292,0.0,0.0,97,0.00,,,0.00,0.00,VWS V14.00,2013-01-17 08:56:00,
2013-01-17 02:57:00,37.0,36.2,30.05,WNW,294,0.0,0.0,97,0.00,,,0.00,0.00,VWS V14.00,2013-01-17 08:57:00,
2013-01-17 02:58:00,37.0,36.2,30.05,West,270,0.0,0.0,97,0.00,,,0.00,0.00,VWS V14.00,2013-01-17 08:58:00,
2013-01-17 02:59:00,37.0,36.2,30.06,West,272,0.0,0.0,97,0.00,,,0.00,0.00,VWS V14.00,2013-01-17 08:59:00,
2013-01-17 03:00:00,37.0,36.2,30.06,West,275,0.0,0.0,97,0.00,,,0.00,0.00,VWS V14.00,2013-01-17 09:00:00,
2013-01-17 03:01:00,37.0,36.2,30.06,SW,216,0.0,0.0,97,0.00,,,0.00,0.00,VWS V14.00,2013-01-17 09:01:00,
2013-01-17 03:02:00,37.0,36.2,30.06,WNW,289,0.0,0.0,97,0.00,,,0.00,0.00,VWS V14.00,2013-01-17 09:02:00,
2013-01-17 03:03:00,37.0,36.0,30.06,West,281,0.0,0.0,96,0.00,,,0.00,0.00,VWS V14.00,2013-01-17 09:03:00,
2013-01-17 03:04:00,37.0,36.0,30.06,WSW,246,0.0,0.0,96,0.00,,,0.00,0.00,VWS V14.00,2013-01-17 09:04:00,
2013-01-17 03:05:00,37.0,36.0,30.06,NW,325,0.0,0.0,96,0.00,,,0.00,0.00,VWS V14.00,2013-01-17 09:05:00,
2013-01-17 03:06:00,37.0,36.0,30.06,NW,319,0.0,0.0,96,0.00,,,0.00,0.00,VWS V14.00,2013-01-17 09:06:00,
2013-01-17 03:07:00,37.0,36.0,30.06,SW,231,0.0,0.0,96,0.00,,,0.00,0.00,VWS V14.00,2013-01-17 09:07:00,
2013-01-17 03:08:00,37.0,36.0,30.06,WSW,250,0.0,0.0,96,0.00,,,0.00,0.00,VWS V14.00,2013-01-17 09:08:00,
2013-01-17 03:09:00,37.0,36.0,30.06,WSW,239,0.0,0.0,96,0.00,,,0.00,0.00,VWS V14.00,2013-01-17 09:09:00,
2013-01-17 03:10:00,37.2,36.2,30.06,WSW,248,0.0,0.0,96,0.00,,,0.00,0.00,VWS V14.00,2013-01-17 09:10:00,
2013-01-17 03:11:00,37.2,36.2,30.06,West,263,0.0,0.0,96,0.00,,,0.00,0.00,VWS V14.00,2013-01-17 09:11:00,
2013-01-17 03:12:00,37.2,36.2,30.06,NW,310,0.0,0.0,96,0.00,,,0.00,0.00,VWS V14.00,2013-01-17 09:12:00,
2013-01-17 03:13:00,37.2,36.2,30.06,West,259,0.0,0.0,96,0.00,,,0.00,0.00,VWS V14.00,2013-01-17 09:13:00,
2013-01-17 03:14:00,37.2,36.2,30.06,WNW,302,0.0,0.0,96,0.00,,,0.00,0.00,VWS V14.00,2013-01-17 09:14:00,
2013-01-17 03:15:00,37.2,36.2,30.06,WNW,284,0.0,0.0,96,0.00,,,0.00,0.00,VWS V14.00,2013-01-17 09:15:00,
2013-01-17 03:16:00,37.2,36.2,30.06,WNW,286,0.0,0.0,96,0.00,,,0.00,0.00,VWS V14.00,2013-01-17 09:16:00,
2013-01-17 03:17:00,37.2,36.2,30.06,WNW,291,0.0,0.0,96,0.00,,,0.00,0.00,VWS V14.00,2013-01-17 09:17:00,
2013-01-17 03:18:00,37.2,36.2,30.06,SW,222,0.0,0.0,96,0.00,,,0.00,0.00,VWS V14.00,2013-01-17 09:18:00,
2013-01-17 03:19:00,37.2,36.2,30.06,West,275,0.0,0.0,96,0.00,,,0.00,0.00,VWS V14.00,2013-01-17 09:19:00,
2013-01-17 03:20:00,37.2,36.2,30.06,WNW,289,0.0,0.0,96,0.00,,,0.00,0.00,VWS V14.00,2013-01-17 09:20:00,
2013-01-17 03:21:00,37.2,36.2,30.06,West,264,0.0,0.0,96,0.00,,,0.00,0.00,VWS V14.00,2013-01-17 09:21:00,
2013-01-17 03:22:00,37.2,36.2,30.06,NW,321,0.0,0.0,96,0.00,,,0.00,0.00,VWS V14.00,2013-01-17 09:22:00,
2013-01-17 03:23:00,37.2,36.2,30.06,WSW,254,0.0,0.0,96,0.00,,,0.00,0.00,VWS V14.00,2013-01-17 09:23:00,
2013-01-17 03:24:00,37.2,36.2,30.06,WNW,284,0.0,0.0,96,0.00,,,0.00,0.00,VWS V14.00,2013-01-17 09:24:00,
2013-01-17 03:25:00,37.0,36.0,30.06,NW,305,0.0,0.0,96,0.00,,,0.00,0.00,VWS V14.00,2013-01-17 09:25:00,
2013-01-17 03:26:00,37.0,36.0,30.06,West,264,0.0,0.0,96,0.00,,,0.00,0.00,VWS V14.00,2013-01-17 09:26:00,
2013-01-17 03:27:00,37.0,36.0,30.06,NW,304,0.0,0.0,96,0.00,,,0.00,0.00,VWS V14.00,2013-01-17 09:27:00,
2013-01-17 03:28:00,37.0,36.0,30.06,NW,324,0.0,0.0,96,0.00,,,0.00,0.00,VWS V14.00,2013-01-17 09:28:00,
2013-01-17 03:29:00,37.0,36.0,30.06,West,279,0.0,0.0,96,0.00,,,0.00,0.00,VWS V14.00,2013-01-17 09:29:00,
2013-01-17 03:30:00,37.0,36.0,30.06,West,273,0.0,0.0,96,0.00,,,0.00,0.00,VWS V14.00,2013-01-17 09:30:00,
2013-01-17 03:31:00,37.0,36.0,30.06,WNW,289,0.0,0.0,96,0.00,,,0.00,0.00,VWS V14.00,2013-01-17 09:31:00,
2013-01-17 03:32:00,37.0,36.0,30.06,NNW,327,0.0,0.0,96,0.00,,,0.00,0.00,VWS V14.00,2013-01-17 09:32:00,
2013-01-17 03:33:00,37.0,36.0,30.06,WNW,288,0.0,0.0,96,0.00,,,0.00,0.00,VWS V14.00,2013-01-17 09:33:00,
2013-01-17 03:34:00,37.0,36.0,30.06,NW,315,0.0,0.0,96,0.00,,,0.00,0.00,VWS V14.00,2013-01-17 09:34:00,
2013-01-17 03:35:00,37.0,36.0,30.06,West,275,0.0,0.0,96,0.00,,,0.00,0.00,VWS V14.00,2013-01-17 09:35:00,
2013-01-17 03:36:00,37.0,36.0,30.06,NW,305,0.0,0.0,96,0.00,,,0.00,0.00,VWS V14.00,2013-01-17 09:36:00,
2013-01-17 03:37:00,37.0,36.0,30.06,WNW,300,0.0,0.0,96,0.00,,,0.00,0.00,VWS V14.00,2013-01-17 09:37:00,
2013-01-17 03:38:00,36.9,35.9,30.06,WSW,254,0.0,0.0,96,0.00,,,0.00,0.00,VWS V14.00,2013-01-17 09:38:00,
2013-01-17 03:39:00,36.9,35.9,30.06,WNW,295,0.0,0.0,96,0.00,,,0.00,0.00,VWS V14.00,2013-01-17 09:39:00,
2013-01-17 03:40:00,36.9,35.9,30.06,WSW,253,0.0,0.0,96,0.00,,,0.00,0.00,VWS V14.00,2013-01-17 09:40:00,
2013-01-17 03:41:00,36.9,35.9,30.06,WSW,249,0.0,0.0,96,0.00,,,0.00,0.00,VWS V14.00,2013-01-17 09:41:00,
2013-01-17 03:42:00,36.9,35.9,30.06,WSW,249,0.0,0.0,96,0.00,,,0.00,0.00,VWS V14.00,2013-01-17 09:42:00,
2013-01-17 03:43:00,36.9,35.9,30.06,West,269,0.0,0.0,96,0.00,,,0.00,0.00,VWS V14.00,2013-01-17 09:43:00,
2013-01-17 03:44:00,36.9,35.9,30.06,NW,308,0.0,0.0,96,0.00,,,0.00,0.00,VWS V14.00,2013-01-17 09:44:00,
2013-01-17 03:45:00,36.9,35.9,30.06,NW,305,0.0,0.0,96,0.00,,,0.00,0.00,VWS V14.00,2013-01-17 09:45:00,
2013-01-17 03:46:00,36.9,35.9,30.06,West,274,0.0,0.0,96,0.00,,,0.00,0.00,VWS V14.00,2013-01-17 09:46:00,
2013-01-17 03:47:00,36.9,35.9,30.06,NNW,348,0.0,0.0,96,0.00,,,0.00,0.00,VWS V14.00,2013-01-17 09:47:00,
2013-01-17 03:48:00,36.9,35.9,30.06,WNW,284,0.0,0.0,96,0.00,,,0.00,0.00,VWS V14.00,2013-01-17 09:48:00,
2013-01-17 03:49:00,36.9,35.9,30.06,West,277,0.0,0.0,96,0.00,,,0.00,0.00,VWS V14.00,2013-01-17 09:49:00,
2013-01-17 03:50:00,36.9,35.9,30.06,WNW,299,0.0,0.0,96,0.00,,,0.00,0.00,VWS V14.00,2013-01-17 09:50:00,
2013-01-17 03:51:00,36.9,35.9,30.06,West,279,0.0,0.0,96,0.00,,,0.00,0.00,VWS V14.00,2013-01-17 09:51:00,
2013-01-17 03:52:00,36.9,35.9,30.06,WNW,300,0.0,0.0,96,0.00,,,0.00,0.00,VWS V14.00,2013-01-17 09:52:00,
2013-01-17 03:53:00,36.9,35.9,30.06,WNW,284,0.0,0.0,96,0.00,,,0.00,0.00,VWS V14.00,2013-01-17 09:53:00,
2013-01-17 03:54:00,36.9,35.9,30.06,WNW,284,0.0,0.0,96,0.00,,,0.00,0.00,VWS V14.00,2013-01-17 09:54:00,
2013-01-17 03:55:00,36.9,35.9,30.06,WNW,285,0.0,0.0,96,0.00,,,0.00,0.00,VWS V14.00,2013-01-17 09:55:00,
2013-01-17 03:56:00,36.9,35.9,30.06,WSW,254,0.0,0.0,96,0.00,,,0.00,0.00,VWS V14.00,2013-01-17 09:56:00,
2013-01-17 03:57:00,36.9,35.9,30.06,WNW,285,0.0,0.0,96,0.00,,,0.00,0.00,VWS V14.00,2013-01-17 09:57:00,
2013-01-17 03:58:00,37.0,36.0,30.06,WNW,282,0.0,0.0,96,0.00,,,0.00,0.00,VWS V14.00,2013-01-17 09:58:00,
2013-01-17 03:59:00,37.0,36.0,30.06,WNW,291,0.0,0.0,96,0.00,,,0.00,0.00,VWS V14.00,2013-01-17 09:59:00,
2013-01-17 04:00:00,37.0,36.0,30.06,NW,322,0.0,0.0,96,0.00,,,0.00,0.00,VWS V14.00,2013-01-17 10:00:00,
2013-01-17 04:01:00,37.0,36.0,30.06,WNW,290,0.0,0.0,96,0.00,,,0.00,0.00,VWS V14.00,2013-01-17 10:01:00,
2013-01-17 04:02:00,37.0,36.0,30.06,West,269,0.0,0.0,96,0.00,,,0.00,0.00,VWS V14.00,2013-01-17 10:02:00,
2013-01-17 04:03:00,37.0,36.0,30.06,NW,317,0.0,0.0,96,0.00,,,0.00,0.00,VWS V14.00,2013-01-17 10:03:00,
2013-01-17 04:04:00,37.0,36.0,30.06,WNW,285,0.0,0.0,96,0.00,,,0.00,0.00,VWS V14.00,2013-01-17 10:04:00,
2013-01-17 04:05:00,37.0,36.0,30.06,West,270,0.0,0.0,96,0.00,,,0.00,0.00,VWS V14.00,2013-01-17 10:05:00,
2013-01-17 04:06:00,37.0,36.0,30.06,WSW,250,0.0,0.0,96,0.00,,,0.00,0.00,VWS V14.00,2013-01-17 10:06:00,
2013-01-17 04:07:00,37.0,36.0,30.06,West,274,0.0,0.0,96,0.00,,,0.00,0.00,VWS V14.00,2013-01-17 10:07:00,
2013-01-17 04:08:00,37.0,36.0,30.06,WNW,290,0.0,0.0,96,0.00,,,0.00,0.00,VWS V14.00,2013-01-17 10:08:00,
2013-01-17 04:09:00,37.0,36.0,30.06,WNW,296,0.0,0.0,96,0.00,,,0.00,0.00,VWS V14.00,2013-01-17 10:09:00,
2013-01-17 04:10:00,37.0,36.0,30.06,WNW,301,0.0,0.0,96,0.00,,,0.00,0.00,VWS V14.00,2013-01-17 10:10:00,
2013-01-17 04:11:00,37.0,36.0,30.06,WNW,287,0.0,0.0,96,0.00,,,0.00,0.00,VWS V14.00,2013-01-17 10:11:00,
2013-01-17 04:12:00,37.0,36.0,30.06,NW,319,0.0,0.0,96,0.00,,,0.00,0.00,VWS V14.00,2013-01-17 10:12:00,
2013-01-17 04:13:00,37.0,36.0,30.06,WNW,303,0.0,0.0,96,0.00,,,0.00,0.00,VWS V14.00,2013-01-17 10:13:00,
2013-01-17 04:14:00,37.0,36.0,30.06,NW,304,0.0,0.0,96,0.00,,,0.00,0.00,VWS V14.00,2013-01-17 10:14:00,
2013-01-17 04:15:00,37.0,36.0,30.06,North,355,0.0,0.0,96,0.00,,,0.00,0.00,VWS V14.00,2013-01-17 10:15:00,
2013-01-17 04:16:00,37.0,36.0,30.06,SW,224,0.0,0.0,96,0.00,,,0.00,0.00,VWS V14.00,2013-01-17 10:16:00,
2013-01-17 04:17:00,37.0,36.0,30.06,WSW,251,0.0,0.0,96,0.00,,,0.00,0.00,VWS V14.00,2013-01-17 10:17:00,
2013-01-17 04:18:00,37.2,36.2,30.06,West,279,0.0,0.0,96,0.00,,,0.00,0.00,VWS V14.00,2013-01-17 10:18:00,
2013-01-17 04:19:00,37.2,36.2,30.06,NW,307,0.0,0.0,96,0.00,,,0.00,0.00,VWS V14.00,2013-01-17 10:19:00,
2013-01-17 04:20:00,37.2,36.2,30.06,WNW,284,0.0,0.0,96,0.00,,,0.00,0.00,VWS V14.00,2013-01-17 10:20:00,
2013-01-17 04:21:00,37.2,36.2,30.06,NW,308,0.0,0.0,96,0.00,,,0.00,0.00,VWS V14.00,2013-01-17 10:21:00,
2013-01-17 04:22:00,37.2,36.2,30.06,WSW,257,0.0,0.0,96,0.00,,,0.00,0.00,VWS V14.00,2013-01-17 10:22:00,
2013-01-17 04:23:00,37.2,36.2,30.06,WNW,300,0.0,0.0,96,0.00,,,0.00,0.00,VWS V14.00,2013-01-17 10:23:00,
2013-01-17 04:24:00,37.2,36.2,30.06,WNW,292,0.0,0.0,96,0.00,,,0.00,0.00,VWS V14.00,2013-01-17 10:24:00,
2013-01-17 04:25:00,37.2,36.2,30.06,WSW,251,0.0,0.0,96,0.00,,,0.00,0.00,VWS V14.00,2013-01-17 10:25:00,
2013-01-17 04:26:00,37.2,36.2,30.06,WNW,296,0.0,0.0,96,0.00,,,0.00,0.00,VWS V14.00,2013-01-17 10:26:00,
2013-01-17 04:27:00,37.2,36.2,30.06,WNW,292,0.0,0.0,96,0.00,,,0.00,0.00,VWS V14.00,2013-01-17 10:27:00,
2013-01-17 04:28:00,37.2,35.9,30.06,NW,310,0.0,0.0,95,0.00,,,0.00,0.00,VWS V14.00,2013-01-17 10:28:00,
2013-01-17 04:29:00,37.2,35.9,30.07,WNW,285,0.0,0.0,95,0.00,,,0.00,0.00,VWS V14.00,2013-01-17 10:29:00,
2013-01-17 04:30:00,37.2,35.9,30.07,WNW,301,0.0,0.0,95,0.00,,,0.00,0.00,VWS V14.00,2013-01-17 10:30:00,
2013-01-17 04:31:00,37.2,35.9,30.07,West,281,0.0,0.0,95,0.00,,,0.00,0.00,VWS V14.00,2013-01-17 10:31:00,
2013-01-17 04:32:00,37.2,35.9,30.07,NW,313,0.0,0.0,95,0.00,,,0.00,0.00,VWS V14.00,2013-01-17 10:32:00,
2013-01-17 04:33:00,37.2,35.9,30.07,SW,231,0.0,0.0,95,0.00,,,0.00,0.00,VWS V14.00,2013-01-17 10:33:00,
2013-01-17 04:34:00,37.2,35.9,30.07,NNW,345,0.0,0.0,95,0.00,,,0.00,0.00,VWS V14.00,2013-01-17 10:34:00,
2013-01-17 04:35:00,37.2,35.9,30.07,WSW,239,0.0,0.0,95,0.00,,,0.00,0.00,VWS V14.00,2013-01-17 10:35:00,
2013-01-17 04:36:00,37.2,35.9,30.07,WNW,289,0.0,0.0,95,0.00,,,0.00,0.00,VWS V14.00,2013-01-17 10:36:00,
2013-01-17 04:37:00,37.3,36.0,30.07,West,270,0.0,0.0,95,0.00,,,0.00,0.00,VWS V14.00,2013-01-17 10:37:00,
2013-01-17 04:38:00,37.3,36.0,30.07,NNW,335,0.0,0.0,95,0.00,,,0.00,0.00,VWS V14.00,2013-01-17 10:38:00,
2013-01-17 04:39:00,37.3,36.0,30.07,WNW,286,0.0,0.0,95,0.00,,,0.00,0.00,VWS V14.00,2013-01-17 10:39:00,
2013-01-17 04:40:00,37.3,36.0,30.07,NW,321,0.0,0.0,95,0.00,,,0.00,0.00,VWS V14.00,2013-01-17 10:40:00,
2013-01-17 04:41:00,37.3,36.0,30.07,WNW,295,0.0,0.0,95,0.00,,,0.00,0.00,VWS V14.00,2013-01-17 10:41:00,
2013-01-17 04:42:00,37.3,36.0,30.07,West,273,0.0,0.0,95,0.00,,,0.00,0.00,VWS V14.00,2013-01-17 10:42:00,
2013-01-17 04:43:00,37.3,36.0,30.07,West,259,0.0,0.0,95,0.00,,,0.00,0.00,VWS V14.00,2013-01-17 10:43:00,
2013-01-17 04:44:00,37.3,36.0,30.07,NW,317,0.0,0.0,95,0.00,,,0.00,0.00,VWS V14.00,2013-01-17 10:44:00,
2013-01-17 04:45:00,37.3,36.0,30.07,WNW,286,0.0,0.0,95,0.00,,,0.00,0.00,VWS V14.00,2013-01-17 10:45:00,
2013-01-17 04:46:00,37.3,36.0,30.07,NW,315,0.0,0.0,95,0.00,,,0.00,0.00,VWS V14.00,2013-01-17 10:46:00,
2013-01-17 04:47:00,37.3,36.0,30.07,NW,325,0.0,0.0,95,0.00,,,0.00,0.00,VWS V14.00,2013-01-17 10:47:00,
2013-01-17 04:48:00,37.3,36.0,30.07,West,270,0.0,0.0,95,0.00,,,0.00,0.00,VWS V14.00,2013-01-17 10:48:00,
2013-01-17 04:49:00,37.3,36.0,30.07,SW,220,0.0,0.0,95,0.00,,,0.00,0.00,VWS V14.00,2013-01-17 10:49:00,
2013-01-17 04:50:00,37.3,35.7,30.07,WSW,240,0.0,0.0,94,0.00,,,0.00,0.00,VWS V14.00,2013-01-17 10:50:00,
2013-01-17 04:51:00,37.3,35.7,30.07,NW,317,0.0,0.0,94,0.00,,,0.00,0.00,VWS V14.00,2013-01-17 10:51:00,
2013-01-17 04:52:00,37.3,35.7,30.07,NNW,340,0.0,0.0,94,0.00,,,0.00,0.00,VWS V14.00,2013-01-17 10:52:00,
2013-01-17 04:53:00,37.3,35.7,30.07,NW,321,0.0,0.0,94,0.00,,,0.00,0.00,VWS V14.00,2013-01-17 10:53:00,
2013-01-17 04:54:00,37.5,35.9,30.07,WNW,301,0.0,0.0,94,0.00,,,0.00,0.00,VWS V14.00,2013-01-17 10:54:00,
2013-01-17 04:55:00,37.5,35.9,30.07,NW,307,0.0,0.0,94,0.00,,,0.00,0.00,VWS V14.00,2013-01-17 10:55:00,
2013-01-17 04:56:00,37.5,35.9,30.07,NW,314,0.0,0.0,94,0.00,,,0.00,0.00,VWS V14.00,2013-01-17 10:56:00,
2013-01-17 04:57:00,37.5,35.9,30.07,West,262,0.0,0.0,94,0.00,,,0.00,0.00,VWS V14.00,2013-01-17 10:57:00,
2013-01-17 04:58:00,37.5,35.9,30.07,West,275,0.0,0.0,94,0.00,,,0.00,0.00,VWS V14.00,2013-01-17 10:58:00,
2013-01-17 04:59:00,37.5,35.9,30.08,NW,326,0.0,0.0,94,0.00,,,0.00,0.00,VWS V14.00,2013-01-17 10:59:00,
2013-01-17 05:00:00,37.5,35.9,30.08,SW,224,0.0,0.0,94,0.00,,,0.00,0.00,VWS V14.00,2013-01-17 11:00:00,
2013-01-17 05:01:00,37.5,35.9,30.08,West,281,0.0,0.0,94,0.00,,,0.00,0.00,VWS V14.00,2013-01-17 11:01:00,
2013-01-17 05:02:00,37.5,35.9,30.08,West,281,0.0,0.0,94,0.00,,,0.00,0.00,VWS V14.00,2013-01-17 11:02:00,
2013-01-17 05:03:00,37.5,35.7,30.08,NW,307,0.0,0.0,93,0.00,,,0.00,0.00,VWS V14.00,2013-01-17 11:03:00,
2013-01-17 05:04:00,37.5,35.7,30.08,North,355,0.0,0.0,93,0.00,,,0.00,0.00,VWS V14.00,2013-01-17 11:04:00,
2013-01-17 05:05:00,37.5,35.7,30.08,West,263,0.0,0.0,93,0.00,,,0.00,0.00,VWS V14.00,2013-01-17 11:05:00,
2013-01-17 05:06:00,37.5,35.7,30.08,West,272,0.0,0.0,93,0.00,,,0.00,0.00,VWS V14.00,2013-01-17 11:06:00,
2013-01-17 05:07:00,37.5,35.7,30.08,NW,305,0.0,0.0,93,0.00,,,0.00,0.00,VWS V14.00,2013-01-17 11:07:00,
2013-01-17 05:08:00,37.5,35.7,30.08,NW,313,0.0,0.0,93,0.00,,,0.00,0.00,VWS V14.00,2013-01-17 11:08:00,
2013-01-17 05:09:00,37.5,35.7,30.08,NNW,336,0.0,0.0,93,0.00,,,0.00,0.00,VWS V14.00,2013-01-17 11:09:00,
2013-01-17 05:10:00,37.5,35.7,30.08,WNW,286,0.0,0.0,93,0.00,,,0.00,0.00,VWS V14.00,2013-01-17 11:10:00,
2013-01-17 05:11:00,37.5,35.4,30.08,West,272,0.0,0.0,92,0.00,,,0.00,0.00,VWS V14.00,2013-01-17 11:11:00,
2013-01-17 05:12:00,37.5,35.4,30.08,WNW,285,0.0,0.0,92,0.00,,,0.00,0.00,VWS V14.00,2013-01-17 11:12:00,
2013-01-17 05:13:00,37.3,35.2,30.08,West,281,0.0,0.0,92,0.00,,,0.00,0.00,VWS V14.00,2013-01-17 11:13:00,
2013-01-17 05:14:00,37.3,35.2,30.08,NNW,335,0.0,0.0,92,0.00,,,0.00,0.00,VWS V14.00,2013-01-17 11:14:00,
2013-01-17 05:15:00,37.3,35.2,30.08,NNW,329,0.0,0.0,92,0.00,,,0.00,0.00,VWS V14.00,2013-01-17 11:15:00,
2013-01-17 05:16:00,37.3,34.9,30.08,North,360,0.0,0.0,91,0.00,,,0.00,0.00,VWS V14.00,2013-01-17 11:16:00,
2013-01-17 05:17:00,37.3,34.9,30.08,NW,304,0.0,0.0,91,0.00,,,0.00,0.00,VWS V14.00,2013-01-17 11:17:00,
2013-01-17 05:18:00,37.3,34.9,30.08,WNW,292,0.0,0.0,91,0.00,,,0.00,0.00,VWS V14.00,2013-01-17 11:18:00,
2013-01-17 05:19:00,37.3,34.9,30.08,NNW,329,0.0,0.0,91,0.00,,,0.00,0.00,VWS V14.00,2013-01-17 11:19:00,
2013-01-17 05:20:00,37.3,34.9,30.08,WNW,282,0.0,0.0,91,0.01,,,0.01,0.00,VWS V14.00,2013-01-17 11:20:00,
2013-01-17 05:21:00,37.3,34.9,30.08,NW,308,0.0,0.0,91,0.01,,,0.01,0.00,VWS V14.00,2013-01-17 11:21:00,
2013-01-17 05:22:00,37.3,34.6,30.08,NNW,346,0.0,0.0,90,0.01,,,0.01,0.00,VWS V14.00,2013-01-17 11:22:00,
2013-01-17 05:23:00,37.3,34.6,30.08,North,5,0.0,0.0,90,0.01,,,0.01,0.00,VWS V14.00,2013-01-17 11:23:00,
2013-01-17 05:24:00,37.3,34.6,30.08,NNW,328,0.0,0.0,90,0.01,,,0.01,0.00,VWS V14.00,2013-01-17 11:24:00,
2013-01-17 05:25:00,37.3,34.6,30.08,West,278,0.0,0.0,90,0.01,,,0.01,0.00,VWS V14.00,2013-01-17 11:25:00,
2013-01-17 05:26:00,37.3,34.6,30.08,WNW,303,0.0,0.0,90,0.01,,,0.01,0.00,VWS V14.00,2013-01-17 11:26:00,
2013-01-17 05:27:00,37.3,34.4,30.08,NW,317,0.0,0.0,89,0.01,,,0.01,0.00,VWS V14.00,2013-01-17 11:27:00,
2013-01-17 05:28:00,37.3,34.4,30.08,WSW,254,0.0,0.0,89,0.01,,,0.01,0.00,VWS V14.00,2013-01-17 11:28:00,
2013-01-17 05:29:00,37.3,34.4,30.09,NW,325,0.0,0.0,89,0.01,,,0.01,0.00,VWS V14.00,2013-01-17 11:29:00,
2013-01-17 05:30:00,37.3,34.4,30.09,WNW,300,0.0,0.0,89,0.01,,,0.01,0.00,VWS V14.00,2013-01-17 11:30:00,
2013-01-17 05:31:00,37.2,34.3,30.09,WNW,289,0.0,0.0,89,0.01,,,0.01,0.00,VWS V14.00,2013-01-17 11:31:00,
2013-01-17 05:32:00,37.2,34.3,30.09,WNW,291,0.0,0.0,89,0.01,,,0.01,0.00,VWS V14.00,2013-01-17 11:32:00,
2013-01-17 05:33:00,37.2,34.3,30.09,NW,315,0.0,0.0,89,0.01,,,0.01,0.00,VWS V14.00,2013-01-17 11:33:00,
2013-01-17 05:34:00,37.2,34.3,30.09,West,263,0.0,0.0,89,0.01,,,0.01,0.00,VWS V14.00,2013-01-17 11:34:00,
2013-01-17 05:35:00,37.2,34.3,30.09,West,265,0.0,0.0,89,0.01,,,0.01,0.00,VWS V14.00,2013-01-17 11:35:00,
2013-01-17 05:36:00,37.2,34.3,30.09,NNW,331,0.0,0.0,89,0.01,,,0.01,0.00,VWS V14.00,2013-01-17 11:36:00,
2013-01-17 05:37:00,37.2,34.3,30.09,North,5,0.0,0.0,89,0.01,,,0.01,0.00,VWS V14.00,2013-01-17 11:37:00,
2013-01-17 05:38:00,37.2,34.3,30.09,NNW,330,0.0,0.0,89,0.01,,,0.01,0.00,VWS V14.00,2013-01-17 11:38:00,
2013-01-17 05:39:00,37.2,34.3,30.09,West,280,0.0,0.0,89,0.01,,,0.01,0.00,VWS V14.00,2013-01-17 11:39:00,
2013-01-17 05:40:00,37.2,34.3,30.09,WNW,299,0.0,0.0,89,0.01,,,0.01,0.00,VWS V14.00,2013-01-17 11:40:00,
2013-01-17 05:41:00,37.2,34.3,30.09,North,355,0.0,0.0,89,0.01,,,0.01,0.00,VWS V14.00,2013-01-17 11:41:00,
2013-01-17 05:42:00,37.2,34.0,30.09,WNW,286,0.0,0.0,88,0.01,,,0.01,0.00,VWS V14.00,2013-01-17 11:42:00,
2013-01-17 05:43:00,37.2,34.0,30.09,WNW,303,0.0,0.0,88,0.01,,,0.01,0.00,VWS V14.00,2013-01-17 11:43:00,
2013-01-17 05:44:00,37.2,34.0,30.11,WNW,284,0.0,0.0,88,0.01,,,0.01,0.00,VWS V14.00,2013-01-17 11:44:00,
2013-01-17 05:45:00,37.2,34.0,30.11,NW,311,0.0,0.0,88,0.01,,,0.01,0.00,VWS V14.00,2013-01-17 11:45:00,
2013-01-17 05:46:00,37.2,34.0,30.11,West,261,0.0,0.0,88,0.01,,,0.01,0.00,VWS V14.00,2013-01-17 11:46:00,
2013-01-17 05:47:00,37.2,34.0,30.11,NW,311,0.0,0.0,88,0.01,,,0.01,0.00,VWS V14.00,2013-01-17 11:47:00,
2013-01-17 05:48:00,37.2,34.0,30.11,SW,219,0.0,0.0,88,0.01,,,0.01,0.00,VWS V14.00,2013-01-17 11:48:00,
2013-01-17 05:49:00,37.2,34.0,30.11,NNW,336,0.0,0.0,88,0.01,,,0.01,0.00,VWS V14.00,2013-01-17 11:49:00,
2013-01-17 05:50:00,37.0,33.8,30.11,NNW,329,0.0,0.0,88,0.01,,,0.01,0.00,VWS V14.00,2013-01-17 11:50:00,
2013-01-17 05:51:00,37.0,33.8,30.11,NNW,347,0.0,0.0,88,0.01,,,0.01,0.00,VWS V14.00,2013-01-17 11:51:00,
2013-01-17 05:52:00,37.0,33.8,30.11,West,281,0.0,0.0,88,0.01,,,0.01,0.00,VWS V14.00,2013-01-17 11:52:00,
2013-01-17 05:53:00,37.0,33.8,30.11,NNW,327,0.0,0.0,88,0.01,,,0.01,0.00,VWS V14.00,2013-01-17 11:53:00,
2013-01-17 05:54:00,37.0,33.8,30.11,WNW,292,0.0,0.0,88,0.01,,,0.01,0.00,VWS V14.00,2013-01-17 11:54:00,
2013-01-17 05:55:00,37.0,33.8,30.11,WNW,296,0.0,0.0,88,0.01,,,0.01,0.00,VWS V14.00,2013-01-17 11:55:00,
2013-01-17 05:56:00,37.0,33.8,30.11,SW,219,0.0,0.0,88,0.01,,,0.01,0.00,VWS V14.00,2013-01-17 11:56:00,
2013-01-17 05:57:00,37.0,33.8,30.11,WNW,298,0.0,0.0,88,0.01,,,0.01,0.00,VWS V14.00,2013-01-17 11:57:00,
2013-01-17 05:58:00,36.9,33.7,30.11,NW,313,0.0,0.0,88,0.01,,,0.01,0.00,VWS V14.00,2013-01-17 11:58:00,
2013-01-17 05:59:00,36.9,33.4,30.12,WNW,293,0.0,0.0,87,0.01,,,0.01,0.00,VWS V14.00,2013-01-17 11:59:00,
2013-01-17 06:00:00,36.9,33.4,30.12,SSW,205,0.0,0.0,87,0.01,,,0.01,0.00,VWS V14.00,2013-01-17 12:00:00,
2013-01-17 06:01:00,36.9,33.4,30.12,WNW,284,0.0,0.0,87,0.01,,,0.01,0.00,VWS V14.00,2013-01-17 12:01:00,
2013-01-17 06:02:00,36.9,33.4,30.12,WNW,283,0.0,0.0,87,0.01,,,0.01,0.00,VWS V14.00,2013-01-17 12:02:00,
2013-01-17 06:03:00,36.9,33.4,30.12,WNW,302,0.0,0.0,87,0.01,,,0.01,0.00,VWS V14.00,2013-01-17 12:03:00,
2013-01-17 06:04:00,36.9,33.4,30.12,NNE,18,0.0,0.0,87,0.01,,,0.01,0.00,VWS V14.00,2013-01-17 12:04:00,
2013-01-17 06:05:00,36.9,33.4,30.12,North,360,0.0,0.0,87,0.01,,,0.01,0.00,VWS V14.00,2013-01-17 12:05:00,
2013-01-17 06:06:00,36.9,33.4,30.12,NW,304,0.0,0.0,87,0.01,,,0.01,0.00,VWS V14.00,2013-01-17 12:06:00,
2013-01-17 06:07:00,36.9,33.4,30.12,NW,304,0.0,0.0,87,0.01,,,0.01,0.00,VWS V14.00,2013-01-17 12:07:00,
2013-01-17 06:08:00,36.9,33.4,30.12,West,263,0.0,0.0,87,0.01,,,0.01,0.00,VWS V14.00,2013-01-17 12:08:00,
2013-01-17 06:09:00,36.9,33.4,30.12,SW,231,0.0,0.0,87,0.01,,,0.01,0.00,VWS V14.00,2013-01-17 12:09:00,
2013-01-17 06:10:00,36.9,33.4,30.12,WNW,293,0.0,0.0,87,0.01,,,0.01,0.00,VWS V14.00,2013-01-17 12:10:00,
2013-01-17 06:11:00,36.9,33.4,30.12,WNW,287,0.0,0.0,87,0.01,,,0.01,0.00,VWS V14.00,2013-01-17 12:11:00,
2013-01-17 06:12:00,36.9,33.4,30.12,WNW,283,0.0,0.0,87,0.01,,,0.01,0.00,VWS V14.00,2013-01-17 12:12:00,
2013-01-17 06:13:00,36.9,33.4,30.12,NNW,340,0.0,0.0,87,0.01,,,0.01,0.00,VWS V14.00,2013-01-17 12:13:00,
2013-01-17 06:14:00,36.9,33.4,30.12,West,273,0.0,0.0,87,0.01,,,0.01,0.00,VWS V14.00,2013-01-17 12:14:00,
2013-01-17 06:15:00,36.9,33.4,30.12,SW,234,0.0,0.0,87,0.01,,,0.01,0.00,VWS V14.00,2013-01-17 12:15:00,
2013-01-17 06:16:00,36.9,33.4,30.12,NNW,327,0.0,0.0,87,0.01,,,0.01,0.00,VWS V14.00,2013-01-17 12:16:00,
2013-01-17 06:17:00,36.9,33.4,30.12,West,267,0.0,0.0,87,0.01,,,0.01,0.00,VWS V14.00,2013-01-17 12:17:00,
2013-01-17 06:18:00,36.9,33.4,30.12,WNW,290,0.0,0.0,87,0.01,,,0.01,0.00,VWS V14.00,2013-01-17 12:18:00,
2013-01-17 06:19:00,36.9,33.4,30.12,NNW,338,0.0,0.0,87,0.01,,,0.01,0.00,VWS V14.00,2013-01-17 12:19:00,
2013-01-17 06:20:00,36.9,33.4,30.12,West,273,0.0,0.0,87,0.01,,,0.01,0.00,VWS V14.00,2013-01-17 12:20:00,
2013-01-17 06:21:00,36.9,33.4,30.12,North,350,0.0,0.0,87,0.01,,,0.01,0.00,VWS V14.00,2013-01-17 12:21:00,
2013-01-17 06:22:00,36.8,33.3,30.12,West,277,0.0,0.0,87,0.01,,,0.01,0.00,VWS V14.00,2013-01-17 12:22:00,
2013-01-17 06:23:00,36.8,33.3,30.12,West,268,0.0,0.0,87,0.01,,,0.01,0.00,VWS V14.00,2013-01-17 12:23:00,
2013-01-17 06:24:00,36.8,33.3,30.12,NNW,336,0.0,0.0,87,0.01,,,0.01,0.00,VWS V14.00,2013-01-17 12:24:00,
2013-01-17 06:25:00,36.8,33.0,30.12,WNW,286,0.0,0.0,86,0.01,,,0.01,0.00,VWS V14.00,2013-01-17 12:25:00,
2013-01-17 06:26:00,36.8,33.0,30.12,North,355,0.0,0.0,86,0.01,,,0.01,0.00,VWS V14.00,2013-01-17 12:26:00,
2013-01-17 06:27:00,36.6,32.8,30.12,WSW,244,0.0,0.0,86,0.01,,,0.01,0.00,VWS V14.00,2013-01-17 12:27:00,
2013-01-17 06:28:00,36.6,32.8,30.12,West,271,0.0,0.0,86,0.01,,,0.01,0.00,VWS V14.00,2013-01-17 12:28:00,
2013-01-17 06:29:00,36.6,32.8,30.13,NW,325,0.0,0.0,86,0.01,,,0.01,0.00,VWS V14.00,2013-01-17 12:29:00,
2013-01-17 06:30:00,36.6,32.5,30.13,WSW,252,0.0,0.0,85,0.01,,,0.01,0.00,VWS V14.00,2013-01-17 12:30:00,
2013-01-17 06:31:00,36.6,32.5,30.13,WSW,238,0.0,0.0,85,0.00,,,0.01,0.00,VWS V14.00,2013-01-17 12:31:00,
2013-01-17 06:32:00,36.6,32.5,30.13,NNW,334,0.0,0.0,85,0.00,,,0.01,0.00,VWS V14.00,2013-01-17 12:32:00,
2013-01-17 06:33:00,36.6,32.5,30.13,West,265,0.0,0.0,85,0.00,,,0.01,0.00,VWS V14.00,2013-01-17 12:33:00,
2013-01-17 06:34:00,36.6,32.5,30.13,North,355,0.0,0.0,85,0.00,,,0.01,0.00,VWS V14.00,2013-01-17 12:34:00,
2013-01-17 06:36:00,36.6,32.5,30.13,NW,312,0.0,0.0,85,0.00,,,0.01,0.00,VWS V14.00,2013-01-17 12:36:00,
2013-01-17 06:37:00,36.6,32.5,30.13,NW,313,0.0,0.0,85,0.00,,,0.01,0.00,VWS V14.00,2013-01-17 12:37:00,
2013-01-17 06:38:00,36.6,32.5,30.13,NW,313,0.0,0.0,85,0.00,,,0.01,5.00,VWS V14.00,2013-01-17 12:38:00,
2013-01-17 06:39:00,36.6,32.5,30.13,WNW,303,0.0,0.0,85,0.00,,,0.01,5.00,VWS V14.00,2013-01-17 12:39:00,
2013-01-17 06:40:00,36.6,32.5,30.13,NW,306,0.0,0.0,85,0.00,,,0.01,5.00,VWS V14.00,2013-01-17 12:40:00,
2013-01-17 06:41:00,36.5,32.4,30.13,West,279,0.0,0.0,85,0.00,,,0.01,7.00,VWS V14.00,2013-01-17 12:41:00,
2013-01-17 06:42:00,36.5,32.4,30.13,NNE,24,0.0,0.0,85,0.00,,,0.01,7.00,VWS V14.00,2013-01-17 12:42:00,
2013-01-17 06:43:00,36.5,32.4,30.13,WSW,250,0.0,0.0,85,0.00,,,0.01,7.00,VWS V14.00,2013-01-17 12:43:00,
2013-01-17 06:44:00,36.5,32.4,30.13,WNW,302,0.0,0.0,85,0.00,,,0.01,7.00,VWS V14.00,2013-01-17 12:44:00,
2013-01-17 06:45:00,36.5,32.4,30.13,NNW,348,0.0,0.0,85,0.00,,,0.01,7.00,VWS V14.00,2013-01-17 12:45:00,
2013-01-17 06:46:00,36.5,32.4,30.13,NW,323,0.0,0.0,85,0.00,,,0.01,9.00,VWS V14.00,2013-01-17 12:46:00,
2013-01-17 06:47:00,36.5,32.4,30.13,NW,311,0.0,0.0,85,0.00,,,0.01,11.00,VWS V14.00,2013-01-17 12:47:00,
2013-01-17 06:48:00,36.5,32.4,30.13,North,351,0.0,0.0,85,0.00,,,0.01,14.00,VWS V14.00,2013-01-17 12:48:00,
2013-01-17 06:49:00,36.5,32.4,30.13,WNW,302,0.0,0.0,85,0.00,,,0.01,18.00,VWS V14.00,2013-01-17 12:49:00,
2013-01-17 06:50:00,36.5,32.4,30.13,NNW,331,0.0,0.0,85,0.00,,,0.01,19.00,VWS V14.00,2013-01-17 12:50:00,
2013-01-17 06:51:00,36.5,32.4,30.13,NW,324,0.0,0.0,85,0.00,,,0.01,19.00,VWS V14.00,2013-01-17 12:51:00,
2013-01-17 06:52:00,36.5,32.4,30.13,NNW,344,0.0,0.0,85,0.00,,,0.01,21.00,VWS V14.00,2013-01-17 12:52:00,
2013-01-17 06:53:00,36.5,32.4,30.13,NNW,335,0.0,0.0,85,0.00,,,0.01,23.00,VWS V14.00,2013-01-17 12:53:00,
2013-01-17 06:54:00,36.5,32.4,30.13,NW,311,0.0,0.0,85,0.00,,,0.01,26.00,VWS V14.00,2013-01-17 12:54:00,
2013-01-17 06:55:00,36.5,32.4,30.13,WNW,284,0.0,0.0,85,0.00,,,0.01,26.00,VWS V14.00,2013-01-17 12:55:00,
2013-01-17 06:56:00,36.5,32.4,30.13,NW,306,0.0,0.0,85,0.00,,,0.01,26.00,VWS V14.00,2013-01-17 12:56:00,
2013-01-17 06:57:00,36.6,32.5,30.13,WNW,301,0.0,0.0,85,0.00,,,0.01,26.00,VWS V14.00,2013-01-17 12:57:00,
2013-01-17 06:58:00,36.6,32.5,30.13,WNW,296,0.0,0.0,85,0.00,,,0.01,30.00,VWS V14.00,2013-01-17 12:58:00,
2013-01-17 06:59:00,36.5,32.4,30.14,NNW,341,0.0,0.0,85,0.00,,,0.01,32.00,VWS V14.00,2013-01-17 12:59:00,
2013-01-17 07:00:00,36.5,32.4,30.14,NNW,339,0.0,0.0,85,0.00,,,0.01,32.00,VWS V14.00,2013-01-17 13:00:00,
2013-01-17 07:01:00,36.6,32.5,30.14,SW,219,0.0,0.0,85,0.00,,,0.01,35.00,VWS V14.00,2013-01-17 13:01:00,
2013-01-17 07:02:00,36.6,32.5,30.14,NW,314,0.0,0.0,85,0.00,,,0.01,39.00,VWS V14.00,2013-01-17 13:02:00,
2013-01-17 07:03:00,36.6,32.5,30.14,NNW,336,0.0,0.0,85,0.00,,,0.01,39.00,VWS V14.00,2013-01-17 13:03:00,
2013-01-17 07:04:00,36.6,32.5,30.14,WNW,292,0.0,0.0,85,0.00,,,0.01,39.00,VWS V14.00,2013-01-17 13:04:00,
2013-01-17 07:05:00,36.6,32.5,30.14,NW,309,0.0,0.0,85,0.00,,,0.01,37.00,VWS V14.00,2013-01-17 13:05:00,
2013-01-17 07:06:00,36.6,32.5,30.14,WNW,294,0.0,0.0,85,0.00,,,0.01,35.00,VWS V14.00,2013-01-17 13:06:00,
2013-01-17 07:07:00,36.6,32.5,30.14,NW,321,0.0,0.0,85,0.00,,,0.01,33.00,VWS V14.00,2013-01-17 13:07:00,
2013-01-17 07:08:00,36.6,32.5,30.14,WNW,283,0.0,0.0,85,0.00,,,0.01,30.00,VWS V14.00,2013-01-17 13:08:00,
2013-01-17 07:09:00,36.6,32.5,30.14,NW,314,0.0,0.0,85,0.00,,,0.01,25.00,VWS V14.00,2013-01-17 13:09:00,
2013-01-17 07:10:00,36.6,32.5,30.14,NNW,327,0.0,0.0,85,0.00,,,0.01,23.00,VWS V14.00,2013-01-17 13:10:00,
2013-01-17 07:11:00,36.6,32.5,30.14,WNW,296,0.0,0.0,85,0.00,,,0.01,25.00,VWS V14.00,2013-01-17 13:11:00,
2013-01-17 07:12:00,36.6,32.5,30.14,WNW,294,0.0,0.0,85,0.00,,,0.01,25.00,VWS V14.00,2013-01-17 13:12:00,
2013-01-17 07:13:00,36.6,32.5,30.14,West,268,0.0,0.0,85,0.00,,,0.01,28.00,VWS V14.00,2013-01-17 13:13:00,
2013-01-17 07:14:00,36.6,32.5,30.14,WNW,288,0.0,0.0,85,0.00,,,0.01,32.00,VWS V14.00,2013-01-17 13:14:00,
2013-01-17 07:15:00,36.6,32.5,30.15,NW,320,0.0,0.0,85,0.00,,,0.01,37.00,VWS V14.00,2013-01-17 13:15:00,
2013-01-17 07:16:00,36.6,32.5,30.15,WNW,294,0.0,0.0,85,0.00,,,0.01,35.00,VWS V14.00,2013-01-17 13:16:00,
2013-01-17 07:17:00,36.6,32.5,30.15,NNE,13,0.0,0.0,85,0.00,,,0.01,33.00,VWS V14.00,2013-01-17 13:17:00,
2013-01-17 07:18:00,36.6,32.5,30.15,West,272,0.0,0.0,85,0.00,,,0.01,42.00,VWS V14.00,2013-01-17 13:18:00,
2013-01-17 07:19:00,36.6,32.5,30.15,NNW,340,0.0,0.0,85,0.00,,,0.01,56.00,VWS V14.00,2013-01-17 13:19:00,
2013-01-17 07:20:00,36.6,32.5,30.15,NW,309,0.0,0.0,85,0.00,,,0.01,69.00,VWS V14.00,2013-01-17 13:20:00,
2013-01-17 07:21:00,36.6,32.8,30.15,NW,313,0.0,0.0,86,0.00,,,0.01,86.00,VWS V14.00,2013-01-17 13:21:00,
2013-01-17 07:22:00,36.6,32.8,30.15,NNW,331,0.0,0.0,86,0.00,,,0.01,79.00,VWS V14.00,2013-01-17 13:22:00,
2013-01-17 07:23:00,36.6,32.8,30.15,WSW,256,0.0,0.0,86,0.00,,,0.01,95.00,VWS V14.00,2013-01-17 13:23:00,
2013-01-17 07:24:00,36.8,33.0,30.15,NW,323,0.0,0.0,86,0.00,,,0.01,98.00,VWS V14.00,2013-01-17 13:24:00,
2013-01-17 07:25:00,36.8,33.0,30.15,SW,215,0.0,0.0,86,0.00,,,0.01,104.00,VWS V14.00,2013-01-17 13:25:00,
2013-01-17 07:26:00,36.8,33.0,30.15,West,281,0.0,0.0,86,0.00,,,0.01,88.00,VWS V14.00,2013-01-17 13:26:00,
2013-01-17 07:27:00,36.8,33.0,30.15,NNW,336,0.0,0.0,86,0.00,,,0.01,84.00,VWS V14.00,2013-01-17 13:27:00,
2013-01-17 07:28:00,36.9,33.1,30.15,West,277,0.0,0.0,86,0.00,,,0.01,113.00,VWS V14.00,2013-01-17 13:28:00,
2013-01-17 07:29:00,36.9,33.1,30.16,West,280,0.0,0.0,86,0.00,,,0.01,107.00,VWS V14.00,2013-01-17 13:29:00,
2013-01-17 07:30:00,36.9,33.1,30.16,NNW,328,0.0,0.0,86,0.00,,,0.01,86.00,VWS V14.00,2013-01-17 13:30:00,
2013-01-17 07:31:00,37.0,33.2,30.16,WNW,293,0.0,0.0,86,0.00,,,0.01,130.00,VWS V14.00,2013-01-17 13:31:00,
2013-01-17 07:32:00,37.0,33.2,30.16,WNW,296,0.0,0.0,86,0.00,,,0.01,98.00,VWS V14.00,2013-01-17 13:32:00,
2013-01-17 07:33:00,37.0,33.2,30.16,WNW,297,0.0,0.0,86,0.00,,,0.01,77.00,VWS V14.00,2013-01-17 13:33:00,
2013-01-17 07:34:00,37.2,33.4,30.16,West,279,0.0,0.0,86,0.00,,,0.01,63.00,VWS V14.00,2013-01-17 13:34:00,
2013-01-17 07:35:00,37.2,33.4,30.16,WNW,286,0.0,0.0,86,0.00,,,0.01,97.00,VWS V14.00,2013-01-17 13:35:00,
2013-01-17 07:36:00,37.2,33.4,30.16,North,5,0.0,0.0,86,0.00,,,0.01,158.00,VWS V14.00,2013-01-17 13:36:00,
2013-01-17 07:37:00,37.2,33.4,30.16,NNW,333,0.0,0.0,86,0.00,,,0.01,62.00,VWS V14.00,2013-01-17 13:37:00,
2013-01-17 07:38:00,37.2,33.4,30.16,NNW,328,0.0,0.0,86,0.00,,,0.01,127.00,VWS V14.00,2013-01-17 13:38:00,
2013-01-17 07:39:00,37.3,33.5,30.16,NNW,333,0.0,0.0,86,0.00,,,0.01,111.00,VWS V14.00,2013-01-17 13:39:00,
2013-01-17 07:40:00,37.3,33.5,30.16,NNW,338,0.0,0.0,86,0.00,,,0.01,98.00,VWS V14.00,2013-01-17 13:40:00,
2013-01-17 07:41:00,37.3,33.5,30.16,WNW,294,0.0,0.0,86,0.00,,,0.01,156.00,VWS V14.00,2013-01-17 13:41:00,
2013-01-17 07:42:00,37.5,33.7,30.16,NW,318,0.0,0.0,86,0.00,,,0.01,153.00,VWS V14.00,2013-01-17 13:42:00,
2013-01-17 07:43:00,37.5,33.7,30.16,WSW,257,0.0,0.0,86,0.00,,,0.01,86.00,VWS V14.00,2013-01-17 13:43:00,
2013-01-17 07:44:00,37.5,33.7,30.16,NNW,330,0.0,0.0,86,0.00,,,0.01,162.00,VWS V14.00,2013-01-17 13:44:00,
2013-01-17 07:45:00,37.5,33.7,30.16,NW,306,0.0,0.0,86,0.00,,,0.01,90.00,VWS V14.00,2013-01-17 13:45:00,
2013-01-17 07:46:00,37.6,33.5,30.16,West,275,0.0,0.0,85,0.00,,,0.01,88.00,VWS V14.00,2013-01-17 13:46:00,
2013-01-17 07:47:00,37.6,33.5,30.16,WNW,292,0.0,0.0,85,0.00,,,0.01,104.00,VWS V14.00,2013-01-17 13:47:00,
2013-01-17 07:48:00,37.6,33.5,30.16,North,355,0.0,0.0,85,0.00,,,0.01,102.00,VWS V14.00,2013-01-17 13:48:00,
2013-01-17 07:49:00,37.6,33.5,30.16,NW,307,0.0,0.0,85,0.00,,,0.01,195.00,VWS V14.00,2013-01-17 13:49:00,
2013-01-17 07:50:00,37.6,33.5,30.16,West,267,0.0,0.0,85,0.00,,,0.01,204.00,VWS V14.00,2013-01-17 13:50:00,
2013-01-17 07:51:00,37.8,33.7,30.16,West,274,0.0,0.0,85,0.00,,,0.01,167.00,VWS V14.00,2013-01-17 13:51:00,
2013-01-17 07:52:00,37.8,33.7,30.16,NW,315,0.0,0.0,85,0.00,,,0.01,163.00,VWS V14.00,2013-01-17 13:52:00,
2013-01-17 07:53:00,37.8,33.7,30.16,NW,304,0.0,0.0,85,0.00,,,0.01,125.00,VWS V14.00,2013-01-17 13:53:00,
2013-01-17 07:54:00,37.9,33.5,30.16,WNW,296,0.0,0.0,84,0.00,,,0.01,72.00,VWS V14.00,2013-01-17 13:54:00,
2013-01-17 07:55:00,37.9,33.5,30.16,NW,323,0.0,0.0,84,0.00,,,0.01,188.00,VWS V14.00,2013-01-17 13:55:00,
2013-01-17 07:56:00,37.9,33.5,30.16,NW,314,0.0,0.0,84,0.00,,,0.01,209.00,VWS V14.00,2013-01-17 13:56:00,
2013-01-17 07:57:00,37.9,33.5,30.16,WNW,287,0.0,0.0,84,0.00,,,0.01,209.00,VWS V14.00,2013-01-17 13:57:00,
2013-01-17 07:58:00,38.0,33.6,30.16,West,263,0.0,0.0,84,0.00,,,0.01,237.00,VWS V14.00,2013-01-17 13:58:00,
2013-01-17 07:59:00,38.0,33.6,30.16,NNW,340,0.0,0.0,84,0.00,,,0.01,158.00,VWS V14.00,2013-01-17 13:59:00,
2013-01-17 08:00:00,38.2,33.8,30.17,West,259,0.0,0.0,84,0.00,,,0.01,100.00,VWS V14.00,2013-01-17 14:00:00,
2013-01-17 08:01:00,38.2,33.8,30.17,NW,319,0.0,0.0,84,0.00,,,0.01,100.00,VWS V14.00,2013-01-17 14:01:00,
2013-01-17 08:02:00,38.3,33.9,30.17,NW,311,0.0,0.0,84,0.00,,,0.01,100.00,VWS V14.00,2013-01-17 14:02:00,
2013-01-17 08:03:00,38.3,33.6,30.17,North,350,0.0,0.0,83,0.00,,,0.01,223.00,VWS V14.00,2013-01-17 14:03:00,
2013-01-17 08:04:00,38.3,33.6,30.17,WSW,257,0.0,0.0,83,0.00,,,0.01,265.00,VWS V14.00,2013-01-17 14:04:00,
2013-01-17 08:05:00,38.5,33.8,30.17,WNW,292,0.0,0.0,83,0.00,,,0.01,304.00,VWS V14.00,2013-01-17 14:05:00,
2013-01-17 08:06:00,38.5,33.8,30.17,WNW,299,0.0,0.0,83,0.00,,,0.01,318.00,VWS V14.00,2013-01-17 14:06:00,
2013-01-17 08:07:00,38.6,33.9,30.17,NNW,342,0.0,0.0,83,0.00,,,0.01,178.00,VWS V14.00,2013-01-17 14:07:00,
2013-01-17 08:08:00,38.6,33.9,30.17,West,278,0.0,0.0,83,0.00,,,0.01,160.00,VWS V14.00,2013-01-17 14:08:00,
2013-01-17 08:09:00,38.8,34.1,30.17,NW,316,0.0,0.0,83,0.00,,,0.01,172.00,VWS V14.00,2013-01-17 14:09:00,
2013-01-17 08:10:00,38.8,34.1,30.17,WSW,246,0.0,0.0,83,0.00,,,0.01,172.00,VWS V14.00,2013-01-17 14:10:00,
2013-01-17 08:11:00,38.9,33.9,30.17,NNW,331,0.0,0.0,82,0.00,,,0.01,172.00,VWS V14.00,2013-01-17 14:11:00,
2013-01-17 08:12:00,38.9,33.9,30.17,WNW,285,0.0,0.0,82,0.00,,,0.01,153.00,VWS V14.00,2013-01-17 14:12:00,
2013-01-17 08:13:00,38.9,33.9,30.17,NNW,329,0.0,0.0,82,0.00,,,0.01,169.00,VWS V14.00,2013-01-17 14:13:00,
2013-01-17 08:14:00,38.9,33.6,30.17,WNW,284,0.0,0.0,81,0.00,,,0.01,146.00,VWS V14.00,2013-01-17 14:14:00,
2013-01-17 08:15:00,39.1,33.8,30.17,WSW,252,0.0,0.0,81,0.00,,,0.01,127.00,VWS V14.00,2013-01-17 14:15:00,
2013-01-17 08:16:00,39.1,33.8,30.17,WNW,286,0.0,0.0,81,0.00,,,0.01,156.00,VWS V14.00,2013-01-17 14:16:00,
2013-01-17 08:17:00,39.1,33.8,30.17,North,5,0.0,0.0,81,0.00,,,0.01,156.00,VWS V14.00,2013-01-17 14:17:00,
2013-01-17 08:18:00,39.1,33.8,30.17,NW,318,0.0,0.0,81,0.00,,,0.01,237.00,VWS V14.00,2013-01-17 14:18:00,
2013-01-17 08:19:00,39.1,33.8,30.17,NW,315,0.0,0.0,81,0.00,,,0.01,132.00,VWS V14.00,2013-01-17 14:19:00,
2013-01-17 08:20:00,39.1,33.8,30.17,West,265,0.0,0.0,81,0.00,,,0.01,128.00,VWS V14.00,2013-01-17 14:20:00,
2013-01-17 08:21:00,39.2,33.9,30.17,WNW,302,0.0,0.0,81,0.00,,,0.01,128.00,VWS V14.00,2013-01-17 14:21:00,
2013-01-17 08:22:00,39.2,33.9,30.17,West,261,0.0,0.0,81,0.00,,,0.01,325.00,VWS V14.00,2013-01-17 14:22:00,
2013-01-17 08:23:00,39.2,33.9,30.17,WNW,293,0.0,0.0,81,0.00,,,0.01,260.00,VWS V14.00,2013-01-17 14:23:00,
2013-01-17 08:24:00,39.2,33.9,30.17,West,277,0.0,0.0,81,0.00,,,0.01,336.00,VWS V14.00,2013-01-17 14:24:00,
2013-01-17 08:25:00,39.3,34.0,30.17,WNW,300,0.0,0.0,81,0.00,,,0.01,308.00,VWS V14.00,2013-01-17 14:25:00,
2013-01-17 08:26:00,39.3,34.0,30.17,West,273,0.0,0.0,81,0.00,,,0.01,304.00,VWS V14.00,2013-01-17 14:26:00,
2013-01-17 08:27:00,39.5,34.2,30.17,NNW,341,0.0,0.0,81,0.00,,,0.01,297.00,VWS V14.00,2013-01-17 14:27:00,
2013-01-17 08:28:00,39.5,33.8,30.17,WNW,300,0.0,0.0,80,0.00,,,0.01,336.00,VWS V14.00,2013-01-17 14:28:00,
2013-01-17 08:29:00,39.5,33.8,30.18,North,360,0.0,0.0,80,0.00,,,0.01,336.00,VWS V14.00,2013-01-17 14:29:00,
2013-01-17 08:30:00,39.6,34.0,30.18,North,11,0.0,0.0,80,0.00,,,0.01,336.00,VWS V14.00,2013-01-17 14:30:00,
2013-01-17 08:31:00,39.6,34.0,30.18,North,355,0.0,0.0,80,0.00,,,0.01,336.00,VWS V14.00,2013-01-17 14:31:00,
2013-01-17 08:32:00,39.8,33.8,30.18,West,259,0.0,0.0,79,0.00,,,0.01,336.00,VWS V14.00,2013-01-17 14:32:00,
2013-01-17 08:33:00,39.8,33.8,30.18,WSW,242,0.0,0.0,79,0.00,,,0.01,336.00,VWS V14.00,2013-01-17 14:33:00,
2013-01-17 08:34:00,39.8,34.1,30.18,NW,304,0.0,0.0,80,0.00,,,0.01,146.00,VWS V14.00,2013-01-17 14:34:00,
2013-01-17 08:35:00,39.9,33.9,30.18,WNW,289,0.0,0.0,79,0.00,,,0.01,246.00,VWS V14.00,2013-01-17 14:35:00,
2013-01-17 08:36:00,39.9,33.9,30.18,NW,309,0.0,0.0,79,0.00,,,0.01,176.00,VWS V14.00,2013-01-17 14:36:00,
2013-01-17 08:37:00,39.9,33.9,30.18,West,267,0.0,0.0,79,0.00,,,0.01,330.00,VWS V14.00,2013-01-17 14:37:00,
2013-01-17 08:38:00,40.1,34.1,30.18,NNW,348,0.0,0.0,79,0.00,,,0.01,323.00,VWS V14.00,2013-01-17 14:38:00,
2013-01-17 08:39:00,40.1,34.1,30.18,SW,217,0.0,0.0,79,0.00,,,0.01,322.00,VWS V14.00,2013-01-17 14:39:00,
2013-01-17 08:40:00,40.1,34.1,30.18,WSW,245,0.0,0.0,79,0.00,,,0.01,329.00,VWS V14.00,2013-01-17 14:40:00,
2013-01-17 08:41:00,40.2,34.2,30.18,NNW,346,0.0,0.0,79,0.00,,,0.01,251.00,VWS V14.00,2013-01-17 14:41:00,
2013-01-17 08:42:00,40.2,34.2,30.18,NNW,331,0.0,0.0,79,0.00,,,0.01,353.00,VWS V14.00,2013-01-17 14:42:00,
2013-01-17 08:43:00,40.3,34.3,30.18,West,276,0.0,0.0,79,0.00,,,0.01,302.00,VWS V14.00,2013-01-17 14:43:00,
2013-01-17 08:44:00,40.3,34.0,30.18,NNW,344,0.0,0.0,78,0.00,,,0.01,362.00,VWS V14.00,2013-01-17 14:44:00,
2013-01-17 08:45:00,40.5,34.2,30.18,WNW,301,0.0,0.0,78,0.00,,,0.01,369.00,VWS V14.00,2013-01-17 14:45:00,
2013-01-17 08:46:00,40.5,34.2,30.18,WSW,238,0.0,0.0,78,0.00,,,0.01,387.00,VWS V14.00,2013-01-17 14:46:00,
2013-01-17 08:47:00,40.6,34.0,30.18,West,267,0.0,0.0,77,0.00,,,0.01,387.00,VWS V14.00,2013-01-17 14:47:00,
2013-01-17 08:48:00,40.8,34.2,30.18,NW,317,0.0,0.0,77,0.00,,,0.01,387.00,VWS V14.00,2013-01-17 14:48:00,
2013-01-17 08:49:00,40.8,34.2,30.18,North,355,0.0,0.0,77,0.00,,,0.01,387.00,VWS V14.00,2013-01-17 14:49:00,
2013-01-17 08:50:00,40.8,33.8,30.18,NNW,327,0.0,0.0,76,0.00,,,0.01,352.00,VWS V14.00,2013-01-17 14:50:00,
2013-01-17 08:51:00,40.9,33.9,30.18,North,350,0.0,0.0,76,0.00,,,0.01,353.00,VWS V14.00,2013-01-17 14:51:00,
2013-01-17 08:52:00,40.9,33.9,30.18,NNW,329,0.0,0.0,76,0.00,,,0.01,366.00,VWS V14.00,2013-01-17 14:52:00,
2013-01-17 08:53:00,40.9,33.9,30.18,NNW,347,0.0,0.0,76,0.00,,,0.01,353.00,VWS V14.00,2013-01-17 14:53:00,
2013-01-17 08:54:00,41.1,34.1,30.18,WNW,296,0.0,0.0,76,0.00,,,0.01,353.00,VWS V14.00,2013-01-17 14:54:00,
2013-01-17 08:55:00,41.1,34.1,30.18,NW,305,0.0,0.0,76,0.00,,,0.01,350.00,VWS V14.00,2013-01-17 14:55:00,
2013-01-17 08:56:00,41.2,34.2,30.18,WNW,286,0.0,0.0,76,0.00,,,0.01,352.00,VWS V14.00,2013-01-17 14:56:00,
2013-01-17 08:57:00,41.2,34.2,30.18,NNW,337,0.0,0.0,76,0.00,,,0.01,353.00,VWS V14.00,2013-01-17 14:57:00,
2013-01-17 08:58:00,41.3,34.0,30.18,WNW,292,0.0,0.0,75,0.00,,,0.01,355.00,VWS V14.00,2013-01-17 14:58:00,
2013-01-17 08:59:00,41.5,34.2,30.18,NW,311,0.0,0.0,75,0.00,,,0.01,362.00,VWS V14.00,2013-01-17 14:59:00,
2013-01-17 09:00:00,41.5,34.2,30.18,WNW,302,0.0,0.0,75,0.00,,,0.01,367.00,VWS V14.00,2013-01-17 15:00:00,
2013-01-17 09:01:00,41.5,33.8,30.18,NW,319,0.0,0.0,74,0.00,,,0.01,364.00,VWS V14.00,2013-01-17 15:01:00,
2013-01-17 09:02:00,41.5,33.8,30.18,WSW,248,0.0,0.0,74,0.00,,,0.01,367.00,VWS V14.00,2013-01-17 15:02:00,
2013-01-17 09:03:00,41.5,33.8,30.18,NNW,331,0.0,0.0,74,0.00,,,0.01,374.00,VWS V14.00,2013-01-17 15:03:00,
2013-01-17 09:04:00,41.6,33.9,30.18,WNW,284,0.0,0.0,74,0.00,,,0.01,376.00,VWS V14.00,2013-01-17 15:04:00,
2013-01-17 09:05:00,41.6,33.9,30.18,North,5,0.0,0.0,74,0.00,,,0.01,378.00,VWS V14.00,2013-01-17 15:05:00,
2013-01-17 09:06:00,41.8,34.1,30.18,NNW,339,0.0,0.0,74,0.00,,,0.01,394.00,VWS V14.00,2013-01-17 15:06:00,
2013-01-17 09:07:00,41.8,34.1,30.18,NW,311,0.0,0.0,74,0.00,,,0.01,411.00,VWS V14.00,2013-01-17 15:07:00,
2013-01-17 09:08:00,41.8,33.8,30.18,West,265,0.0,0.0,73,0.00,,,0.01,404.00,VWS V14.00,2013-01-17 15:08:00,
2013-01-17 09:09:00,41.9,33.9,30.18,WNW,294,0.0,0.0,73,0.00,,,0.01,397.00,VWS V14.00,2013-01-17 15:09:00,
2013-01-17 09:10:00,42.1,34.1,30.18,WNW,289,0.0,0.0,73,0.00,,,0.01,388.00,VWS V14.00,2013-01-17 15:10:00,
2013-01-17 09:11:00,42.1,34.1,30.18,West,277,0.0,0.0,73,0.00,,,0.01,394.00,VWS V14.00,2013-01-17 15:11:00,
2013-01-17 09:12:00,42.2,34.2,30.18,NNW,334,0.0,0.0,73,0.00,,,0.01,390.00,VWS V14.00,2013-01-17 15:12:00,
2013-01-17 09:13:00,42.2,33.8,30.18,North,349,0.0,0.0,72,0.00,,,0.01,394.00,VWS V14.00,2013-01-17 15:13:00,
2013-01-17 09:14:00,42.3,33.9,30.18,NNW,331,0.0,0.0,72,0.00,,,0.01,396.00,VWS V14.00,2013-01-17 15:14:00,
2013-01-17 09:15:00,42.3,33.9,30.18,NNW,345,0.0,0.0,72,0.00,,,0.01,411.00,VWS V14.00,2013-01-17 15:15:00,
2013-01-17 09:16:00,42.3,33.6,30.18,NNE,24,0.0,0.0,71,0.00,,,0.01,399.00,VWS V14.00,2013-01-17 15:16:00,
2013-01-17 09:17:00,42.3,33.6,30.18,WNW,292,0.0,0.0,71,0.00,,,0.01,431.00,VWS V14.00,2013-01-17 15:17:00,
2013-01-17 09:18:00,42.3,33.6,30.18,NW,315,0.0,0.0,71,0.00,,,0.01,441.00,VWS V14.00,2013-01-17 15:18:00,
2013-01-17 09:19:00,42.3,33.6,30.18,NW,318,0.0,0.0,71,0.00,,,0.01,425.00,VWS V14.00,2013-01-17 15:19:00,
2013-01-17 09:20:00,42.3,33.6,30.18,NW,311,0.0,0.0,71,0.00,,,0.01,441.00,VWS V14.00,2013-01-17 15:20:00,
2013-01-17 09:21:00,42.5,33.8,30.18,WNW,292,0.0,0.0,71,0.00,,,0.01,441.00,VWS V14.00,2013-01-17 15:21:00,
2013-01-17 09:22:00,42.5,33.8,30.18,WNW,301,0.0,0.0,71,0.00,,,0.01,397.00,VWS V14.00,2013-01-17 15:22:00,
2013-01-17 09:23:00,42.5,33.8,30.18,West,267,0.0,0.0,71,0.00,,,0.01,450.00,VWS V14.00,2013-01-17 15:23:00,
2013-01-17 09:24:00,42.5,33.8,30.18,NW,307,0.0,0.0,71,0.00,,,0.01,411.00,VWS V14.00,2013-01-17 15:24:00,
2013-01-17 09:25:00,42.6,33.5,30.18,North,350,0.0,0.0,70,0.00,,,0.01,431.00,VWS V14.00,2013-01-17 15:25:00,
2013-01-17 09:26:00,42.6,33.5,30.18,NW,307,0.0,0.0,70,0.00,,,0.01,452.00,VWS V14.00,2013-01-17 15:26:00,
2013-01-17 09:27:00,42.6,33.5,30.18,NNW,333,0.0,0.0,70,0.00,,,0.01,452.00,VWS V14.00,2013-01-17 15:27:00,
2013-01-17 09:28:00,42.6,33.5,30.18,NNW,343,0.0,0.0,70,0.00,,,0.01,452.00,VWS V14.00,2013-01-17 15:28:00,
2013-01-17 09:29:00,42.6,33.5,30.18,North,5,0.0,0.0,70,0.00,,,0.01,429.00,VWS V14.00,2013-01-17 15:29:00,
2013-01-17 09:30:00,42.6,33.5,30.17,NNW,345,0.0,0.0,70,0.00,,,0.01,429.00,VWS V14.00,2013-01-17 15:30:00,
2013-01-17 09:31:00,42.6,33.5,30.17,NNE,12,0.0,0.0,70,0.00,,,0.01,429.00,VWS V14.00,2013-01-17 15:31:00,
2013-01-17 09:32:00,42.5,33.4,30.17,NNW,346,0.0,0.0,70,0.00,,,0.01,424.00,VWS V14.00,2013-01-17 15:32:00,
2013-01-17 09:33:00,42.5,33.4,30.17,North,350,0.0,0.0,70,0.00,,,0.01,429.00,VWS V14.00,2013-01-17 15:33:00,
2013-01-17 09:34:00,42.5,33.8,30.17,NNW,341,0.0,0.0,71,0.00,,,0.01,436.00,VWS V14.00,2013-01-17 15:34:00,
2013-01-17 09:35:00,42.6,33.9,30.17,NNW,330,0.0,0.0,71,0.00,,,0.01,436.00,VWS V14.00,2013-01-17 15:35:00,
2013-01-17 09:36:00,42.6,33.9,30.17,NNW,336,0.0,0.0,71,0.00,,,0.01,436.00,VWS V14.00,2013-01-17 15:36:00,
2013-01-17 09:37:00,42.8,34.4,30.17,NNW,348,0.0,0.0,72,0.00,,,0.01,438.00,VWS V14.00,2013-01-17 15:37:00,
2013-01-17 09:38:00,42.9,34.5,30.17,West,269,0.0,0.0,72,0.00,,,0.01,439.00,VWS V14.00,2013-01-17 15:38:00,
2013-01-17 09:39:00,43.1,34.3,30.17,NW,311,0.0,0.0,71,0.00,,,0.01,439.00,VWS V14.00,2013-01-17 15:39:00,
2013-01-17 09:40:00,43.1,34.0,30.17,NNE,28,0.0,0.0,70,0.00,,,0.01,443.00,VWS V14.00,2013-01-17 15:40:00,
2013-01-17 09:41:00,43.2,34.1,30.17,NNW,339,0.0,0.0,70,0.00,,,0.01,443.00,VWS V14.00,2013-01-17 15:41:00,
2013-01-17 09:42:00,43.3,34.2,30.17,NW,319,0.0,0.0,70,0.00,,,0.01,445.00,VWS V14.00,2013-01-17 15:42:00,
2013-01-17 09:43:00,43.3,33.8,30.17,WNW,283,0.0,0.0,69,0.00,,,0.01,450.00,VWS V14.00,2013-01-17 15:43:00,
2013-01-17 09:44:00,43.3,33.8,30.17,WNW,300,0.0,0.0,69,0.00,,,0.01,446.00,VWS V14.00,2013-01-17 15:44:00,
2013-01-17 09:45:00,43.3,33.8,30.17,NNW,346,0.0,0.0,69,0.00,,,0.01,455.00,VWS V14.00,2013-01-17 15:45:00,
2013-01-17 09:46:00,43.5,34.0,30.17,West,259,0.0,0.0,69,0.00,,,0.01,455.00,VWS V14.00,2013-01-17 15:46:00,
2013-01-17 09:47:00,43.5,34.0,30.17,ESE,118,0.0,0.0,69,0.00,,,0.01,455.00,VWS V14.00,2013-01-17 15:47:00,
2013-01-17 09:48:00,43.6,34.1,30.17,WNW,288,0.0,0.0,69,0.00,,,0.01,457.00,VWS V14.00,2013-01-17 15:48:00,
2013-01-17 09:49:00,43.8,33.9,30.17,SW,233,0.0,0.0,68,0.00,,,0.01,464.00,VWS V14.00,2013-01-17 15:49:00,
2013-01-17 09:50:00,43.8,33.9,30.17,West,273,0.0,0.0,68,0.00,,,0.01,462.00,VWS V14.00,2013-01-17 15:50:00,
2013-01-17 09:51:00,43.9,34.0,30.17,North,11,0.0,0.0,68,0.00,,,0.01,464.00,VWS V14.00,2013-01-17 15:51:00,
2013-01-17 09:52:00,44.1,34.2,30.17,NNW,327,0.0,0.0,68,0.00,,,0.01,466.00,VWS V14.00,2013-01-17 15:52:00,
2013-01-17 09:53:00,44.1,34.2,30.17,NNE,15,0.0,0.0,68,0.00,,,0.01,466.00,VWS V14.00,2013-01-17 15:53:00,
2013-01-17 09:54:00,44.2,34.0,30.17,NW,313,0.0,0.0,67,0.00,,,0.01,471.00,VWS V14.00,2013-01-17 15:54:00,
2013-01-17 09:55:00,44.2,34.0,30.17,North,9,0.0,0.0,67,0.00,,,0.01,471.00,VWS V14.00,2013-01-17 15:55:00,
2013-01-17 09:56:00,44.3,34.4,30.17,NW,311,0.0,0.0,68,0.00,,,0.01,473.00,VWS V14.00,2013-01-17 15:56:00,
2013-01-17 09:57:00,44.3,34.0,30.17,North,360,0.0,0.0,67,0.00,,,0.01,476.00,VWS V14.00,2013-01-17 15:57:00,
2013-01-17 09:58:00,44.5,33.9,30.17,NNW,335,0.0,0.0,66,0.00,,,0.01,476.00,VWS V14.00,2013-01-17 15:58:00,
2013-01-17 09:59:00,44.5,34.2,30.17,NW,315,0.0,0.0,67,0.00,,,0.01,476.00,VWS V14.00,2013-01-17 15:59:00,
2013-01-17 10:00:00,44.5,34.2,30.17,NNW,347,0.0,0.0,67,0.00,,,0.01,480.00,VWS V14.00,2013-01-17 16:00:00,
2013-01-17 10:01:00,44.5,34.2,30.17,NW,323,0.0,0.0,67,0.00,,,0.01,478.00,VWS V14.00,2013-01-17 16:01:00,
2013-01-17 10:02:00,44.5,34.2,30.17,NNW,344,0.0,0.0,67,0.00,,,0.01,482.00,VWS V14.00,2013-01-17 16:02:00,
2013-01-17 10:03:00,44.6,34.3,30.17,North,5,0.0,0.0,67,0.00,,,0.01,485.00,VWS V14.00,2013-01-17 16:03:00,
2013-01-17 10:04:00,44.6,34.3,30.17,WNW,288,0.0,0.0,67,0.00,,,0.01,490.00,VWS V14.00,2013-01-17 16:04:00,
2013-01-17 10:05:00,44.8,34.5,30.17,NW,305,0.0,0.0,67,0.00,,,0.01,489.00,VWS V14.00,2013-01-17 16:05:00,
2013-01-17 10:06:00,44.8,34.5,30.17,North,355,0.0,0.0,67,0.00,,,0.01,483.00,VWS V14.00,2013-01-17 16:06:00,
2013-01-17 10:07:00,44.9,34.2,30.17,West,266,0.0,0.0,66,0.00,,,0.01,483.00,VWS V14.00,2013-01-17 16:07:00,
2013-01-17 10:08:00,45.1,34.8,30.17,North,355,0.0,0.0,67,0.00,,,0.01,496.00,VWS V14.00,2013-01-17 16:08:00,
2013-01-17 10:09:00,45.1,34.4,30.17,North,355,0.0,0.0,66,0.00,,,0.01,496.00,VWS V14.00,2013-01-17 16:09:00,
2013-01-17 10:10:00,45.2,34.5,30.17,NNW,348,0.0,0.0,66,0.00,,,0.01,494.00,VWS V14.00,2013-01-17 16:10:00,
2013-01-17 10:11:00,45.4,34.7,30.17,West,275,0.0,0.0,66,0.00,,,0.01,497.00,VWS V14.00,2013-01-17 16:11:00,
2013-01-17 10:12:00,45.4,34.7,30.17,WSW,250,0.0,0.0,66,0.00,,,0.01,508.00,VWS V14.00,2013-01-17 16:12:00,
2013-01-17 10:13:00,45.7,34.6,30.17,WNW,298,0.0,0.0,65,0.00,,,0.01,503.00,VWS V14.00,2013-01-17 16:13:00,
2013-01-17 10:14:00,45.7,34.6,30.17,NW,313,0.0,0.0,65,0.00,,,0.01,503.00,VWS V14.00,2013-01-17 16:14:00,
2013-01-17 10:15:00,45.8,34.3,30.19,SW,227,0.0,0.0,64,0.00,,,0.01,503.00,VWS V14.00,2013-01-17 16:15:00,
2013-01-17 10:16:00,46.0,34.5,30.19,WSW,248,0.0,0.0,64,0.00,,,0.01,503.00,VWS V14.00,2013-01-17 16:16:00,
2013-01-17 10:17:00,46.1,35.0,30.19,West,261,0.0,0.0,65,0.00,,,0.01,504.00,VWS V14.00,2013-01-17 16:17:00,
2013-01-17 10:18:00,46.1,34.6,30.19,West,268,0.0,0.0,64,0.00,,,0.01,512.00,VWS V14.00,2013-01-17 16:18:00,
2013-01-17 10:19:00,46.2,34.7,30.19,WNW,293,0.0,0.0,64,0.00,,,0.01,520.00,VWS V14.00,2013-01-17 16:19:00,
2013-01-17 10:20:00,46.4,34.9,30.19,NW,319,0.0,0.0,64,0.00,,,0.01,513.00,VWS V14.00,2013-01-17 16:20:00,
2013-01-17 10:21:00,46.5,35.0,30.19,NNW,336,0.0,0.0,64,0.00,,,0.01,520.00,VWS V14.00,2013-01-17 16:21:00,
2013-01-17 10:22:00,46.7,35.2,30.19,West,279,0.0,0.0,64,0.00,,,0.01,534.00,VWS V14.00,2013-01-17 16:22:00,
2013-01-17 10:23:00,46.8,35.3,30.19,North,360,0.0,0.0,64,0.00,,,0.01,541.00,VWS V14.00,2013-01-17 16:23:00,
2013-01-17 10:24:00,47.0,35.1,30.19,West,275,0.0,0.0,63,0.00,,,0.01,541.00,VWS V14.00,2013-01-17 16:24:00,
2013-01-17 10:25:00,47.0,35.1,30.19,NW,304,0.0,0.0,63,0.00,,,0.01,557.00,VWS V14.00,2013-01-17 16:25:00,
2013-01-17 10:26:00,47.1,35.2,30.19,NNW,331,0.0,0.0,63,0.00,,,0.01,557.00,VWS V14.00,2013-01-17 16:26:00,
2013-01-17 10:27:00,47.1,35.2,30.19,SSW,202,0.0,0.0,63,0.00,,,0.01,557.00,VWS V14.00,2013-01-17 16:27:00,
2013-01-17 10:28:00,47.3,35.4,30.19,NW,313,0.0,0.0,63,0.00,,,0.01,573.00,VWS V14.00,2013-01-17 16:28:00,
2013-01-17 10:29:00,47.4,35.5,30.18,NW,323,0.0,0.0,63,0.00,,,0.01,573.00,VWS V14.00,2013-01-17 16:29:00,
2013-01-17 10:30:00,47.4,35.8,30.18,NNW,340,0.0,0.0,64,0.00,,,0.01,573.00,VWS V14.00,2013-01-17 16:30:00,
2013-01-17 10:31:00,47.6,35.6,30.18,North,350,0.0,0.0,63,0.00,,,0.01,573.00,VWS V14.00,2013-01-17 16:31:00,
2013-01-17 10:32:00,47.7,35.7,30.18,SW,221,0.0,0.0,63,0.00,,,0.01,531.00,VWS V14.00,2013-01-17 16:32:00,
2013-01-17 10:33:00,47.7,35.3,30.18,NW,310,0.0,0.0,62,0.00,,,0.01,533.00,VWS V14.00,2013-01-17 16:33:00,
2013-01-17 10:34:00,47.9,35.9,30.18,WSW,240,0.0,0.0,63,0.00,,,0.01,513.00,VWS V14.00,2013-01-17 16:34:00,
2013-01-17 10:35:00,48.0,35.6,30.18,North,360,0.0,0.0,62,0.00,,,0.01,545.00,VWS V14.00,2013-01-17 16:35:00,
2013-01-17 10:36:00,48.0,36.0,30.18,West,270,0.0,0.0,63,0.00,,,0.01,557.00,VWS V14.00,2013-01-17 16:36:00,
2013-01-17 10:37:00,48.2,35.4,30.18,WSW,241,0.0,0.0,61,0.00,,,0.01,563.00,VWS V14.00,2013-01-17 16:37:00,
2013-01-17 10:38:00,48.3,35.9,30.18,NW,309,0.0,0.0,62,0.00,,,0.01,541.00,VWS V14.00,2013-01-17 16:38:00,
2013-01-17 10:39:00,48.3,35.5,30.18,NNW,342,0.0,0.0,61,0.00,,,0.01,545.00,VWS V14.00,2013-01-17 16:39:00,
2013-01-17 10:40:00,48.5,35.7,30.18,WNW,302,0.0,0.0,61,0.00,,,0.01,554.00,VWS V14.00,2013-01-17 16:40:00,
2013-01-17 10:41:00,48.5,35.7,30.18,NW,318,0.0,0.0,61,0.00,,,0.01,561.00,VWS V14.00,2013-01-17 16:41:00,
2013-01-17 10:42:00,48.5,35.7,30.18,WNW,285,0.0,0.0,61,0.00,,,0.01,568.00,VWS V14.00,2013-01-17 16:42:00,
2013-01-17 10:43:00,48.5,35.7,30.18,NNW,340,0.0,0.0,61,0.00,,,0.01,585.00,VWS V14.00,2013-01-17 16:43:00,
2013-01-17 10:44:00,48.5,35.7,30.18,NW,306,0.0,0.0,61,0.00,,,0.01,585.00,VWS V14.00,2013-01-17 16:44:00,
2013-01-17 10:45:00,48.5,35.7,30.18,NNW,343,0.0,0.0,61,0.00,,,0.01,570.00,VWS V14.00,2013-01-17 16:45:00,
2013-01-17 10:46:00,48.5,35.7,30.18,NW,319,0.0,0.0,61,0.00,,,0.01,578.00,VWS V14.00,2013-01-17 16:46:00,
2013-01-17 10:47:00,48.6,35.8,30.18,North,5,0.0,0.0,61,0.00,,,0.01,584.00,VWS V14.00,2013-01-17 16:47:00,
2013-01-17 10:48:00,48.6,35.8,30.18,NNW,336,0.0,0.0,61,0.00,,,0.01,584.00,VWS V14.00,2013-01-17 16:48:00,
2013-01-17 10:49:00,48.6,35.8,30.18,NW,325,0.0,0.0,61,0.00,,,0.01,584.00,VWS V14.00,2013-01-17 16:49:00,
2013-01-17 10:50:00,48.6,35.8,30.18,NNW,341,0.0,0.0,61,0.00,,,0.01,575.00,VWS V14.00,2013-01-17 16:50:00,
2013-01-17 10:51:00,48.6,35.8,30.18,NW,323,0.0,0.0,61,0.00,,,0.01,585.00,VWS V14.00,2013-01-17 16:51:00,
2013-01-17 10:52:00,48.6,35.8,30.18,WNW,296,0.0,0.0,61,0.00,,,0.01,591.00,VWS V14.00,2013-01-17 16:52:00,
2013-01-17 10:53:00,48.6,35.8,30.18,WNW,294,0.0,0.0,61,0.00,,,0.01,599.00,VWS V14.00,2013-01-17 16:53:00,
2013-01-17 10:54:00,48.6,35.4,30.18,WNW,296,0.0,0.0,60,0.00,,,0.01,617.00,VWS V14.00,2013-01-17 16:54:00,
2013-01-17 10:55:00,48.6,35.4,30.18,NW,313,0.0,0.0,60,0.00,,,0.01,633.00,VWS V14.00,2013-01-17 16:55:00,
2013-01-17 10:56:00,48.8,36.0,30.18,WSW,250,0.0,0.0,61,0.00,,,0.01,636.00,VWS V14.00,2013-01-17 16:56:00,
2013-01-17 10:57:00,48.8,36.0,30.18,NW,312,0.0,0.0,61,0.00,,,0.01,647.00,VWS V14.00,2013-01-17 16:57:00,
2013-01-17 10:58:00,48.8,35.5,30.18,West,261,0.0,0.0,60,0.00,,,0.01,654.00,VWS V14.00,2013-01-17 16:58:00,
2013-01-17 10:59:00,48.9,36.1,30.17,WSW,256,0.0,0.0,61,0.00,,,0.01,626.00,VWS V14.00,2013-01-17 16:59:00,
2013-01-17 11:00:00,48.9,36.1,30.17,West,265,0.0,0.0,61,0.00,,,0.01,617.00,VWS V14.00,2013-01-17 17:00:00,
2013-01-17 11:01:00,49.1,35.8,30.17,NNW,340,0.0,0.0,60,0.00,,,0.01,629.00,VWS V14.00,2013-01-17 17:01:00,
2013-01-17 11:02:00,49.1,35.8,30.17,WNW,296,0.0,0.0,60,0.00,,,0.01,608.00,VWS V14.00,2013-01-17 17:02:00,
2013-01-17 11:03:00,49.1,35.8,30.17,WNW,288,0.0,0.0,60,0.00,,,0.01,608.00,VWS V14.00,2013-01-17 17:03:00,
2013-01-17 11:04:00,49.1,35.4,30.17,West,276,0.0,0.0,59,0.00,,,0.01,608.00,VWS V14.00,2013-01-17 17:04:00,
2013-01-17 11:05:00,49.1,35.8,30.17,North,355,0.0,0.0,60,0.00,,,0.01,575.00,VWS V14.00,2013-01-17 17:05:00,
2013-01-17 11:06:00,48.9,35.6,30.17,NW,306,0.0,0.0,60,0.00,,,0.01,566.00,VWS V14.00,2013-01-17 17:06:00,
2013-01-17 11:07:00,48.9,35.2,30.17,NNW,337,0.0,0.0,59,0.00,,,0.01,566.00,VWS V14.00,2013-01-17 17:07:00,
2013-01-17 11:08:00,48.8,35.1,30.17,NNW,333,0.0,0.0,59,0.00,,,0.01,564.00,VWS V14.00,2013-01-17 17:08:00,
2013-01-17 11:09:00,48.8,35.5,30.17,WNW,294,0.0,0.0,60,0.00,,,0.01,566.00,VWS V14.00,2013-01-17 17:09:00,
2013-01-17 11:10:00,48.8,35.1,30.17,WNW,303,0.0,0.0,59,0.00,,,0.01,568.00,VWS V14.00,2013-01-17 17:10:00,
2013-01-17 11:11:00,48.8,35.5,30.17,WNW,288,0.0,0.0,60,0.00,,,0.01,570.00,VWS V14.00,2013-01-17 17:11:00,
2013-01-17 11:12:00,48.6,35.4,30.17,WNW,300,0.0,0.0,60,0.00,,,0.01,577.00,VWS V14.00,2013-01-17 17:12:00,
2013-01-17 11:13:00,48.8,35.1,30.17,NW,325,0.0,0.0,59,0.00,,,0.01,598.00,VWS V14.00,2013-01-17 17:13:00,
2013-01-17 11:14:00,48.8,35.1,30.18,NW,317,0.0,0.0,59,0.00,,,0.01,606.00,VWS V14.00,2013-01-17 17:14:00,
2013-01-17 11:15:00,48.8,35.5,30.18,NW,311,0.0,0.0,60,0.00,,,0.01,606.00,VWS V14.00,2013-01-17 17:15:00,
2013-01-17 11:16:00,48.8,35.1,30.18,NW,319,0.0,0.0,59,0.00,,,0.01,606.00,VWS V14.00,2013-01-17 17:16:00,
2013-01-17 11:17:00,48.8,35.1,30.18,NNE,13,0.0,0.0,59,0.00,,,0.01,582.00,VWS V14.00,2013-01-17 17:17:00,
2013-01-17 11:18:00,48.8,35.1,30.18,NNW,329,0.0,0.0,59,0.00,,,0.01,610.00,VWS V14.00,2013-01-17 17:18:00,
2013-01-17 11:19:00,48.8,35.1,30.18,NW,313,0.0,0.0,59,0.00,,,0.01,626.00,VWS V14.00,2013-01-17 17:19:00,
2013-01-17 11:20:00,48.8,35.1,30.18,NW,309,0.0,0.0,59,0.00,,,0.01,626.00,VWS V14.00,2013-01-17 17:20:00,
2013-01-17 11:21:00,48.8,35.1,30.18,NW,321,0.0,0.0,59,0.00,,,0.01,626.00,VWS V14.00,2013-01-17 17:21:00,
2013-01-17 11:22:00,48.8,35.1,30.18,WSW,246,0.0,0.0,59,0.00,,,0.01,584.00,VWS V14.00,2013-01-17 17:22:00,
2013-01-17 11:23:00,48.9,35.6,30.18,North,5,0.0,0.0,60,0.00,,,0.01,580.00,VWS V14.00,2013-01-17 17:23:00,
2013-01-17 11:24:00,48.9,35.6,30.18,WNW,282,0.0,0.0,60,0.00,,,0.01,578.00,VWS V14.00,2013-01-17 17:24:00,
2013-01-17 11:25:00,48.9,35.2,30.18,WNW,288,0.0,0.0,59,0.00,,,0.01,587.00,VWS V14.00,2013-01-17 17:25:00,
2013-01-17 11:26:00,48.9,34.3,30.18,NW,317,0.0,0.0,57,0.00,,,0.01,582.00,VWS V14.00,2013-01-17 17:26:00,
2013-01-17 11:27:00,48.8,34.3,30.18,NNW,338,0.0,0.0,57,0.00,,,0.01,596.00,VWS V14.00,2013-01-17 17:27:00,
2013-01-17 11:28:00,48.6,34.1,30.18,NNW,348,0.0,0.0,57,0.00,,,0.01,596.00,VWS V14.00,2013-01-17 17:28:00,
2013-01-17 11:29:00,48.6,34.1,30.18,West,262,0.0,0.0,57,0.00,,,0.01,596.00,VWS V14.00,2013-01-17 17:29:00,
2013-01-17 11:30:00,48.6,34.1,30.18,NW,321,0.0,0.0,57,0.00,,,0.01,575.00,VWS V14.00,2013-01-17 17:30:00,
2013-01-17 11:31:00,48.6,34.1,30.18,WNW,303,0.0,0.0,57,0.00,,,0.01,578.00,VWS V14.00,2013-01-17 17:31:00,
2013-01-17 11:32:00,48.6,34.1,30.18,NW,322,0.0,0.0,57,0.00,,,0.01,577.00,VWS V14.00,2013-01-17 17:32:00,
2013-01-17 11:33:00,48.6,33.6,30.18,NNW,327,0.0,0.0,56,0.00,,,0.01,580.00,VWS V14.00,2013-01-17 17:33:00,
2013-01-17 11:34:00,48.6,34.1,30.18,NW,321,0.0,0.0,57,0.00,,,0.01,580.00,VWS V14.00,2013-01-17 17:34:00,
2013-01-17 11:35:00,48.6,33.6,30.18,WSW,254,0.0,0.0,56,0.00,,,0.01,578.00,VWS V14.00,2013-01-17 17:35:00,
2013-01-17 11:36:00,48.6,33.6,30.18,WNW,295,0.0,0.0,56,0.00,,,0.01,578.00,VWS V14.00,2013-01-17 17:36:00,
2013-01-17 11:37:00,48.6,33.6,30.18,WNW,293,0.0,0.0,56,0.00,,,0.01,577.00,VWS V14.00,2013-01-17 17:37:00,
2013-01-17 11:38:00,48.6,34.1,30.18,NNW,337,0.0,0.0,57,0.00,,,0.01,584.00,VWS V14.00,2013-01-17 17:38:00,
2013-01-17 11:39:00,48.8,34.7,30.18,West,273,0.0,0.0,58,0.00,,,0.01,584.00,VWS V14.00,2013-01-17 17:39:00,
2013-01-17 11:40:00,48.9,34.3,30.18,NW,310,0.0,0.0,57,0.00,,,0.01,582.00,VWS V14.00,2013-01-17 17:40:00,
2013-01-17 11:41:00,48.9,34.3,30.18,West,271,0.0,0.0,57,0.00,,,0.01,578.00,VWS V14.00,2013-01-17 17:41:00,
2013-01-17 11:42:00,49.1,33.7,30.18,WSW,246,0.0,0.0,55,0.00,,,0.01,584.00,VWS V14.00,2013-01-17 17:42:00,
2013-01-17 11:43:00,49.2,33.7,30.18,WSW,247,0.0,0.0,55,0.00,,,0.01,582.00,VWS V14.00,2013-01-17 17:43:00,
2013-01-17 11:44:00,49.4,34.4,30.17,WNW,288,0.0,0.0,56,0.00,,,0.01,585.00,VWS V14.00,2013-01-17 17:44:00,
2013-01-17 11:45:00,49.4,34.4,30.17,SW,222,0.0,0.0,56,0.00,,,0.01,591.00,VWS V14.00,2013-01-17 17:45:00,
2013-01-17 11:46:00,49.4,34.4,30.17,NW,317,0.0,0.0,56,0.00,,,0.01,587.00,VWS V14.00,2013-01-17 17:46:00,
2013-01-17 11:47:00,49.4,33.9,30.17,NNW,346,0.0,0.0,55,0.00,,,0.01,592.00,VWS V14.00,2013-01-17 17:47:00,
2013-01-17 11:48:00,49.4,33.5,30.17,NNW,347,0.0,0.0,54,0.00,,,0.01,585.00,VWS V14.00,2013-01-17 17:48:00,
2013-01-17 11:49:00,49.4,33.9,30.17,North,355,0.0,0.0,55,0.00,,,0.01,584.00,VWS V14.00,2013-01-17 17:49:00,
2013-01-17 11:50:00,49.4,33.9,30.17,NNW,332,0.0,0.0,55,0.00,,,0.01,582.00,VWS V14.00,2013-01-17 17:50:00,
2013-01-17 11:51:00,49.4,33.9,30.17,West,259,0.0,0.0,55,0.00,,,0.01,587.00,VWS V14.00,2013-01-17 17:51:00,
2013-01-17 11:52:00,49.4,33.9,30.17,North,350,0.0,0.0,55,0.00,,,0.01,601.00,VWS V14.00,2013-01-17 17:52:00,
2013-01-17 11:53:00,49.4,33.5,30.17,NNW,345,0.0,0.0,54,0.00,,,0.01,568.00,VWS V14.00,2013-01-17 17:53:00,
2013-01-17 11:54:00,49.4,33.5,30.17,North,5,0.0,0.0,54,0.00,,,0.01,582.00,VWS V14.00,2013-01-17 17:54:00,
2013-01-17 11:55:00,49.4,33.9,30.17,NNW,343,0.0,0.0,55,0.00,,,0.01,575.00,VWS V14.00,2013-01-17 17:55:00,
2013-01-17 11:56:00,49.4,33.9,30.17,West,265,0.0,0.0,55,0.00,,,0.01,582.00,VWS V14.00,2013-01-17 17:56:00,
2013-01-17 11:57:00,49.4,33.9,30.17,West,281,0.0,0.0,55,0.00,,,0.01,584.00,VWS V14.00,2013-01-17 17:57:00,
2013-01-17 11:58:00,49.4,33.0,30.17,NW,312,0.0,0.0,53,0.00,,,0.01,585.00,VWS V14.00,2013-01-17 17:58:00,
2013-01-17 11:59:00,49.4,33.5,30.17,WNW,285,0.0,0.0,54,0.00,,,0.01,584.00,VWS V14.00,2013-01-17 17:59:00,
2013-01-17 12:00:00,49.5,33.6,30.17,NW,310,0.0,0.0,54,0.00,,,0.01,584.00,VWS V14.00,2013-01-17 18:00:00,
2013-01-17 12:01:00,49.6,33.7,30.17,NNW,328,0.0,0.0,54,0.00,,,0.01,585.00,VWS V14.00,2013-01-17 18:01:00,
2013-01-17 12:02:00,49.8,33.8,30.17,North,355,0.0,0.0,54,0.00,,,0.01,584.00,VWS V14.00,2013-01-17 18:02:00,
2013-01-17 12:03:00,49.8,33.8,30.17,NW,321,0.0,0.0,54,0.00,,,0.01,584.00,VWS V14.00,2013-01-17 18:03:00,
2013-01-17 12:04:00,49.8,33.8,30.17,NW,305,0.0,0.0,54,0.00,,,0.01,582.00,VWS V14.00,2013-01-17 18:04:00,
2013-01-17 12:05:00,49.8,33.8,30.17,WNW,284,0.0,0.0,54,0.00,,,0.01,584.00,VWS V14.00,2013-01-17 18:05:00,
2013-01-17 12:06:00,49.9,33.5,30.17,SSW,210,0.0,0.0,53,0.00,,,0.01,582.00,VWS V14.00,2013-01-17 18:06:00,
2013-01-17 12:07:00,49.9,33.5,30.17,WNW,292,0.0,0.0,53,0.00,,,0.01,580.00,VWS V14.00,2013-01-17 18:07:00,
2013-01-17 12:08:00,49.9,33.5,30.17,West,281,0.0,0.0,53,0.00,,,0.01,584.00,VWS V14.00,2013-01-17 18:08:00,
2013-01-17 12:09:00,49.9,33.9,30.17,SW,226,0.0,0.0,54,0.00,,,0.01,585.00,VWS V14.00,2013-01-17 18:09:00,
2013-01-17 12:10:00,49.9,33.5,30.17,NW,311,0.0,0.0,53,0.00,,,0.01,582.00,VWS V14.00,2013-01-17 18:10:00,
2013-01-17 12:11:00,49.9,33.5,30.17,West,274,0.0,0.0,53,0.00,,,0.01,577.00,VWS V14.00,2013-01-17 18:11:00,
2013-01-17 12:12:00,49.9,33.9,30.17,West,261,0.0,0.0,54,0.00,,,0.01,577.00,VWS V14.00,2013-01-17 18:12:00,
2013-01-17 12:13:00,49.9,34.4,30.17,North,5,0.0,0.0,55,0.00,,,0.01,578.00,VWS V14.00,2013-01-17 18:13:00,
2013-01-17 12:14:00,49.9,33.9,30.17,West,272,0.0,0.0,54,0.00,,,0.01,578.00,VWS V14.00,2013-01-17 18:14:00,
2013-01-17 12:15:00,49.9,33.9,30.16,NNW,329,0.0,0.0,54,0.00,,,0.01,580.00,VWS V14.00,2013-01-17 18:15:00,
2013-01-17 12:16:00,49.9,33.9,30.16,North,5,0.0,0.0,54,0.00,,,0.01,580.00,VWS V14.00,2013-01-17 18:16:00,
2013-01-17 12:17:00,49.9,33.5,30.16,North,360,0.0,0.0,53,0.00,,,0.01,577.00,VWS V14.00,2013-01-17 18:17:00,
2013-01-17 12:18:00,49.9,33.9,30.16,WNW,296,0.0,0.0,54,0.00,,,0.01,577.00,VWS V14.00,2013-01-17 18:18:00,
2013-01-17 12:19:00,50.1,33.7,30.16,WSW,258,0.0,0.0,53,0.00,,,0.01,577.00,VWS V14.00,2013-01-17 18:19:00,
2013-01-17 12:20:00,50.2,33.3,30.16,WSW,246,0.0,0.0,52,0.00,,,0.01,578.00,VWS V14.00,2013-01-17 18:20:00,
2013-01-17 12:21:00,50.2,33.3,30.16,NNE,19,0.0,0.0,52,0.00,,,0.01,578.00,VWS V14.00,2013-01-17 18:21:00,
2013-01-17 12:22:00,50.2,33.3,30.16,NW,325,0.0,0.0,52,0.00,,,0.01,577.00,VWS V14.00,2013-01-17 18:22:00,
2013-01-17 12:23:00,50.4,33.5,30.16,NNW,337,0.0,0.0,52,0.00,,,0.01,577.00,VWS V14.00,2013-01-17 18:23:00,
2013-01-17 12:24:00,50.4,33.0,30.16,NNW,332,0.0,0.0,51,0.00,,,0.01,573.00,VWS V14.00,2013-01-17 18:24:00,
2013-01-17 12:25:00,50.4,33.0,30.16,NW,312,0.0,0.0,51,0.00,,,0.01,577.00,VWS V14.00,2013-01-17 18:25:00,
2013-01-17 12:26:00,50.4,33.5,30.16,WNW,292,0.0,0.0,52,0.00,,,0.01,577.00,VWS V14.00,2013-01-17 18:26:00,
2013-01-17 12:27:00,50.5,33.5,30.16,West,262,0.0,0.0,52,0.00,,,0.01,575.00,VWS V14.00,2013-01-17 18:27:00,
2013-01-17 12:28:00,50.5,32.6,30.16,WNW,302,0.0,0.0,50,0.00,,,0.01,575.00,VWS V14.00,2013-01-17 18:28:00,
2013-01-17 12:29:00,50.5,33.1,30.15,NW,306,0.0,0.0,51,0.00,,,0.01,571.00,VWS V14.00,2013-01-17 18:29:00,
2013-01-17 12:30:00,50.5,33.1,30.15,NNW,327,0.0,0.0,51,0.00,,,0.01,575.00,VWS V14.00,2013-01-17 18:30:00,
2013-01-17 12:31:00,50.5,33.1,30.15,NNW,341,0.0,0.0,51,0.00,,,0.01,571.00,VWS V14.00,2013-01-17 18:31:00,
2013-01-17 12:32:00,50.7,33.2,30.15,WNW,288,0.0,0.0,51,0.00,,,0.01,571.00,VWS V14.00,2013-01-17 18:32:00,
2013-01-17 12:33:00,50.5,33.1,30.15,NNW,344,0.0,0.0,51,0.00,,,0.01,571.00,VWS V14.00,2013-01-17 18:33:00,
2013-01-17 12:34:00,50.5,33.5,30.15,NNW,329,0.0,0.0,52,0.00,,,0.01,571.00,VWS V14.00,2013-01-17 18:34:00,
2013-01-17 12:35:00,50.7,33.2,30.15,NW,305,0.0,0.0,51,0.00,,,0.01,568.00,VWS V14.00,2013-01-17 18:35:00,
2013-01-17 12:36:00,50.7,33.2,30.15,West,281,0.0,0.0,51,0.00,,,0.01,570.00,VWS V14.00,2013-01-17 18:36:00,
2013-01-17 12:37:00,50.7,33.7,30.15,NNW,327,0.0,0.0,52,0.00,,,0.01,570.00,VWS V14.00,2013-01-17 18:37:00,
2013-01-17 12:38:00,50.8,33.3,30.15,NNW,344,0.0,0.0,51,0.00,,,0.01,566.00,VWS V14.00,2013-01-17 18:38:00,
2013-01-17 12:39:00,50.8,33.3,30.15,North,355,0.0,0.0,51,0.00,,,0.01,566.00,VWS V14.00,2013-01-17 18:39:00,
2013-01-17 12:40:00,50.8,33.3,30.15,WSW,244,0.0,0.0,51,0.00,,,0.01,566.00,VWS V14.00,2013-01-17 18:40:00,
2013-01-17 12:41:00,50.8,33.8,30.15,North,11,0.0,0.0,52,0.00,,,0.01,563.00,VWS V14.00,2013-01-17 18:41:00,
2013-01-17 12:42:00,51.0,33.5,30.15,NNW,340,0.0,0.0,51,0.00,,,0.01,563.00,VWS V14.00,2013-01-17 18:42:00,
2013-01-17 12:43:00,51.0,33.0,30.15,WNW,293,0.0,0.0,50,0.00,,,0.01,564.00,VWS V14.00,2013-01-17 18:43:00,
2013-01-17 12:44:00,51.0,32.5,30.15,NNW,333,0.0,0.0,49,0.00,,,0.01,564.00,VWS V14.00,2013-01-17 18:44:00,
2013-01-17 12:45:00,51.0,32.5,30.15,North,360,0.0,0.0,49,0.00,,,0.01,564.00,VWS V14.00,2013-01-17 18:45:00,
2013-01-17 12:46:00,51.0,32.0,30.15,NNW,340,0.0,0.0,48,0.00,,,0.01,566.00,VWS V14.00,2013-01-17 18:46:00,
2013-01-17 12:47:00,51.0,33.0,30.15,NW,308,0.0,0.0,50,0.00,,,0.01,563.00,VWS V14.00,2013-01-17 18:47:00,
2013-01-17 12:48:00,51.0,33.0,30.15,WNW,288,0.0,0.0,50,0.00,,,0.01,568.00,VWS V14.00,2013-01-17 18:48:00,
2013-01-17 12:49:00,51.0,33.0,30.15,WNW,295,0.0,0.0,50,0.00,,,0.01,561.00,VWS V14.00,2013-01-17 18:49:00,
2013-01-17 12:50:00,51.1,32.6,30.15,NW,323,0.0,0.0,49,0.00,,,0.01,555.00,VWS V14.00,2013-01-17 18:50:00,
2013-01-17 12:51:00,51.1,32.6,30.15,NNW,345,0.0,0.0,49,0.00,,,0.01,559.00,VWS V14.00,2013-01-17 18:51:00,
2013-01-17 12:52:00,51.1,33.1,30.15,NW,317,0.0,0.0,50,0.00,,,0.01,559.00,VWS V14.00,2013-01-17 18:52:00,
2013-01-17 12:53:00,51.3,32.8,30.15,WNW,296,0.0,0.0,49,0.00,,,0.01,550.00,VWS V14.00,2013-01-17 18:53:00,
2013-01-17 12:54:00,51.3,32.3,30.15,SSW,194,0.0,0.0,48,0.00,,,0.01,552.00,VWS V14.00,2013-01-17 18:54:00,
2013-01-17 12:55:00,51.4,32.4,30.15,WNW,287,0.0,0.0,48,0.00,,,0.01,552.00,VWS V14.00,2013-01-17 18:55:00,
2013-01-17 12:56:00,51.4,31.9,30.15,NE,34,0.0,0.0,47,0.00,,,0.01,548.00,VWS V14.00,2013-01-17 18:56:00,
2013-01-17 12:57:00,51.4,31.9,30.15,NW,320,0.0,0.0,47,0.00,,,0.01,555.00,VWS V14.00,2013-01-17 18:57:00,
2013-01-17 12:58:00,51.6,32.0,30.15,NNW,339,0.0,0.0,47,0.00,,,0.01,555.00,VWS V14.00,2013-01-17 18:58:00,
2013-01-17 12:59:00,51.6,31.5,30.15,North,355,0.0,0.0,46,0.00,,,0.01,547.00,VWS V14.00,2013-01-17 18:59:00,
2013-01-17 13:00:00,51.6,32.0,30.15,North,5,0.0,0.0,47,0.00,,,0.01,547.00,VWS V14.00,2013-01-17 19:00:00,
2013-01-17 13:01:00,51.4,30.8,30.15,NW,308,0.0,0.0,45,0.00,,,0.01,543.00,VWS V14.00,2013-01-17 19:01:00,
2013-01-17 13:02:00,51.4,31.3,30.15,West,271,0.0,0.0,46,0.00,,,0.01,547.00,VWS V14.00,2013-01-17 19:02:00,
2013-01-17 13:03:00,51.3,31.8,30.15,WNW,291,0.0,0.0,47,0.00,,,0.01,543.00,VWS V14.00,2013-01-17 19:03:00,
2013-01-17 13:04:00,51.3,31.8,30.15,West,269,0.0,0.0,47,0.00,,,0.01,541.00,VWS V14.00,2013-01-17 19:04:00,
2013-01-17 13:05:00,51.1,31.6,30.15,North,360,0.0,0.0,47,0.00,,,0.01,541.00,VWS V14.00,2013-01-17 19:05:00,
2013-01-17 13:06:00,51.1,32.1,30.15,NW,310,0.0,0.0,48,0.00,,,0.01,541.00,VWS V14.00,2013-01-17 19:06:00,
2013-01-17 13:07:00,51.1,32.6,30.15,NW,315,0.0,0.0,49,0.00,,,0.01,536.00,VWS V14.00,2013-01-17 19:07:00,
2013-01-17 13:08:00,51.1,32.6,30.15,West,259,0.0,0.0,49,0.00,,,0.01,538.00,VWS V14.00,2013-01-17 19:08:00,
2013-01-17 13:09:00,51.3,32.8,30.15,NNW,342,0.0,0.0,49,0.00,,,0.01,538.00,VWS V14.00,2013-01-17 19:09:00,
2013-01-17 13:10:00,51.4,32.9,30.15,WNW,291,0.0,0.0,49,0.00,,,0.01,529.00,VWS V14.00,2013-01-17 19:10:00,
2013-01-17 13:11:00,51.4,32.9,30.15,WNW,290,0.0,0.0,49,0.00,,,0.01,533.00,VWS V14.00,2013-01-17 19:11:00,
2013-01-17 13:12:00,51.6,33.1,30.15,West,276,0.0,0.0,49,0.00,,,0.01,533.00,VWS V14.00,2013-01-17 19:12:00,
2013-01-17 13:13:00,51.7,33.7,30.15,NW,306,0.0,0.0,50,0.00,,,0.01,526.00,VWS V14.00,2013-01-17 19:13:00,
2013-01-17 13:14:00,51.9,33.9,30.15,NW,310,0.0,0.0,50,0.00,,,0.01,529.00,VWS V14.00,2013-01-17 19:14:00,
2013-01-17 13:15:00,52.0,33.5,30.15,West,275,0.0,0.0,49,0.00,,,0.01,527.00,VWS V14.00,2013-01-17 19:15:00,
2013-01-17 13:16:00,52.2,34.1,30.15,WSW,250,0.0,0.0,50,0.00,,,0.01,531.00,VWS V14.00,2013-01-17 19:16:00,
2013-01-17 13:17:00,52.3,33.7,30.15,West,270,0.0,0.0,49,0.00,,,0.01,531.00,VWS V14.00,2013-01-17 19:17:00,
2013-01-17 13:18:00,52.5,33.9,30.15,WNW,292,0.0,0.0,49,0.00,,,0.01,522.00,VWS V14.00,2013-01-17 19:18:00,
2013-01-17 13:19:00,52.5,33.4,30.15,North,360,0.0,0.0,48,0.00,,,0.01,520.00,VWS V14.00,2013-01-17 19:19:00,
2013-01-17 13:20:00,52.6,33.5,30.15,WSW,250,0.0,0.0,48,0.00,,,0.01,520.00,VWS V14.00,2013-01-17 19:20:00,
2013-01-17 13:21:00,52.6,33.5,30.15,NW,315,0.0,0.0,48,0.00,,,0.01,519.00,VWS V14.00,2013-01-17 19:21:00,
2013-01-17 13:22:00,52.8,33.2,30.15,West,266,0.0,0.0,47,0.00,,,0.01,522.00,VWS V14.00,2013-01-17 19:22:00,
2013-01-17 13:23:00,52.8,33.7,30.15,WNW,295,0.0,0.0,48,0.00,,,0.01,517.00,VWS V14.00,2013-01-17 19:23:00,
2013-01-17 13:24:00,52.8,33.2,30.15,North,355,0.0,0.0,47,0.00,,,0.01,515.00,VWS V14.00,2013-01-17 19:24:00,
2013-01-17 13:25:00,52.8,33.2,30.15,NNW,327,0.0,0.0,47,0.00,,,0.01,513.00,VWS V14.00,2013-01-17 19:25:00,
2013-01-17 13:26:00,52.8,33.2,30.15,SW,229,0.0,0.0,47,0.00,,,0.01,515.00,VWS V14.00,2013-01-17 19:26:00,
2013-01-17 13:27:00,52.8,33.2,30.15,NNW,340,0.0,0.0,47,0.00,,,0.01,510.00,VWS V14.00,2013-01-17 19:27:00,
2013-01-17 13:28:00,52.8,33.2,30.15,NW,321,0.0,0.0,47,0.00,,,0.01,508.00,VWS V14.00,2013-01-17 19:28:00,
2013-01-17 13:29:00,52.8,33.2,30.15,West,275,0.0,0.0,47,0.00,,,0.01,506.00,VWS V14.00,2013-01-17 19:29:00,
2013-01-17 13:30:00,52.6,33.0,30.15,West,278,0.0,0.0,47,0.00,,,0.01,506.00,VWS V14.00,2013-01-17 19:30:00,
2013-01-17 13:31:00,52.8,34.2,30.15,West,279,0.0,0.0,49,0.00,,,0.01,508.00,VWS V14.00,2013-01-17 19:31:00,
2013-01-17 13:32:00,52.8,33.7,30.15,WNW,291,0.0,0.0,48,0.00,,,0.01,501.00,VWS V14.00,2013-01-17 19:32:00,
2013-01-17 13:33:00,52.8,33.7,30.15,WNW,300,0.0,0.0,48,0.00,,,0.01,503.00,VWS V14.00,2013-01-17 19:33:00,
2013-01-17 13:34:00,52.8,34.2,30.15,NW,317,0.0,0.0,49,0.00,,,0.01,496.00,VWS V14.00,2013-01-17 19:34:00,
2013-01-17 13:35:00,52.8,33.7,30.15,West,265,0.0,0.0,48,0.00,,,0.01,497.00,VWS V14.00,2013-01-17 19:35:00,
2013-01-17 13:36:00,52.8,34.2,30.15,WNW,283,0.0,0.0,49,0.00,,,0.01,496.00,VWS V14.00,2013-01-17 19:36:00,
2013-01-17 13:37:00,52.8,34.2,30.15,WNW,294,0.0,0.0,49,0.00,,,0.01,496.00,VWS V14.00,2013-01-17 19:37:00,
2013-01-17 13:38:00,52.9,34.3,30.15,WSW,257,0.0,0.0,49,0.00,,,0.01,494.00,VWS V14.00,2013-01-17 19:38:00,
2013-01-17 13:39:00,53.1,34.5,30.15,NNW,329,0.0,0.0,49,0.00,,,0.01,490.00,VWS V14.00,2013-01-17 19:39:00,
2013-01-17 13:40:00,53.1,34.5,30.15,West,265,0.0,0.0,49,0.00,,,0.01,494.00,VWS V14.00,2013-01-17 19:40:00,
2013-01-17 13:41:00,53.2,34.0,30.15,NW,309,0.0,0.0,48,0.00,,,0.01,487.00,VWS V14.00,2013-01-17 19:41:00,
2013-01-17 13:42:00,53.3,34.1,30.15,WNW,288,0.0,0.0,48,0.00,,,0.01,485.00,VWS V14.00,2013-01-17 19:42:00,
2013-01-17 13:43:00,53.5,33.8,30.15,WSW,244,0.0,0.0,47,0.00,,,0.01,485.00,VWS V14.00,2013-01-17 19:43:00,
2013-01-17 13:44:00,53.5,33.8,30.14,North,9,0.0,0.0,47,0.00,,,0.01,483.00,VWS V14.00,2013-01-17 19:44:00,
2013-01-17 13:45:00,53.6,33.9,30.14,West,281,0.0,0.0,47,0.00,,,0.01,480.00,VWS V14.00,2013-01-17 19:45:00,
2013-01-17 13:46:00,53.6,33.3,30.14,WSW,252,0.0,0.0,46,0.00,,,0.01,482.00,VWS V14.00,2013-01-17 19:46:00,
2013-01-17 13:47:00,53.8,34.1,30.14,WSW,239,0.0,0.0,47,0.00,,,0.01,483.00,VWS V14.00,2013-01-17 19:47:00,
2013-01-17 13:48:00,53.8,34.1,30.14,West,267,0.0,0.0,47,0.00,,,0.01,482.00,VWS V14.00,2013-01-17 19:48:00,
2013-01-17 13:49:00,53.8,34.1,30.14,NW,304,0.0,0.0,47,0.00,,,0.01,473.00,VWS V14.00,2013-01-17 19:49:00,
2013-01-17 13:50:00,53.8,34.1,30.14,WNW,299,0.0,0.0,47,0.00,,,0.01,475.00,VWS V14.00,2013-01-17 19:50:00,
2013-01-17 13:51:00,53.8,34.1,30.14,NW,319,0.0,0.0,47,0.00,,,0.01,478.00,VWS V14.00,2013-01-17 19:51:00,
2013-01-17 13:52:00,53.8,33.5,30.14,NNW,344,0.0,0.0,46,0.00,,,0.01,478.00,VWS V14.00,2013-01-17 19:52:00,
2013-01-17 13:53:00,53.8,34.6,30.14,NW,323,0.0,0.0,48,0.00,,,0.01,469.00,VWS V14.00,2013-01-17 19:53:00,
2013-01-17 13:54:00,53.8,34.1,30.14,NW,319,0.0,0.0,47,0.00,,,0.01,462.00,VWS V14.00,2013-01-17 19:54:00,
2013-01-17 13:55:00,53.8,34.1,30.14,WNW,288,0.0,0.0,47,0.00,,,0.01,462.00,VWS V14.00,2013-01-17 19:55:00,
2013-01-17 13:56:00,53.8,34.6,30.14,NW,317,0.0,0.0,48,0.00,,,0.01,461.00,VWS V14.00,2013-01-17 19:56:00,
2013-01-17 13:57:00,53.8,34.6,30.14,North,360,0.0,0.0,48,0.00,,,0.01,461.00,VWS V14.00,2013-01-17 19:57:00,
2013-01-17 13:58:00,53.8,34.6,30.14,NNW,348,0.0,0.0,48,0.00,,,0.01,461.00,VWS V14.00,2013-01-17 19:58:00,
2013-01-17 13:59:00,53.9,34.7,30.14,NW,317,0.0,0.0,48,0.00,,,0.01,455.00,VWS V14.00,2013-01-17 19:59:00,
2013-01-17 14:00:00,54.1,34.9,30.14,West,277,0.0,0.0,48,0.00,,,0.01,454.00,VWS V14.00,2013-01-17 20:00:00,
2013-01-17 14:01:00,54.1,34.9,30.14,WNW,302,0.0,0.0,48,0.00,,,0.01,455.00,VWS V14.00,2013-01-17 20:01:00,
2013-01-17 14:02:00,54.2,34.4,30.14,NW,315,0.0,0.0,47,0.00,,,0.01,452.00,VWS V14.00,2013-01-17 20:02:00,
2013-01-17 14:03:00,54.2,34.4,30.14,NW,309,0.0,0.0,47,0.00,,,0.01,450.00,VWS V14.00,2013-01-17 20:03:00,
2013-01-17 14:04:00,54.2,34.4,30.14,NW,311,0.0,0.0,47,0.00,,,0.01,450.00,VWS V14.00,2013-01-17 20:04:00,
2013-01-17 14:05:00,54.2,34.4,30.14,North,350,0.0,0.0,47,0.00,,,0.01,439.00,VWS V14.00,2013-01-17 20:05:00,
2013-01-17 14:06:00,54.2,34.4,30.14,North,355,0.0,0.0,47,0.00,,,0.01,445.00,VWS V14.00,2013-01-17 20:06:00,
2013-01-17 14:07:00,54.1,34.3,30.14,NW,309,0.0,0.0,47,0.00,,,0.01,443.00,VWS V14.00,2013-01-17 20:07:00,
2013-01-17 14:08:00,54.1,34.3,30.14,WSW,254,0.0,0.0,47,0.00,,,0.01,441.00,VWS V14.00,2013-01-17 20:08:00,
2013-01-17 14:09:00,54.1,34.9,30.14,NW,324,0.0,0.0,48,0.00,,,0.01,438.00,VWS V14.00,2013-01-17 20:09:00,
2013-01-17 14:10:00,53.9,34.2,30.14,NNW,344,0.0,0.0,47,0.00,,,0.01,432.00,VWS V14.00,2013-01-17 20:10:00,
2013-01-17 14:11:00,53.9,34.2,30.14,NNW,327,0.0,0.0,47,0.00,,,0.01,432.00,VWS V14.00,2013-01-17 20:11:00,
2013-01-17 14:12:00,53.8,34.6,30.14,West,279,0.0,0.0,48,0.00,,,0.01,432.00,VWS V14.00,2013-01-17 20:12:00,
2013-01-17 14:13:00,53.8,34.6,30.14,NNW,328,0.0,0.0,48,0.00,,,0.01,429.00,VWS V14.00,2013-01-17 20:13:00,
2013-01-17 14:14:00,53.6,34.4,30.15,WNW,294,0.0,0.0,48,0.00,,,0.01,425.00,VWS V14.00,2013-01-17 20:14:00,
2013-01-17 14:15:00,53.6,34.4,30.15,SW,234,0.0,0.0,48,0.00,,,0.01,425.00,VWS V14.00,2013-01-17 20:15:00,
2013-01-17 14:16:00,53.6,34.9,30.15,NNW,342,0.0,0.0,49,0.00,,,0.01,432.00,VWS V14.00,2013-01-17 20:16:00,
2013-01-17 14:17:00,53.6,34.9,30.15,SW,222,0.0,0.0,49,0.00,,,0.01,439.00,VWS V14.00,2013-01-17 20:17:00,
2013-01-17 14:18:00,53.6,34.4,30.15,NNW,327,0.0,0.0,48,0.00,,,0.01,443.00,VWS V14.00,2013-01-17 20:18:00,
2013-01-17 14:19:00,53.6,34.4,30.15,WSW,242,0.0,0.0,48,0.00,,,0.01,431.00,VWS V14.00,2013-01-17 20:19:00,
2013-01-17 14:20:00,53.6,34.4,30.15,West,277,0.0,0.0,48,0.00,,,0.01,427.00,VWS V14.00,2013-01-17 20:20:00,
2013-01-17 14:21:00,53.8,34.6,30.15,WNW,295,0.0,0.0,48,0.00,,,0.01,422.00,VWS V14.00,2013-01-17 20:21:00,
2013-01-17 14:22:00,53.8,34.6,30.15,NW,319,0.0,0.0,48,0.00,,,0.01,418.00,VWS V14.00,2013-01-17 20:22:00,
2013-01-17 14:23:00,53.6,33.9,30.15,SW,234,0.0,0.0,47,0.00,,,0.01,418.00,VWS V14.00,2013-01-17 20:23:00,
2013-01-17 14:24:00,53.6,33.9,30.15,NW,309,0.0,0.0,47,0.00,,,0.01,413.00,VWS V14.00,2013-01-17 20:24:00,
2013-01-17 14:25:00,53.5,34.3,30.15,North,9,0.0,0.0,48,0.00,,,0.01,408.00,VWS V14.00,2013-01-17 20:25:00,
2013-01-17 14:26:00,53.5,34.3,30.15,WSW,255,0.0,0.0,48,0.00,,,0.01,404.00,VWS V14.00,2013-01-17 20:26:00,
2013-01-17 14:27:00,53.5,34.3,30.15,NW,318,0.0,0.0,48,0.00,,,0.01,316.00,VWS V14.00,2013-01-17 20:27:00,
2013-01-17 14:28:00,53.3,34.7,30.15,WNW,290,0.0,0.0,49,0.00,,,0.01,404.00,VWS V14.00,2013-01-17 20:28:00,
2013-01-17 14:29:00,53.3,34.7,30.16,NW,314,0.0,0.0,49,0.00,,,0.01,397.00,VWS V14.00,2013-01-17 20:29:00,
2013-01-17 14:30:00,53.3,34.1,30.16,NW,310,0.0,0.0,48,0.00,,,0.01,401.00,VWS V14.00,2013-01-17 20:30:00,
2013-01-17 14:31:00,53.3,34.1,30.16,NW,319,0.0,0.0,48,0.00,,,0.01,404.00,VWS V14.00,2013-01-17 20:31:00,
2013-01-17 14:32:00,53.2,34.5,30.16,WSW,251,0.0,0.0,49,0.00,,,0.01,388.00,VWS V14.00,2013-01-17 20:32:00,
2013-01-17 14:33:00,53.2,34.0,30.16,WNW,303,0.0,0.0,48,0.00,,,0.01,388.00,VWS V14.00,2013-01-17 20:33:00,
2013-01-17 14:34:00,53.2,34.5,30.16,North,5,0.0,0.0,49,0.00,,,0.01,387.00,VWS V14.00,2013-01-17 20:34:00,
2013-01-17 14:35:00,53.2,34.5,30.16,NNE,24,0.0,0.0,49,0.00,,,0.01,390.00,VWS V14.00,2013-01-17 20:35:00,
2013-01-17 14:36:00,53.1,34.5,30.16,NNW,337,0.0,0.0,49,0.00,,,0.01,390.00,VWS V14.00,2013-01-17 20:36:00,
2013-01-17 14:37:00,53.1,34.5,30.16,NNW,327,0.0,0.0,49,0.00,,,0.01,390.00,VWS V14.00,2013-01-17 20:37:00,
2013-01-17 14:38:00,52.9,34.8,30.16,West,275,0.0,0.0,50,0.00,,,0.01,378.00,VWS V14.00,2013-01-17 20:38:00,
2013-01-17 14:39:00,52.9,34.8,30.16,SW,228,0.0,0.0,50,0.00,,,0.01,380.00,VWS V14.00,2013-01-17 20:39:00,
2013-01-17 14:40:00,52.9,34.3,30.16,North,5,0.0,0.0,49,0.00,,,0.01,376.00,VWS V14.00,2013-01-17 20:40:00,
2013-01-17 14:41:00,52.8,34.7,30.16,West,259,0.0,0.0,50,0.00,,,0.01,367.00,VWS V14.00,2013-01-17 20:41:00,
2013-01-17 14:42:00,52.8,34.7,30.16,West,275,0.0,0.0,50,0.00,,,0.01,369.00,VWS V14.00,2013-01-17 20:42:00,
2013-01-17 14:43:00,52.8,35.2,30.16,NW,316,0.0,0.0,51,0.00,,,0.01,364.00,VWS V14.00,2013-01-17 20:43:00,
2013-01-17 14:44:00,52.8,34.7,30.16,West,269,0.0,0.0,50,0.00,,,0.01,362.00,VWS V14.00,2013-01-17 20:44:00,
2013-01-17 14:45:00,52.8,34.7,30.16,NW,321,0.0,0.0,50,0.00,,,0.01,353.00,VWS V14.00,2013-01-17 20:45:00,
2013-01-17 14:46:00,52.8,34.7,30.16,NNW,340,0.0,0.0,50,0.00,,,0.01,353.00,VWS V14.00,2013-01-17 20:46:00,
2013-01-17 14:47:00,52.6,34.5,30.16,NNW,347,0.0,0.0,50,0.00,,,0.01,348.00,VWS V14.00,2013-01-17 20:47:00,
2013-01-17 14:48:00,52.6,35.0,30.16,West,271,0.0,0.0,51,0.00,,,0.01,353.00,VWS V14.00,2013-01-17 20:48:00,
2013-01-17 14:49:00,52.6,35.0,30.16,North,360,0.0,0.0,51,0.00,,,0.01,352.00,VWS V14.00,2013-01-17 20:49:00,
2013-01-17 14:50:00,52.6,35.0,30.16,WNW,284,0.0,0.0,51,0.00,,,0.01,339.00,VWS V14.00,2013-01-17 20:50:00,
2013-01-17 14:51:00,52.8,35.2,30.16,WNW,297,0.0,0.0,51,0.00,,,0.01,338.00,VWS V14.00,2013-01-17 20:51:00,
2013-01-17 14:52:00,52.8,35.2,30.16,NW,318,0.0,0.0,51,0.00,,,0.01,339.00,VWS V14.00,2013-01-17 20:52:00,
2013-01-17 14:53:00,52.8,34.7,30.16,WSW,254,0.0,0.0,50,0.00,,,0.01,334.00,VWS V14.00,2013-01-17 20:53:00,
2013-01-17 14:54:00,52.8,35.2,30.16,North,5,0.0,0.0,51,0.00,,,0.01,334.00,VWS V14.00,2013-01-17 20:54:00,
2013-01-17 14:55:00,52.6,35.0,30.16,WSW,238,0.0,0.0,51,0.00,,,0.01,329.00,VWS V14.00,2013-01-17 20:55:00,
2013-01-17 14:56:00,52.8,35.2,30.16,North,5,0.0,0.0,51,0.00,,,0.01,329.00,VWS V14.00,2013-01-17 20:56:00,
2013-01-17 14:57:00,52.8,35.2,30.16,NW,323,0.0,0.0,51,0.00,,,0.01,323.00,VWS V14.00,2013-01-17 20:57:00,
2013-01-17 14:58:00,52.6,35.0,30.16,NNE,12,0.0,0.0,51,0.00,,,0.01,322.00,VWS V14.00,2013-01-17 20:58:00,
2013-01-17 14:59:00,52.6,35.0,30.16,WNW,299,0.0,0.0,51,0.00,,,0.01,316.00,VWS V14.00,2013-01-17 20:59:00,
2013-01-17 15:00:00,52.6,35.0,30.16,NNE,19,0.0,0.0,51,0.00,,,0.01,322.00,VWS V14.00,2013-01-17 21:00:00,
2013-01-17 15:01:00,52.6,35.0,30.16,West,281,0.0,0.0,51,0.00,,,0.01,316.00,VWS V14.00,2013-01-17 21:01:00,
2013-01-17 15:02:00,52.6,35.0,30.16,WNW,302,0.0,0.0,51,0.00,,,0.01,316.00,VWS V14.00,2013-01-17 21:02:00,
2013-01-17 15:03:00,52.6,35.5,30.16,NNW,334,0.0,0.0,52,0.00,,,0.01,315.00,VWS V14.00,2013-01-17 21:03:00,
2013-01-17 15:04:00,52.6,35.0,30.16,NW,312,0.0,0.0,51,0.00,,,0.01,309.00,VWS V14.00,2013-01-17 21:04:00,
2013-01-17 15:05:00,52.6,35.5,30.16,WNW,303,0.0,0.0,52,0.00,,,0.01,308.00,VWS V14.00,2013-01-17 21:05:00,
2013-01-17 15:06:00,52.8,35.7,30.16,NNW,348,0.0,0.0,52,0.00,,,0.01,309.00,VWS V14.00,2013-01-17 21:06:00,
2013-01-17 15:07:00,52.8,35.7,30.16,NNW,327,0.0,0.0,52,0.00,,,0.01,311.00,VWS V14.00,2013-01-17 21:07:00,
2013-01-17 15:08:00,52.8,35.2,30.16,WNW,297,0.0,0.0,51,0.00,,,0.01,304.00,VWS V14.00,2013-01-17 21:08:00,
2013-01-17 15:09:00,52.8,35.2,30.16,North,360,0.0,0.0,51,0.00,,,0.01,294.00,VWS V14.00,2013-01-17 21:09:00,
2013-01-17 15:10:00,52.8,35.2,30.16,WSW,249,0.0,0.0,51,0.00,,,0.01,299.00,VWS V14.00,2013-01-17 21:10:00,
2013-01-17 15:11:00,52.8,35.2,30.16,NW,305,0.0,0.0,51,0.00,,,0.01,295.00,VWS V14.00,2013-01-17 21:11:00,
2013-01-17 15:12:00,52.8,35.2,30.16,NW,310,0.0,0.0,51,0.00,,,0.01,290.00,VWS V14.00,2013-01-17 21:12:00,
2013-01-17 15:13:00,52.8,35.2,30.16,NNW,340,0.0,0.0,51,0.00,,,0.01,287.00,VWS V14.00,2013-01-17 21:13:00,
2013-01-17 15:14:00,52.8,35.2,30.17,North,360,0.0,0.0,51,0.00,,,0.01,283.00,VWS V14.00,2013-01-17 21:14:00,
2013-01-17 15:15:00,52.8,35.7,30.17,West,277,0.0,0.0,52,0.00,,,0.01,285.00,VWS V14.00,2013-01-17 21:15:00,
2013-01-17 15:16:00,52.8,35.7,30.17,NNW,329,0.0,0.0,52,0.00,,,0.01,287.00,VWS V14.00,2013-01-17 21:16:00,
2013-01-17 15:17:00,52.8,35.7,30.17,North,349,0.0,0.0,52,0.00,,,0.01,281.00,VWS V14.00,2013-01-17 21:17:00,
2013-01-17 15:18:00,52.8,35.7,30.17,South,182,0.0,0.0,52,0.00,,,0.01,279.00,VWS V14.00,2013-01-17 21:18:00,
2013-01-17 15:19:00,52.8,35.7,30.17,North,11,0.0,0.0,52,0.00,,,0.01,276.00,VWS V14.00,2013-01-17 21:19:00,
2013-01-17 15:20:00,52.8,35.7,30.17,NW,324,0.0,0.0,52,0.00,,,0.01,272.00,VWS V14.00,2013-01-17 21:20:00,
2013-01-17 15:21:00,52.8,35.7,30.17,North,360,0.0,0.0,52,0.00,,,0.01,272.00,VWS V14.00,2013-01-17 21:21:00,
2013-01-17 15:22:00,52.8,35.7,30.17,NW,317,0.0,0.0,52,0.00,,,0.01,274.00,VWS V14.00,2013-01-17 21:22:00,
2013-01-17 15:23:00,52.8,35.7,30.17,NNW,347,0.0,0.0,52,0.00,,,0.01,276.00,VWS V14.00,2013-01-17 21:23:00,
2013-01-17 15:24:00,52.8,35.7,30.17,NW,317,0.0,0.0,52,0.00,,,0.01,279.00,VWS V14.00,2013-01-17 21:24:00,
2013-01-17 15:25:00,52.8,35.7,30.17,WNW,303,0.0,0.0,52,0.00,,,0.01,285.00,VWS V14.00,2013-01-17 21:25:00,
2013-01-17 15:26:00,52.8,35.7,30.17,NW,323,0.0,0.0,52,0.00,,,0.01,281.00,VWS V14.00,2013-01-17 21:26:00,
2013-01-17 15:27:00,52.8,35.7,30.17,North,5,0.0,0.0,52,0.00,,,0.01,274.00,VWS V14.00,2013-01-17 21:27:00,
2013-01-17 15:28:00,52.8,36.2,30.17,NW,325,0.0,0.0,53,0.00,,,0.01,274.00,VWS V14.00,2013-01-17 21:28:00,
2013-01-17 15:29:00,52.8,35.7,30.17,WSW,250,0.0,0.0,52,0.00,,,0.01,269.00,VWS V14.00,2013-01-17 21:29:00,
2013-01-17 15:30:00,52.8,35.7,30.17,West,259,0.0,0.0,52,0.00,,,0.01,269.00,VWS V14.00,2013-01-17 21:30:00,
2013-01-17 15:31:00,52.8,35.7,30.17,NW,315,0.0,0.0,52,0.00,,,0.01,207.00,VWS V14.00,2013-01-17 21:31:00,
2013-01-17 15:32:00,52.6,36.0,30.17,NNW,333,0.0,0.0,53,0.00,,,0.01,107.00,VWS V14.00,2013-01-17 21:32:00,
2013-01-17 15:33:00,52.6,35.5,30.17,West,281,0.0,0.0,52,0.00,,,0.01,107.00,VWS V14.00,2013-01-17 21:33:00,
2013-01-17 15:34:00,52.6,36.0,30.17,NNW,328,0.0,0.0,53,0.00,,,0.01,260.00,VWS V14.00,2013-01-17 21:34:00,
2013-01-17 15:35:00,52.5,35.9,30.17,North,355,0.0,0.0,53,0.00,,,0.01,253.00,VWS V14.00,2013-01-17 21:35:00,
2013-01-17 15:36:00,52.5,36.3,30.17,North,10,0.0,0.0,54,0.00,,,0.01,250.00,VWS V14.00,2013-01-17 21:36:00,
2013-01-17 15:37:00,52.5,35.9,30.17,NNW,336,0.0,0.0,53,0.00,,,0.01,255.00,VWS V14.00,2013-01-17 21:37:00,
2013-01-17 15:38:00,52.5,35.9,30.17,North,5,0.0,0.0,53,0.00,,,0.01,255.00,VWS V14.00,2013-01-17 21:38:00,
2013-01-17 15:39:00,52.5,35.9,30.17,North,355,0.0,0.0,53,0.00,,,0.01,255.00,VWS V14.00,2013-01-17 21:39:00,
2013-01-17 15:40:00,52.5,35.9,30.17,NW,322,0.0,0.0,53,0.00,,,0.01,250.00,VWS V14.00,2013-01-17 21:40:00,
2013-01-17 15:41:00,52.5,35.9,30.17,NW,325,0.0,0.0,53,0.00,,,0.01,241.00,VWS V14.00,2013-01-17 21:41:00,
2013-01-17 15:42:00,52.5,36.3,30.17,NW,315,0.0,0.0,54,0.00,,,0.01,239.00,VWS V14.00,2013-01-17 21:42:00,
2013-01-17 15:43:00,52.5,35.9,30.17,NW,306,0.0,0.0,53,0.00,,,0.01,241.00,VWS V14.00,2013-01-17 21:43:00,
2013-01-17 15:44:00,52.5,35.9,30.17,NW,309,0.0,0.0,53,0.00,,,0.01,244.00,VWS V14.00,2013-01-17 21:44:00,
2013-01-17 15:45:00,52.5,35.9,30.19,NNW,345,0.0,0.0,53,0.00,,,0.01,167.00,VWS V14.00,2013-01-17 21:45:00,
2013-01-17 15:46:00,52.5,35.9,30.19,West,269,0.0,0.0,53,0.00,,,0.01,243.00,VWS V14.00,2013-01-17 21:46:00,
2013-01-17 15:47:00,52.5,36.3,30.19,NNW,329,0.0,0.0,54,0.00,,,0.01,246.00,VWS V14.00,2013-01-17 21:47:00,
2013-01-17 15:48:00,52.6,36.0,30.19,WNW,303,0.0,0.0,53,0.00,,,0.01,243.00,VWS V14.00,2013-01-17 21:48:00,
2013-01-17 15:49:00,52.6,36.5,30.19,NW,321,0.0,0.0,54,0.00,,,0.01,237.00,VWS V14.00,2013-01-17 21:49:00,
2013-01-17 15:50:00,52.6,36.5,30.19,NNW,331,0.0,0.0,54,0.00,,,0.01,227.00,VWS V14.00,2013-01-17 21:50:00,
2013-01-17 15:51:00,52.8,36.6,30.19,WNW,291,0.0,0.0,54,0.00,,,0.01,225.00,VWS V14.00,2013-01-17 21:51:00,
2013-01-17 15:52:00,52.8,36.2,30.19,NW,322,0.0,0.0,53,0.00,,,0.01,223.00,VWS V14.00,2013-01-17 21:52:00,
2013-01-17 15:53:00,52.8,36.2,30.19,WSW,254,0.0,0.0,53,0.00,,,0.01,221.00,VWS V14.00,2013-01-17 21:53:00,
2013-01-17 15:54:00,52.8,35.7,30.19,WNW,294,0.0,0.0,52,0.00,,,0.01,216.00,VWS V14.00,2013-01-17 21:54:00,
2013-01-17 15:55:00,52.6,36.0,30.19,NNW,336,0.0,0.0,53,0.00,,,0.01,216.00,VWS V14.00,2013-01-17 21:55:00,
2013-01-17 15:56:00,52.6,36.0,30.19,West,268,0.0,0.0,53,0.00,,,0.01,216.00,VWS V14.00,2013-01-17 21:56:00,
2013-01-17 15:57:00,52.6,36.5,30.19,SW,229,0.0,0.0,54,0.00,,,0.01,211.00,VWS V14.00,2013-01-17 21:57:00,
2013-01-17 15:58:00,52.6,36.0,30.19,NW,304,0.0,0.0,53,0.00,,,0.01,206.00,VWS V14.00,2013-01-17 21:58:00,
2013-01-17 15:59:00,52.6,36.0,30.20,SW,216,0.0,0.0,53,0.00,,,0.01,199.00,VWS V14.00,2013-01-17 21:59:00,
2013-01-17 16:00:00,52.5,35.9,30.20,North,9,0.0,0.0,53,0.00,,,0.01,195.00,VWS V14.00,2013-01-17 22:00:00,
2013-01-17 16:01:00,52.5,35.9,30.20,WNW,300,0.0,0.0,53,0.00,,,0.01,193.00,VWS V14.00,2013-01-17 22:01:00,
2013-01-17 16:02:00,52.5,35.9,30.20,NNW,333,0.0,0.0,53,0.00,,,0.01,190.00,VWS V14.00,2013-01-17 22:02:00,
2013-01-17 16:03:00,52.5,35.9,30.20,NNW,331,0.0,0.0,53,0.00,,,0.01,190.00,VWS V14.00,2013-01-17 22:03:00,
2013-01-17 16:04:00,52.3,35.7,30.20,NNW,330,0.0,0.0,53,0.00,,,0.01,91.00,VWS V14.00,2013-01-17 22:04:00,
2013-01-17 16:05:00,52.3,36.2,30.20,NNW,341,0.0,0.0,54,0.00,,,0.01,69.00,VWS V14.00,2013-01-17 22:05:00,
2013-01-17 16:06:00,52.2,36.1,30.20,North,360,0.0,0.0,54,0.00,,,0.01,69.00,VWS V14.00,2013-01-17 22:06:00,
2013-01-17 16:07:00,52.2,36.1,30.20,NNW,342,0.0,0.0,54,0.00,,,0.01,67.00,VWS V14.00,2013-01-17 22:07:00,
2013-01-17 16:08:00,52.0,36.3,30.20,NW,309,0.0,0.0,55,0.00,,,0.01,65.00,VWS V14.00,2013-01-17 22:08:00,
2013-01-17 16:09:00,52.0,36.3,30.20,NW,313,0.0,0.0,55,0.00,,,0.01,60.00,VWS V14.00,2013-01-17 22:09:00,
2013-01-17 16:10:00,51.9,36.3,30.20,WNW,293,0.0,0.0,55,0.00,,,0.01,88.00,VWS V14.00,2013-01-17 22:10:00,
2013-01-17 16:11:00,51.9,36.7,30.20,NNW,340,0.0,0.0,56,0.00,,,0.01,51.00,VWS V14.00,2013-01-17 22:11:00,
2013-01-17 16:12:00,51.7,36.1,30.20,WSW,246,0.0,0.0,55,0.00,,,0.01,44.00,VWS V14.00,2013-01-17 22:12:00,
2013-01-17 16:13:00,51.6,36.4,30.20,North,5,0.0,0.0,56,0.00,,,0.01,69.00,VWS V14.00,2013-01-17 22:13:00,
2013-01-17 16:14:00,51.6,36.4,30.20,North,350,0.0,0.0,56,0.00,,,0.01,47.00,VWS V14.00,2013-01-17 22:14:00,
2013-01-17 16:15:00,51.6,36.4,30.20,WNW,302,0.0,0.0,56,0.00,,,0.01,67.00,VWS V14.00,2013-01-17 22:15:00,
2013-01-17 16:16:00,51.4,36.2,30.20,NNW,347,0.0,0.0,56,0.00,,,0.01,40.00,VWS V14.00,2013-01-17 22:16:00,
2013-01-17 16:17:00,51.4,36.2,30.20,North,350,0.0,0.0,56,0.00,,,0.01,74.00,VWS V14.00,2013-01-17 22:17:00,
2013-01-17 16:18:00,51.3,36.6,30.20,West,265,0.0,0.0,57,0.00,,,0.01,74.00,VWS V14.00,2013-01-17 22:18:00,
2013-01-17 16:19:00,51.3,36.6,30.20,WNW,303,0.0,0.0,57,0.00,,,0.01,72.00,VWS V14.00,2013-01-17 22:19:00,
2013-01-17 16:20:00,51.3,36.6,30.20,WNW,282,0.0,0.0,57,0.00,,,0.01,70.00,VWS V14.00,2013-01-17 22:20:00,
2013-01-17 16:21:00,51.1,36.0,30.20,WNW,296,0.0,0.0,56,0.00,,,0.01,72.00,VWS V14.00,2013-01-17 22:21:00,
2013-01-17 16:22:00,51.1,36.0,30.20,NNW,336,0.0,0.0,56,0.00,,,0.01,76.00,VWS V14.00,2013-01-17 22:22:00,
2013-01-17 16:23:00,51.1,36.4,30.20,NNW,329,0.0,0.0,57,0.00,,,0.01,77.00,VWS V14.00,2013-01-17 22:23:00,
2013-01-17 16:24:00,51.0,36.3,30.20,WNW,287,0.0,0.0,57,0.00,,,0.01,70.00,VWS V14.00,2013-01-17 22:24:00,
2013-01-17 16:25:00,51.0,36.3,30.20,NNE,19,0.0,0.0,57,0.00,,,0.01,62.00,VWS V14.00,2013-01-17 22:25:00,
2013-01-17 16:26:00,51.0,36.3,30.20,North,351,0.0,0.0,57,0.00,,,0.01,53.00,VWS V14.00,2013-01-17 22:26:00,
2013-01-17 16:27:00,50.8,36.1,30.20,West,269,0.0,0.0,57,0.00,,,0.01,49.00,VWS V14.00,2013-01-17 22:27:00,
2013-01-17 16:28:00,50.8,36.1,30.20,NW,313,0.0,0.0,57,0.00,,,0.01,40.00,VWS V14.00,2013-01-17 22:28:00,
2013-01-17 16:29:00,50.8,36.6,30.20,North,360,0.0,0.0,58,0.00,,,0.01,30.00,VWS V14.00,2013-01-17 22:29:00,
2013-01-17 16:30:00,50.7,36.0,30.21,NW,320,0.0,0.0,57,0.00,,,0.01,33.00,VWS V14.00,2013-01-17 22:30:00,
2013-01-17 16:31:00,50.7,36.5,30.21,North,5,0.0,0.0,58,0.00,,,0.01,28.00,VWS V14.00,2013-01-17 22:31:00,
2013-01-17 16:32:00,50.7,36.5,30.21,NW,315,0.0,0.0,58,0.00,,,0.01,25.00,VWS V14.00,2013-01-17 22:32:00,
2013-01-17 16:33:00,50.5,36.3,30.21,NW,311,0.0,0.0,58,0.00,,,0.01,23.00,VWS V14.00,2013-01-17 22:33:00,
2013-01-17 16:34:00,50.5,36.3,30.21,WNW,292,0.0,0.0,58,0.00,,,0.01,23.00,VWS V14.00,2013-01-17 22:34:00,
2013-01-17 16:35:00,50.5,36.7,30.21,NW,321,0.0,0.0,59,0.00,,,0.01,21.00,VWS V14.00,2013-01-17 22:35:00,
2013-01-17 16:36:00,50.4,36.2,30.21,NW,318,0.0,0.0,58,0.00,,,0.01,19.00,VWS V14.00,2013-01-17 22:36:00,
2013-01-17 16:37:00,50.4,36.2,30.21,WNW,296,0.0,0.0,58,0.00,,,0.01,19.00,VWS V14.00,2013-01-17 22:37:00,
2013-01-17 16:38:00,50.2,36.0,30.21,NNW,342,0.0,0.0,58,0.00,,,0.01,18.00,VWS V14.00,2013-01-17 22:38:00,
2013-01-17 16:39:00,50.2,36.4,30.21,WNW,285,0.0,0.0,59,0.00,,,0.01,18.00,VWS V14.00,2013-01-17 22:39:00,
2013-01-17 16:40:00,50.2,36.4,30.21,NW,322,0.0,0.0,59,0.00,,,0.01,18.00,VWS V14.00,2013-01-17 22:40:00,
2013-01-17 16:41:00,50.1,36.3,30.21,West,259,0.0,0.0,59,0.00,,,0.01,16.00,VWS V14.00,2013-01-17 22:41:00,
2013-01-17 16:42:00,50.1,36.3,30.21,NNW,332,0.0,0.0,59,0.00,,,0.01,16.00,VWS V14.00,2013-01-17 22:42:00,
2013-01-17 16:43:00,50.1,36.8,30.21,NW,315,0.0,0.0,60,0.00,,,0.01,16.00,VWS V14.00,2013-01-17 22:43:00,
2013-01-17 16:44:00,49.9,36.6,30.22,NNW,347,0.0,0.0,60,0.00,,,0.01,14.00,VWS V14.00,2013-01-17 22:44:00,
2013-01-17 16:45:00,49.9,36.6,30.22,North,355,0.0,0.0,60,0.00,,,0.01,14.00,VWS V14.00,2013-01-17 22:45:00,
2013-01-17 16:46:00,49.8,36.5,30.22,NW,304,0.0,0.0,60,0.00,,,0.01,14.00,VWS V14.00,2013-01-17 22:46:00,
2013-01-17 16:47:00,49.8,36.5,30.22,NNE,17,0.0,0.0,60,0.00,,,0.01,12.00,VWS V14.00,2013-01-17 22:47:00,
2013-01-17 16:48:00,49.8,36.5,30.22,NNW,333,0.0,0.0,60,0.00,,,0.01,12.00,VWS V14.00,2013-01-17 22:48:00,
2013-01-17 16:49:00,49.6,36.3,30.22,NNW,340,0.0,0.0,60,0.00,,,0.01,12.00,VWS V14.00,2013-01-17 22:49:00,
2013-01-17 16:50:00,49.6,36.3,30.22,West,280,0.0,0.0,60,0.00,,,0.01,12.00,VWS V14.00,2013-01-17 22:50:00,
2013-01-17 16:51:00,49.6,36.7,30.22,NW,313,0.0,0.0,61,0.00,,,0.01,11.00,VWS V14.00,2013-01-17 22:51:00,
2013-01-17 16:52:00,49.5,36.6,30.22,NW,322,0.0,0.0,61,0.00,,,0.01,11.00,VWS V14.00,2013-01-17 22:52:00,
2013-01-17 16:53:00,49.5,36.6,30.22,NNW,329,0.0,0.0,61,0.00,,,0.01,9.00,VWS V14.00,2013-01-17 22:53:00,
2013-01-17 16:54:00,49.5,36.6,30.22,NW,304,0.0,0.0,61,0.00,,,0.01,9.00,VWS V14.00,2013-01-17 22:54:00,
2013-01-17 16:55:00,49.4,36.5,30.22,NNE,20,0.0,0.0,61,0.00,,,0.01,9.00,VWS V14.00,2013-01-17 22:55:00,
2013-01-17 16:56:00,49.4,36.5,30.22,WNW,284,0.0,0.0,61,0.00,,,0.01,9.00,VWS V14.00,2013-01-17 22:56:00,
2013-01-17 16:57:00,49.4,36.9,30.22,NW,319,0.0,0.0,62,0.00,,,0.01,7.00,VWS V14.00,2013-01-17 22:57:00,
2013-01-17 16:58:00,49.4,36.5,30.22,North,351,0.0,0.0,61,0.00,,,0.01,7.00,VWS V14.00,2013-01-17 22:58:00,
2013-01-17 16:59:00,49.2,36.8,30.23,NW,319,0.0,0.0,62,0.00,,,0.01,7.00,VWS V14.00,2013-01-17 22:59:00,
2013-01-17 17:00:00,49.2,36.8,30.23,NW,306,0.0,0.0,62,0.00,,,0.01,5.00,VWS V14.00,2013-01-17 23:00:00,
2013-01-17 17:01:00,49.2,36.8,30.23,NW,309,0.0,0.0,62,0.00,,,0.01,5.00,VWS V14.00,2013-01-17 23:01:00,
2013-01-17 17:02:00,49.2,36.8,30.23,WNW,283,0.0,0.0,62,0.00,,,0.01,5.00,VWS V14.00,2013-01-17 23:02:00,
2013-01-17 17:03:00,49.1,36.7,30.23,NW,323,0.0,0.0,62,0.00,,,0.01,5.00,VWS V14.00,2013-01-17 23:03:00,
2013-01-17 17:04:00,49.1,36.7,30.23,WNW,299,0.0,0.0,62,0.00,,,0.01,0.00,VWS V14.00,2013-01-17 23:04:00,
2013-01-17 17:05:00,49.1,37.1,30.23,NNW,334,0.0,0.0,63,0.00,,,0.01,0.00,VWS V14.00,2013-01-17 23:05:00,
2013-01-17 17:06:00,49.1,37.1,30.23,WNW,286,0.0,0.0,63,0.00,,,0.01,0.00,VWS V14.00,2013-01-17 23:06:00,
2013-01-17 17:07:00,48.9,36.9,30.23,NW,315,0.0,0.0,63,0.00,,,0.01,0.00,VWS V14.00,2013-01-17 23:07:00,
2013-01-17 17:08:00,48.9,36.9,30.23,NNW,345,0.0,0.0,63,0.00,,,0.01,0.00,VWS V14.00,2013-01-17 23:08:00,
2013-01-17 17:09:00,48.9,36.9,30.23,WNW,303,0.0,0.0,63,0.00,,,0.01,0.00,VWS V14.00,2013-01-17 23:09:00,
2013-01-17 17:10:00,48.8,36.8,30.23,NW,313,0.0,0.0,63,0.00,,,0.01,0.00,VWS V14.00,2013-01-17 23:10:00,
2013-01-17 17:11:00,48.8,36.8,30.23,WNW,292,0.0,0.0,63,0.00,,,0.01,0.00,VWS V14.00,2013-01-17 23:11:00,
2013-01-17 17:12:00,48.8,37.2,30.23,NNW,329,0.0,0.0,64,0.00,,,0.01,0.00,VWS V14.00,2013-01-17 23:12:00,
2013-01-17 17:13:00,48.8,37.2,30.23,NNW,343,0.0,0.0,64,0.00,,,0.01,0.00,VWS V14.00,2013-01-17 23:13:00,
2013-01-17 17:14:00,48.6,37.0,30.23,NW,317,0.0,0.0,64,0.00,,,0.01,0.00,VWS V14.00,2013-01-17 23:14:00,
2013-01-17 17:15:00,48.6,37.0,30.23,NNW,337,0.0,0.0,64,0.00,,,0.01,0.00,VWS V14.00,2013-01-17 23:15:00,
2013-01-17 17:16:00,48.6,37.0,30.23,NNW,342,0.0,0.0,64,0.00,,,0.01,0.00,VWS V14.00,2013-01-17 23:16:00,
2013-01-17 17:17:00,48.5,36.9,30.23,WNW,299,0.0,0.0,64,0.00,,,0.01,0.00,VWS V14.00,2013-01-17 23:17:00,
2013-01-17 17:18:00,48.5,36.9,30.23,West,266,0.0,0.0,64,0.00,,,0.01,0.00,VWS V14.00,2013-01-17 23:18:00,
2013-01-17 17:19:00,48.5,36.9,30.23,North,360,0.0,0.0,64,0.00,,,0.01,0.00,VWS V14.00,2013-01-17 23:19:00,
2013-01-17 17:20:00,48.3,36.7,30.23,NW,319,0.0,0.0,64,0.00,,,0.01,0.00,VWS V14.00,2013-01-17 23:20:00,
2013-01-17 17:21:00,48.3,36.7,30.23,WSW,256,0.0,0.0,64,0.00,,,0.01,0.00,VWS V14.00,2013-01-17 23:21:00,
2013-01-17 17:22:00,48.3,37.1,30.23,WNW,302,0.0,0.0,65,0.00,,,0.01,0.00,VWS V14.00,2013-01-17 23:22:00,
2013-01-17 17:23:00,48.3,37.1,30.23,WNW,301,0.0,0.0,65,0.00,,,0.01,0.00,VWS V14.00,2013-01-17 23:23:00,
2013-01-17 17:24:00,48.2,37.0,30.23,NW,306,0.0,0.0,65,0.00,,,0.01,0.00,VWS V14.00,2013-01-17 23:24:00,
2013-01-17 17:25:00,48.2,37.0,30.23,NNW,342,0.0,0.0,65,0.00,,,0.01,0.00,VWS V14.00,2013-01-17 23:25:00,
2013-01-17 17:26:00,48.2,37.0,30.23,NW,311,0.0,0.0,65,0.00,,,0.01,0.00,VWS V14.00,2013-01-17 23:26:00,
2013-01-17 17:27:00,48.0,36.8,30.23,NW,325,0.0,0.0,65,0.00,,,0.01,0.00,VWS V14.00,2013-01-17 23:27:00,
2013-01-17 17:28:00,48.0,36.8,30.23,North,351,0.0,0.0,65,0.00,,,0.01,0.00,VWS V14.00,2013-01-17 23:28:00,
2013-01-17 17:29:00,48.0,37.2,30.24,North,351,0.0,0.0,66,0.00,,,0.01,0.00,VWS V14.00,2013-01-17 23:29:00,
2013-01-17 17:30:00,48.0,37.2,30.24,NNW,346,0.0,0.0,66,0.00,,,0.01,0.00,VWS V14.00,2013-01-17 23:30:00,
2013-01-17 17:31:00,47.9,37.1,30.24,NNW,341,0.0,0.0,66,0.00,,,0.01,0.00,VWS V14.00,2013-01-17 23:31:00,
2013-01-17 17:32:00,47.9,37.1,30.24,NW,311,0.0,0.0,66,0.00,,,0.01,0.00,VWS V14.00,2013-01-17 23:32:00,
2013-01-17 17:33:00,47.9,37.1,30.24,NW,311,0.0,0.0,66,0.00,,,0.01,0.00,VWS V14.00,2013-01-17 23:33:00,
2013-01-17 17:34:00,47.9,37.1,30.24,WNW,297,0.0,0.0,66,0.00,,,0.01,0.00,VWS V14.00,2013-01-17 23:34:00,
2013-01-17 17:35:00,47.7,36.9,30.24,NNW,332,0.0,0.0,66,0.00,,,0.01,0.00,VWS V14.00,2013-01-17 23:35:00,
2013-01-17 17:36:00,47.7,36.9,30.24,NNW,338,0.0,0.0,66,0.00,,,0.01,0.00,VWS V14.00,2013-01-17 23:36:00,
2013-01-17 17:37:00,47.7,36.9,30.24,NNW,329,0.0,0.0,66,0.00,,,0.01,0.00,VWS V14.00,2013-01-17 23:37:00,
2013-01-17 17:38:00,47.7,37.3,30.24,NW,324,0.0,0.0,67,0.00,,,0.01,0.00,VWS V14.00,2013-01-17 23:38:00,
2013-01-17 17:39:00,47.6,36.8,30.24,NW,319,0.0,0.0,66,0.00,,,0.01,0.00,VWS V14.00,2013-01-17 23:39:00,
2013-01-17 17:40:00,47.6,37.2,30.24,North,355,0.0,0.0,67,0.00,,,0.01,0.00,VWS V14.00,2013-01-17 23:40:00,
2013-01-17 17:41:00,47.6,37.2,30.24,West,277,0.0,0.0,67,0.00,,,0.01,0.00,VWS V14.00,2013-01-17 23:41:00,
2013-01-17 17:42:00,47.6,37.2,30.24,NW,311,0.0,0.0,67,0.00,,,0.01,0.00,VWS V14.00,2013-01-17 23:42:00,
2013-01-17 17:43:00,47.4,37.0,30.24,WNW,290,0.0,0.0,67,0.00,,,0.01,0.00,VWS V14.00,2013-01-17 23:43:00,
2013-01-17 17:44:00,47.4,37.0,30.25,NW,321,0.0,0.0,67,0.00,,,0.01,0.00,VWS V14.00,2013-01-17 23:44:00,
2013-01-17 17:45:00,47.4,37.0,30.25,NW,308,0.0,0.0,67,0.00,,,0.01,0.00,VWS V14.00,2013-01-17 23:45:00,
2013-01-17 17:46:00,47.4,37.0,30.25,WNW,299,0.0,0.0,67,0.00,,,0.01,0.00,VWS V14.00,2013-01-17 23:46:00,
2013-01-17 17:47:00,47.3,36.9,30.25,NW,304,0.0,0.0,67,0.00,,,0.01,0.00,VWS V14.00,2013-01-17 23:47:00,
2013-01-17 17:48:00,47.3,36.9,30.25,NW,320,0.0,0.0,67,0.00,,,0.01,0.00,VWS V14.00,2013-01-17 23:48:00,
2013-01-17 17:49:00,47.3,36.9,30.25,NNW,330,0.0,0.0,67,0.00,,,0.01,0.00,VWS V14.00,2013-01-17 23:49:00,
2013-01-17 17:50:00,47.3,36.9,30.25,NNW,327,0.0,0.0,67,0.00,,,0.01,0.00,VWS V14.00,2013-01-17 23:50:00,
2013-01-17 17:51:00,47.3,36.9,30.25,NW,321,0.0,0.0,67,0.00,,,0.01,0.00,VWS V14.00,2013-01-17 23:51:00,
2013-01-17 17:52:00,47.1,36.7,30.25,WNW,290,0.0,0.0,67,0.00,,,0.01,0.00,VWS V14.00,2013-01-17 23:52:00,
2013-01-17 17:53:00,47.1,36.7,30.25,NNW,341,0.0,0.0,67,0.00,,,0.01,0.00,VWS V14.00,2013-01-17 23:53:00,
2013-01-17 17:54:00,47.1,36.7,30.25,NW,321,0.0,0.0,67,0.00,,,0.01,0.00,VWS V14.00,2013-01-17 23:54:00,
2013-01-17 17:55:00,47.1,36.7,30.25,NNW,339,0.0,0.0,67,0.00,,,0.01,0.00,VWS V14.00,2013-01-17 23:55:00,
2013-01-17 17:56:00,47.1,36.7,30.25,NNW,348,0.0,0.0,67,0.00,,,0.01,0.00,VWS V14.00,2013-01-17 23:56:00,
2013-01-17 17:57:00,47.1,36.7,30.25,NW,319,0.0,0.0,67,0.00,,,0.01,0.00,VWS V14.00,2013-01-17 23:57:00,
2013-01-17 17:58:00,47.1,36.7,30.25,NW,306,0.0,0.0,67,0.00,,,0.01,0.00,VWS V14.00,2013-01-17 23:58:00,
2013-01-17 17:59:00,47.1,36.7,30.26,NW,320,0.0,0.0,67,0.00,,,0.01,0.00,VWS V14.00,2013-01-17 23:59:00,
2013-01-17 18:00:00,47.0,36.6,30.26,NW,320,0.0,0.0,67,0.00,,,0.01,0.00,VWS V14.00,2013-01-18 00:00:00,
2013-01-17 18:01:00,47.0,36.6,30.26,NW,317,0.0,0.0,67,0.00,,,0.01,0.00,VWS V14.00,2013-01-18 00:01:00,
2013-01-17 18:02:00,47.0,36.6,30.26,NW,317,0.0,0.0,67,0.00,,,0.01,0.00,VWS V14.00,2013-01-18 00:02:00,
2013-01-17 18:03:00,47.0,36.6,30.26,WNW,300,0.0,0.0,67,0.00,,,0.01,0.00,VWS V14.00,2013-01-18 00:03:00,
2013-01-17 18:04:00,47.0,36.6,30.26,WNW,300,0.0,0.0,67,0.00,,,0.01,0.00,VWS V14.00,2013-01-18 00:04:00,
2013-01-17 18:05:00,47.0,36.6,30.26,NW,313,0.0,0.0,67,0.00,,,0.01,0.00,VWS V14.00,2013-01-18 00:05:00,
2013-01-17 18:06:00,47.0,36.6,30.26,NW,322,0.0,0.0,67,0.00,,,0.01,0.00,VWS V14.00,2013-01-18 00:06:00,
2013-01-17 18:07:00,47.0,36.6,30.26,WNW,301,0.0,0.0,67,0.00,,,0.01,0.00,VWS V14.00,2013-01-18 00:07:00,
2013-01-17 18:08:00,46.8,36.4,30.26,NW,316,0.0,0.0,67,0.00,,,0.01,0.00,VWS V14.00,2013-01-18 00:08:00,
2013-01-17 18:09:00,46.8,36.4,30.26,NW,317,0.0,0.0,67,0.00,,,0.01,0.00,VWS V14.00,2013-01-18 00:09:00,
2013-01-17 18:10:00,46.8,36.4,30.26,NW,317,0.0,0.0,67,0.00,,,0.01,0.00,VWS V14.00,2013-01-18 00:10:00,
2013-01-17 18:11:00,46.8,36.4,30.26,West,275,0.0,0.0,67,0.00,,,0.01,0.00,VWS V14.00,2013-01-18 00:11:00,
2013-01-17 18:12:00,46.8,36.4,30.26,West,280,0.0,0.0,67,0.00,,,0.01,0.00,VWS V14.00,2013-01-18 00:12:00,
2013-01-17 18:13:00,46.8,36.4,30.26,West,280,0.0,0.0,67,0.00,,,0.01,0.00,VWS V14.00,2013-01-18 00:13:00,
2013-01-17 18:14:00,46.8,36.8,30.27,WNW,283,0.0,0.0,68,0.00,,,0.01,0.00,VWS V14.00,2013-01-18 00:14:00,
2013-01-17 18:15:00,46.7,36.7,30.27,WNW,283,0.0,0.0,68,0.00,,,0.01,0.00,VWS V14.00,2013-01-18 00:15:00,
2013-01-17 18:16:00,46.7,36.7,30.27,WNW,283,0.0,0.0,68,0.00,,,0.01,0.00,VWS V14.00,2013-01-18 00:16:00,
2013-01-17 18:17:00,46.7,36.7,30.27,WNW,283,0.0,0.0,68,0.00,,,0.01,0.00,VWS V14.00,2013-01-18 00:17:00,
2013-01-17 18:18:00,46.7,36.7,30.27,WNW,283,0.0,0.0,68,0.00,,,0.01,0.00,VWS V14.00,2013-01-18 00:18:00,
2013-01-17 18:19:00,46.7,36.7,30.27,WNW,283,0.0,0.0,68,0.00,,,0.01,0.00,VWS V14.00,2013-01-18 00:19:00,
2013-01-17 18:20:00,46.5,36.5,30.27,NW,325,0.0,0.0,68,0.00,,,0.01,0.00,VWS V14.00,2013-01-18 00:20:00,
2013-01-17 18:21:00,46.5,36.5,30.27,NW,325,0.0,0.0,68,0.00,,,0.01,0.00,VWS V14.00,2013-01-18 00:21:00,
2013-01-17 18:22:00,46.5,36.5,30.27,North,350,0.0,0.0,68,0.00,,,0.01,0.00,VWS V14.00,2013-01-18 00:22:00,
2013-01-17 18:23:00,46.5,36.5,30.27,NNW,343,0.0,0.0,68,0.00,,,0.01,0.00,VWS V14.00,2013-01-18 00:23:00,
2013-01-17 18:24:00,46.4,36.4,30.27,NNW,343,0.0,0.0,68,0.00,,,0.01,0.00,VWS V14.00,2013-01-18 00:24:00,
2013-01-17 18:25:00,46.4,36.4,30.27,NW,309,0.0,0.0,68,0.00,,,0.01,0.00,VWS V14.00,2013-01-18 00:25:00,
2013-01-17 18:26:00,46.4,36.4,30.27,NW,309,0.0,0.0,68,0.00,,,0.01,0.00,VWS V14.00,2013-01-18 00:26:00,
2013-01-17 18:27:00,46.4,36.4,30.27,NW,315,0.0,0.0,68,0.00,,,0.01,0.00,VWS V14.00,2013-01-18 00:27:00,
2013-01-17 18:28:00,46.4,36.4,30.27,NW,315,0.0,0.0,68,0.00,,,0.01,0.00,VWS V14.00,2013-01-18 00:28:00,
2013-01-17 18:29:00,46.2,36.2,30.28,NNW,328,0.0,0.0,68,0.00,,,0.01,0.00,VWS V14.00,2013-01-18 00:29:00,
2013-01-17 18:30:00,46.2,36.2,30.28,WNW,283,0.0,0.0,68,0.00,,,0.01,0.00,VWS V14.00,2013-01-18 00:30:00,
2013-01-17 18:31:00,46.2,36.2,30.28,NW,325,0.0,0.0,68,0.00,,,0.01,0.00,VWS V14.00,2013-01-18 00:31:00,
2013-01-17 18:32:00,46.2,36.2,30.28,WNW,298,0.0,0.0,68,0.00,,,0.01,0.00,VWS V14.00,2013-01-18 00:32:00,
2013-01-17 18:33:00,46.2,36.6,30.28,NW,304,0.0,0.0,69,0.00,,,0.01,0.00,VWS V14.00,2013-01-18 00:33:00,
2013-01-17 18:34:00,46.1,36.5,30.28,NNW,337,0.0,0.0,69,0.00,,,0.01,0.00,VWS V14.00,2013-01-18 00:34:00,
2013-01-17 18:35:00,46.1,36.5,30.28,NW,320,0.0,0.0,69,0.00,,,0.01,0.00,VWS V14.00,2013-01-18 00:35:00,
2013-01-17 18:36:00,46.1,36.5,30.28,NW,320,0.0,0.0,69,0.00,,,0.01,0.00,VWS V14.00,2013-01-18 00:36:00,
2013-01-17 18:37:00,46.1,36.5,30.28,NW,321,0.0,0.0,69,0.00,,,0.01,0.00,VWS V14.00,2013-01-18 00:37:00,
2013-01-17 18:38:00,46.1,36.5,30.28,NW,321,0.0,0.0,69,0.00,,,0.01,0.00,VWS V14.00,2013-01-18 00:38:00,
2013-01-17 18:39:00,46.1,36.5,30.28,NW,321,0.0,0.0,69,0.00,,,0.01,0.00,VWS V14.00,2013-01-18 00:39:00,
2013-01-17 18:40:00,46.0,36.4,30.28,NW,321,0.0,0.0,69,0.00,,,0.01,0.00,VWS V14.00,2013-01-18 00:40:00,
2013-01-17 18:41:00,46.0,36.4,30.28,NW,321,0.0,0.0,69,0.00,,,0.01,0.00,VWS V14.00,2013-01-18 00:41:00,
2013-01-17 18:42:00,46.0,36.4,30.28,NW,321,0.0,0.0,69,0.00,,,0.01,0.00,VWS V14.00,2013-01-18 00:42:00,
2013-01-17 18:43:00,46.0,36.4,30.28,NNW,333,0.0,0.0,69,0.00,,,0.01,0.00,VWS V14.00,2013-01-18 00:43:00,
2013-01-17 18:44:00,46.0,36.4,30.28,NNW,333,0.0,0.0,69,0.00,,,0.01,0.00,VWS V14.00,2013-01-18 00:44:00,
2013-01-17 18:45:00,45.8,36.2,30.28,NNW,333,0.0,0.0,69,0.00,,,0.01,0.00,VWS V14.00,2013-01-18 00:45:00,
2013-01-17 18:46:00,45.8,36.2,30.28,NNW,340,0.0,0.0,69,0.00,,,0.01,0.00,VWS V14.00,2013-01-18 00:46:00,
2013-01-17 18:47:00,45.8,36.2,30.28,North,355,0.0,0.0,69,0.00,,,0.01,0.00,VWS V14.00,2013-01-18 00:47:00,
2013-01-17 18:48:00,45.8,36.2,30.28,North,355,0.0,0.0,69,0.00,,,0.01,0.00,VWS V14.00,2013-01-18 00:48:00,
2013-01-17 18:49:00,45.8,36.2,30.28,NW,324,0.0,0.0,69,0.00,,,0.01,0.00,VWS V14.00,2013-01-18 00:49:00,
2013-01-17 18:50:00,45.7,36.1,30.28,WNW,296,0.0,0.0,69,0.00,,,0.01,0.00,VWS V14.00,2013-01-18 00:50:00,
2013-01-17 18:51:00,45.7,36.1,30.28,NW,326,0.0,0.0,69,0.00,,,0.01,0.00,VWS V14.00,2013-01-18 00:51:00,
2013-01-17 18:52:00,45.7,36.1,30.28,NW,321,0.0,0.0,69,0.00,,,0.01,0.00,VWS V14.00,2013-01-18 00:52:00,
2013-01-17 18:53:00,45.7,36.1,30.28,NW,322,0.0,0.0,69,0.00,,,0.01,0.00,VWS V14.00,2013-01-18 00:53:00,
2013-01-17 18:54:00,45.7,36.1,30.28,NNW,333,0.0,0.0,69,0.00,,,0.01,0.00,VWS V14.00,2013-01-18 00:54:00,
2013-01-17 18:55:00,45.7,36.1,30.28,NNW,342,0.0,0.0,69,0.00,,,0.01,0.00,VWS V14.00,2013-01-18 00:55:00,
2013-01-17 18:56:00,45.7,36.1,30.28,NNW,343,0.0,0.0,69,0.00,,,0.01,0.00,VWS V14.00,2013-01-18 00:56:00,
2013-01-17 18:57:00,45.5,35.9,30.28,WNW,302,0.0,0.0,69,0.00,,,0.01,0.00,VWS V14.00,2013-01-18 00:57:00,
2013-01-17 18:58:00,45.5,35.9,30.28,NNW,344,0.0,0.0,69,0.00,,,0.01,0.00,VWS V14.00,2013-01-18 00:58:00,
2013-01-17 18:59:00,45.5,35.9,30.28,NW,319,0.0,0.0,69,0.00,,,0.01,0.00,VWS V14.00,2013-01-18 00:59:00,
2013-01-17 19:00:00,45.5,35.9,30.28,NNW,347,0.0,0.0,69,0.00,,,0.01,0.00,VWS V14.00,2013-01-18 01:00:00,
2013-01-17 19:01:00,45.7,36.1,30.28,NNW,344,0.0,0.0,69,0.00,,,0.01,0.00,VWS V14.00,2013-01-18 01:01:00,
2013-01-17 19:02:00,45.7,36.1,30.28,North,350,0.0,0.0,69,0.00,,,0.01,0.00,VWS V14.00,2013-01-18 01:02:00,
2013-01-17 19:03:00,45.7,35.8,30.28,NW,314,0.0,0.0,68,0.00,,,0.01,0.00,VWS V14.00,2013-01-18 01:03:00,
2013-01-17 19:04:00,45.7,35.8,30.28,NNW,333,0.0,0.0,68,0.00,,,0.01,0.00,VWS V14.00,2013-01-18 01:04:00,
2013-01-17 19:05:00,45.7,35.8,30.28,North,355,0.0,0.0,68,0.00,,,0.01,0.00,VWS V14.00,2013-01-18 01:05:00,
2013-01-17 19:06:00,45.7,35.8,30.28,NNW,329,0.0,0.0,68,0.00,,,0.01,0.00,VWS V14.00,2013-01-18 01:06:00,
2013-01-17 19:07:00,45.7,35.8,30.28,NNW,344,0.0,0.0,68,0.00,,,0.01,0.00,VWS V14.00,2013-01-18 01:07:00,
2013-01-17 19:08:00,45.7,35.8,30.28,NNW,336,0.0,0.0,68,0.00,,,0.01,0.00,VWS V14.00,2013-01-18 01:08:00,
2013-01-17 19:09:00,45.7,35.8,30.28,NNW,343,0.0,0.0,68,0.00,,,0.01,0.00,VWS V14.00,2013-01-18 01:09:00,
2013-01-17 19:10:00,45.7,35.8,30.28,WNW,293,0.0,0.0,68,0.00,,,0.01,0.00,VWS V14.00,2013-01-18 01:10:00,
2013-01-17 19:11:00,45.7,35.8,30.28,NNW,338,0.0,0.0,68,0.00,,,0.01,0.00,VWS V14.00,2013-01-18 01:11:00,
2013-01-17 19:12:00,45.7,35.8,30.28,NNW,344,0.0,0.0,68,0.00,,,0.01,0.00,VWS V14.00,2013-01-18 01:12:00,
2013-01-17 19:13:00,45.7,35.8,30.28,North,355,0.0,0.0,68,0.00,,,0.01,0.00,VWS V14.00,2013-01-18 01:13:00,
2013-01-17 19:14:00,45.7,35.8,30.29,NNW,329,0.0,0.0,68,0.00,,,0.01,0.00,VWS V14.00,2013-01-18 01:14:00,
2013-01-17 19:15:00,45.7,35.8,30.29,NNW,333,0.0,0.0,68,0.00,,,0.01,0.00,VWS V14.00,2013-01-18 01:15:00,
2013-01-17 19:16:00,45.7,35.8,30.29,NNW,337,0.0,0.0,68,0.00,,,0.01,0.00,VWS V14.00,2013-01-18 01:16:00,
2013-01-17 19:17:00,45.7,35.8,30.29,NNW,337,0.0,0.0,68,0.00,,,0.01,0.00,VWS V14.00,2013-01-18 01:17:00,
2013-01-17 19:18:00,45.7,35.8,30.29,NNW,337,0.0,0.0,68,0.00,,,0.01,0.00,VWS V14.00,2013-01-18 01:18:00,
2013-01-17 19:19:00,45.7,35.8,30.29,NNW,340,0.0,0.0,68,0.00,,,0.01,0.00,VWS V14.00,2013-01-18 01:19:00,
2013-01-17 19:20:00,45.7,35.8,30.29,NW,326,0.0,0.0,68,0.00,,,0.01,0.00,VWS V14.00,2013-01-18 01:20:00,
2013-01-17 19:21:00,45.7,35.8,30.29,NNW,341,0.0,0.0,68,0.00,,,0.01,0.00,VWS V14.00,2013-01-18 01:21:00,
2013-01-17 19:22:00,45.5,35.6,30.29,WNW,299,0.0,0.0,68,0.00,,,0.01,0.00,VWS V14.00,2013-01-18 01:22:00,
2013-01-17 19:23:00,45.5,35.6,30.29,NW,313,0.0,0.0,68,0.00,,,0.01,0.00,VWS V14.00,2013-01-18 01:23:00,
2013-01-17 19:24:00,45.5,35.6,30.29,NNW,346,0.0,0.0,68,0.00,,,0.01,0.00,VWS V14.00,2013-01-18 01:24:00,
2013-01-17 19:25:00,45.5,35.6,30.29,WNW,301,0.0,0.0,68,0.00,,,0.01,0.00,VWS V14.00,2013-01-18 01:25:00,
2013-01-17 19:26:00,45.5,35.6,30.29,WNW,301,0.0,0.0,68,0.00,,,0.01,0.00,VWS V14.00,2013-01-18 01:26:00,
2013-01-17 19:27:00,45.5,35.6,30.29,North,360,0.0,0.0,68,0.00,,,0.01,0.00,VWS V14.00,2013-01-18 01:27:00,
2013-01-17 19:28:00,45.5,35.6,30.29,NNW,348,0.0,0.0,68,0.00,,,0.01,0.00,VWS V14.00,2013-01-18 01:28:00,
2013-01-17 19:29:00,45.4,35.5,30.29,WNW,290,0.0,0.0,68,0.00,,,0.01,0.00,VWS V14.00,2013-01-18 01:29:00,
2013-01-17 19:30:00,45.4,35.5,30.29,NNW,346,0.0,0.0,68,0.00,,,0.01,0.00,VWS V14.00,2013-01-18 01:30:00,
2013-01-17 19:31:00,45.4,35.5,30.29,North,349,0.0,0.0,68,0.00,,,0.01,0.00,VWS V14.00,2013-01-18 01:31:00,
2013-01-17 19:32:00,45.4,35.5,30.29,WNW,296,0.0,0.0,68,0.00,,,0.01,0.00,VWS V14.00,2013-01-18 01:32:00,
2013-01-17 19:33:00,45.4,35.5,30.29,NW,323,0.0,0.0,68,0.00,,,0.01,0.00,VWS V14.00,2013-01-18 01:33:00,
2013-01-17 19:34:00,45.4,35.5,30.29,NNW,333,0.0,0.0,68,0.00,,,0.01,0.00,VWS V14.00,2013-01-18 01:34:00,
2013-01-17 19:35:00,45.2,35.3,30.29,WNW,294,0.0,0.0,68,0.00,,,0.01,0.00,VWS V14.00,2013-01-18 01:35:00,
2013-01-17 19:36:00,45.2,35.3,30.29,NW,315,0.0,0.0,68,0.00,,,0.01,0.00,VWS V14.00,2013-01-18 01:36:00,
2013-01-17 19:37:00,45.2,35.7,30.29,NW,324,0.0,0.0,69,0.00,,,0.01,0.00,VWS V14.00,2013-01-18 01:37:00,
2013-01-17 19:38:00,45.2,35.7,30.29,NW,324,0.0,0.0,69,0.00,,,0.01,0.00,VWS V14.00,2013-01-18 01:38:00,
2013-01-17 19:39:00,45.2,35.7,30.29,WNW,298,0.0,0.0,69,0.00,,,0.01,0.00,VWS V14.00,2013-01-18 01:39:00,
2013-01-17 19:40:00,45.1,35.5,30.29,NW,309,0.0,0.0,69,0.00,,,0.01,0.00,VWS V14.00,2013-01-18 01:40:00,
2013-01-17 19:41:00,45.1,35.5,30.29,NW,316,0.0,0.0,69,0.00,,,0.01,0.00,VWS V14.00,2013-01-18 01:41:00,
2013-01-17 19:42:00,45.1,35.5,30.29,NNW,342,0.0,0.0,69,0.00,,,0.01,0.00,VWS V14.00,2013-01-18 01:42:00,
2013-01-17 19:43:00,45.1,35.5,30.29,NW,324,0.0,0.0,69,0.00,,,0.01,0.00,VWS V14.00,2013-01-18 01:43:00,
2013-01-17 19:44:00,45.1,35.5,30.30,North,360,0.0,0.0,69,0.00,,,0.01,0.00,VWS V14.00,2013-01-18 01:44:00,
2013-01-17 19:45:00,45.1,35.5,30.30,NW,319,0.0,0.0,69,0.00,,,0.01,0.00,VWS V14.00,2013-01-18 01:45:00,
2013-01-17 19:46:00,45.1,35.5,30.30,NW,310,0.0,0.0,69,0.00,,,0.01,0.00,VWS V14.00,2013-01-18 01:46:00,
2013-01-17 19:47:00,44.9,35.4,30.30,NNW,329,0.0,0.0,69,0.00,,,0.01,0.00,VWS V14.00,2013-01-18 01:47:00,
2013-01-17 19:48:00,44.9,35.4,30.30,NNW,329,0.0,0.0,69,0.00,,,0.01,0.00,VWS V14.00,2013-01-18 01:48:00,
2013-01-17 19:49:00,44.9,35.4,30.30,WNW,291,0.0,0.0,69,0.00,,,0.01,0.00,VWS V14.00,2013-01-18 01:49:00,
2013-01-17 19:50:00,44.9,35.4,30.30,NNW,331,0.0,0.0,69,0.00,,,0.01,0.00,VWS V14.00,2013-01-18 01:50:00,
2013-01-17 19:51:00,44.9,35.4,30.30,NW,326,0.0,0.0,69,0.00,,,0.01,0.00,VWS V14.00,2013-01-18 01:51:00,
2013-01-17 19:52:00,44.9,35.4,30.30,NW,323,0.0,0.0,69,0.00,,,0.01,0.00,VWS V14.00,2013-01-18 01:52:00,
2013-01-17 19:53:00,44.9,35.4,30.30,NW,321,0.0,0.0,69,0.00,,,0.01,0.00,VWS V14.00,2013-01-18 01:53:00,
2013-01-17 19:54:00,44.9,35.4,30.30,NW,321,0.0,0.0,69,0.00,,,0.01,0.00,VWS V14.00,2013-01-18 01:54:00,
2013-01-17 19:55:00,44.9,35.4,30.30,NW,313,0.0,0.0,69,0.00,,,0.01,0.00,VWS V14.00,2013-01-18 01:55:00,
2013-01-17 19:56:00,44.8,35.3,30.30,NW,318,0.0,0.0,69,0.00,,,0.01,0.00,VWS V14.00,2013-01-18 01:56:00,
2013-01-17 19:57:00,44.8,35.3,30.30,NW,318,0.0,0.0,69,0.00,,,0.01,0.00,VWS V14.00,2013-01-18 01:57:00,
2013-01-17 19:58:00,44.8,35.3,30.30,NNW,331,0.0,0.0,69,0.00,,,0.01,0.00,VWS V14.00,2013-01-18 01:58:00,
2013-01-17 19:59:00,44.8,35.3,30.30,NNW,327,0.0,0.0,69,0.00,,,0.01,0.00,VWS V14.00,2013-01-18 01:59:00,
2013-01-17 20:00:00,44.8,35.3,30.30,NW,325,0.0,0.0,69,0.00,,,0.01,0.00,VWS V14.00,2013-01-18 02:00:00,
2013-01-17 20:01:00,44.8,35.3,30.30,NNW,328,0.0,0.0,69,0.00,,,0.01,0.00,VWS V14.00,2013-01-18 02:01:00,
2013-01-17 20:02:00,44.6,35.1,30.30,NW,315,0.0,0.0,69,0.00,,,0.01,0.00,VWS V14.00,2013-01-18 02:02:00,
2013-01-17 20:03:00,44.6,35.1,30.30,NW,306,0.0,0.0,69,0.00,,,0.01,0.00,VWS V14.00,2013-01-18 02:03:00,
2013-01-17 20:04:00,44.6,35.1,30.30,NNW,336,0.0,0.0,69,0.00,,,0.01,0.00,VWS V14.00,2013-01-18 02:04:00,
2013-01-17 20:05:00,44.6,35.1,30.30,NW,317,0.0,0.0,69,0.00,,,0.01,0.00,VWS V14.00,2013-01-18 02:05:00,
2013-01-17 20:06:00,44.6,35.4,30.30,NW,323,0.0,0.0,70,0.00,,,0.01,0.00,VWS V14.00,2013-01-18 02:06:00,
2013-01-17 20:07:00,44.6,35.4,30.30,NW,326,0.0,0.0,70,0.00,,,0.01,0.00,VWS V14.00,2013-01-18 02:07:00,
2013-01-17 20:08:00,44.6,35.4,30.30,NW,326,0.0,0.0,70,0.00,,,0.01,0.00,VWS V14.00,2013-01-18 02:08:00,
2013-01-17 20:09:00,44.5,35.3,30.30,North,360,0.0,0.0,70,0.00,,,0.01,0.00,VWS V14.00,2013-01-18 02:09:00,
2013-01-17 20:10:00,44.5,35.3,30.30,North,360,0.0,0.0,70,0.00,,,0.01,0.00,VWS V14.00,2013-01-18 02:10:00,
2013-01-17 20:11:00,44.5,35.3,30.30,North,360,0.0,0.0,70,0.00,,,0.01,0.00,VWS V14.00,2013-01-18 02:11:00,
2013-01-17 20:12:00,44.5,35.3,30.30,NNW,340,0.0,0.0,70,0.00,,,0.01,0.00,VWS V14.00,2013-01-18 02:12:00,
2013-01-17 20:13:00,44.5,35.3,30.30,NNW,340,0.0,0.0,70,0.00,,,0.01,0.00,VWS V14.00,2013-01-18 02:13:00,
2013-01-17 20:14:00,44.3,35.2,30.30,NNW,339,0.0,0.0,70,0.00,,,0.01,0.00,VWS V14.00,2013-01-18 02:14:00,
2013-01-17 20:15:00,44.3,35.2,30.31,NNW,340,0.0,0.0,70,0.00,,,0.01,0.00,VWS V14.00,2013-01-18 02:15:00,
2013-01-17 20:16:00,44.3,35.2,30.31,NNW,327,0.0,0.0,70,0.00,,,0.01,0.00,VWS V14.00,2013-01-18 02:16:00,
2013-01-17 20:17:00,44.3,35.2,30.31,NW,321,0.0,0.0,70,0.00,,,0.01,0.00,VWS V14.00,2013-01-18 02:17:00,
2013-01-17 20:18:00,44.3,35.2,30.31,NW,321,0.0,0.0,70,0.00,,,0.01,0.00,VWS V14.00,2013-01-18 02:18:00,
2013-01-17 20:19:00,44.2,35.0,30.31,NW,321,0.0,0.0,70,0.00,,,0.01,0.00,VWS V14.00,2013-01-18 02:19:00,
2013-01-17 20:20:00,44.2,35.0,30.31,NW,321,0.0,0.0,70,0.00,,,0.01,0.00,VWS V14.00,2013-01-18 02:20:00,
2013-01-17 20:21:00,44.2,35.0,30.31,NW,321,0.0,0.0,70,0.00,,,0.01,0.00,VWS V14.00,2013-01-18 02:21:00,
2013-01-17 20:22:00,44.2,35.4,30.31,NW,304,0.0,0.0,71,0.00,,,0.01,0.00,VWS V14.00,2013-01-18 02:22:00,
2013-01-17 20:23:00,44.2,35.4,30.31,NW,304,0.0,0.0,71,0.00,,,0.01,0.00,VWS V14.00,2013-01-18 02:23:00,
2013-01-17 20:24:00,44.1,35.3,30.31,NW,304,0.0,0.0,71,0.00,,,0.01,0.00,VWS V14.00,2013-01-18 02:24:00,
2013-01-17 20:25:00,44.1,35.3,30.31,NW,304,0.0,0.0,71,0.00,,,0.01,0.00,VWS V14.00,2013-01-18 02:25:00,
2013-01-17 20:26:00,44.1,35.3,30.31,NW,304,0.0,0.0,71,0.00,,,0.01,0.00,VWS V14.00,2013-01-18 02:26:00,
2013-01-17 20:27:00,44.1,35.3,30.31,NW,304,0.0,0.0,71,0.00,,,0.01,0.00,VWS V14.00,2013-01-18 02:27:00,
2013-01-17 20:28:00,44.1,35.3,30.31,NW,304,0.0,0.0,71,0.00,,,0.01,0.00,VWS V14.00,2013-01-18 02:28:00,
2013-01-17 20:29:00,44.1,35.3,30.31,NW,304,0.0,0.0,71,0.00,,,0.01,0.00,VWS V14.00,2013-01-18 02:29:00,
2013-01-17 20:30:00,43.9,35.1,30.31,NW,304,0.0,0.0,71,0.00,,,0.01,0.00,VWS V14.00,2013-01-18 02:30:00,
2013-01-17 20:31:00,43.9,35.1,30.31,NW,304,0.0,0.0,71,0.00,,,0.01,0.00,VWS V14.00,2013-01-18 02:31:00,
2013-01-17 20:32:00,43.9,35.1,30.31,NW,304,0.0,0.0,71,0.00,,,0.01,0.00,VWS V14.00,2013-01-18 02:32:00,
2013-01-17 20:33:00,43.9,35.1,30.31,NW,304,0.0,0.0,71,0.00,,,0.01,0.00,VWS V14.00,2013-01-18 02:33:00,
2013-01-17 20:34:00,43.8,35.0,30.31,NW,304,0.0,0.0,71,0.00,,,0.01,0.00,VWS V14.00,2013-01-18 02:34:00,
2013-01-17 20:35:00,43.8,35.4,30.31,NW,304,0.0,0.0,72,0.00,,,0.01,0.00,VWS V14.00,2013-01-18 02:35:00,
2013-01-17 20:36:00,43.8,35.4,30.31,NW,304,0.0,0.0,72,0.00,,,0.01,0.00,VWS V14.00,2013-01-18 02:36:00,
2013-01-17 20:37:00,43.8,35.4,30.31,NW,304,0.0,0.0,72,0.00,,,0.01,0.00,VWS V14.00,2013-01-18 02:37:00,
2013-01-17 20:38:00,43.6,35.2,30.31,NW,304,0.0,0.0,72,0.00,,,0.01,0.00,VWS V14.00,2013-01-18 02:38:00,
2013-01-17 20:39:00,43.6,35.2,30.31,NW,304,0.0,0.0,72,0.00,,,0.01,0.00,VWS V14.00,2013-01-18 02:39:00,
2013-01-17 20:40:00,43.6,35.2,30.31,NW,304,0.0,0.0,72,0.00,,,0.01,0.00,VWS V14.00,2013-01-18 02:40:00,
2013-01-17 20:41:00,43.6,35.2,30.31,NW,304,0.0,0.0,72,0.00,,,0.01,0.00,VWS V14.00,2013-01-18 02:41:00,
2013-01-17 20:42:00,43.5,35.1,30.31,NW,304,0.0,0.0,72,0.00,,,0.01,0.00,VWS V14.00,2013-01-18 02:42:00,
2013-01-17 20:43:00,43.5,35.1,30.31,NW,304,0.0,0.0,72,0.00,,,0.01,0.00,VWS V14.00,2013-01-18 02:43:00,
2013-01-17 20:44:00,43.5,35.1,30.31,NW,304,0.0,0.0,72,0.00,,,0.01,0.00,VWS V14.00,2013-01-18 02:44:00,
2013-01-17 20:45:00,43.3,34.9,30.31,NW,304,0.0,0.0,72,0.00,,,0.01,0.00,VWS V14.00,2013-01-18 02:45:00,
2013-01-17 20:46:00,43.3,35.2,30.31,NW,304,0.0,0.0,73,0.00,,,0.01,0.00,VWS V14.00,2013-01-18 02:46:00,
2013-01-17 20:47:00,43.3,35.2,30.31,NW,304,0.0,0.0,73,0.00,,,0.01,0.00,VWS V14.00,2013-01-18 02:47:00,
2013-01-17 20:48:00,43.2,35.1,30.31,NW,304,0.0,0.0,73,0.00,,,0.01,0.00,VWS V14.00,2013-01-18 02:48:00,
2013-01-17 20:49:00,43.2,35.1,30.31,NW,304,0.0,0.0,73,0.00,,,0.01,0.00,VWS V14.00,2013-01-18 02:49:00,
2013-01-17 20:50:00,43.2,35.1,30.31,NW,304,0.0,0.0,73,0.00,,,0.01,0.00,VWS V14.00,2013-01-18 02:50:00,
2013-01-17 20:51:00,43.1,35.0,30.31,NW,304,0.0,0.0,73,0.00,,,0.01,0.00,VWS V14.00,2013-01-18 02:51:00,
2013-01-17 20:52:00,43.1,35.0,30.31,NW,304,0.0,0.0,73,0.00,,,0.01,0.00,VWS V14.00,2013-01-18 02:52:00,
2013-01-17 20:53:00,43.1,35.0,30.31,NW,304,0.0,0.0,73,0.00,,,0.01,0.00,VWS V14.00,2013-01-18 02:53:00,
2013-01-17 20:54:00,42.9,34.8,30.31,NW,304,0.0,0.0,73,0.00,,,0.01,0.00,VWS V14.00,2013-01-18 02:54:00,
2013-01-17 20:55:00,42.9,34.8,30.31,NW,304,0.0,0.0,73,0.00,,,0.01,0.00,VWS V14.00,2013-01-18 02:55:00,
2013-01-17 20:56:00,42.9,35.2,30.31,NW,304,0.0,0.0,74,0.00,,,0.01,0.00,VWS V14.00,2013-01-18 02:56:00,
2013-01-17 20:57:00,42.9,35.2,30.31,NW,304,0.0,0.0,74,0.00,,,0.01,0.00,VWS V14.00,2013-01-18 02:57:00,
2013-01-17 20:58:00,42.8,35.1,30.31,NW,304,0.0,0.0,74,0.00,,,0.01,0.00,VWS V14.00,2013-01-18 02:58:00,
2013-01-17 20:59:00,42.8,35.1,30.32,NW,304,0.0,0.0,74,0.00,,,0.01,0.00,VWS V14.00,2013-01-18 02:59:00,
2013-01-17 21:00:00,42.8,35.1,30.32,NW,304,0.0,0.0,74,0.00,,,0.01,0.00,VWS V14.00,2013-01-18 03:00:00,
2013-01-17 21:01:00,42.6,34.9,30.32,NW,304,0.0,0.0,74,0.00,,,0.01,0.00,VWS V14.00,2013-01-18 03:01:00,
2013-01-17 21:02:00,42.6,34.9,30.32,NW,304,0.0,0.0,74,0.00,,,0.01,0.00,VWS V14.00,2013-01-18 03:02:00,
2013-01-17 21:03:00,42.6,35.2,30.32,NW,304,0.0,0.0,75,0.00,,,0.01,0.00,VWS V14.00,2013-01-18 03:03:00,
2013-01-17 21:04:00,42.6,35.2,30.32,NW,304,0.0,0.0,75,0.00,,,0.01,0.00,VWS V14.00,2013-01-18 03:04:00,
2013-01-17 21:05:00,42.5,35.2,30.32,NW,304,0.0,0.0,75,0.00,,,0.01,0.00,VWS V14.00,2013-01-18 03:05:00,
2013-01-17 21:06:00,42.5,35.2,30.32,NW,304,0.0,0.0,75,0.00,,,0.01,0.00,VWS V14.00,2013-01-18 03:06:00,
2013-01-17 21:07:00,42.5,35.2,30.32,NW,304,0.0,0.0,75,0.00,,,0.01,0.00,VWS V14.00,2013-01-18 03:07:00,
2013-01-17 21:08:00,42.3,35.0,30.32,NW,304,0.0,0.0,75,0.00,,,0.01,0.00,VWS V14.00,2013-01-18 03:08:00,
2013-01-17 21:09:00,42.3,35.0,30.32,NW,304,0.0,0.0,75,0.00,,,0.01,0.00,VWS V14.00,2013-01-18 03:09:00,
2013-01-17 21:10:00,42.3,35.3,30.32,NW,304,0.0,0.0,76,0.00,,,0.01,0.00,VWS V14.00,2013-01-18 03:10:00,
2013-01-17 21:11:00,42.3,35.3,30.32,NW,304,0.0,0.0,76,0.00,,,0.01,0.00,VWS V14.00,2013-01-18 03:11:00,
2013-01-17 21:12:00,42.2,35.2,30.32,NW,304,0.0,0.0,76,0.00,,,0.01,0.00,VWS V14.00,2013-01-18 03:12:00,
2013-01-17 21:13:00,42.2,35.2,30.32,NW,304,0.0,0.0,76,0.00,,,0.01,0.00,VWS V14.00,2013-01-18 03:13:00,
2013-01-17 21:14:00,42.2,35.2,30.32,NW,304,0.0,0.0,76,0.00,,,0.01,0.00,VWS V14.00,2013-01-18 03:14:00,
2013-01-17 21:15:00,42.2,35.2,30.32,NW,304,0.0,0.0,76,0.00,,,0.01,0.00,VWS V14.00,2013-01-18 03:15:00,
2013-01-17 21:16:00,42.1,35.1,30.32,NW,304,0.0,0.0,76,0.00,,,0.01,0.00,VWS V14.00,2013-01-18 03:16:00,
2013-01-17 21:17:00,42.1,35.1,30.32,NW,304,0.0,0.0,76,0.00,,,0.01,0.00,VWS V14.00,2013-01-18 03:17:00,
2013-01-17 21:18:00,42.1,35.1,30.32,WNW,302,0.0,0.0,76,0.00,,,0.01,0.00,VWS V14.00,2013-01-18 03:18:00,
2013-01-17 21:19:00,42.1,35.1,30.32,WNW,303,0.0,0.0,76,0.00,,,0.01,0.00,VWS V14.00,2013-01-18 03:19:00,
2013-01-17 21:20:00,41.9,35.2,30.32,WNW,303,0.0,0.0,77,0.00,,,0.01,0.00,VWS V14.00,2013-01-18 03:20:00,
2013-01-17 21:21:00,41.9,35.2,30.32,WNW,303,0.0,0.0,77,0.00,,,0.01,0.00,VWS V14.00,2013-01-18 03:21:00,
2013-01-17 21:22:00,41.9,35.2,30.32,WNW,303,0.0,0.0,77,0.00,,,0.01,0.00,VWS V14.00,2013-01-18 03:22:00,
2013-01-17 21:23:00,41.8,35.1,30.32,NW,315,0.0,0.0,77,0.00,,,0.01,0.00,VWS V14.00,2013-01-18 03:23:00,
2013-01-17 21:24:00,41.8,35.1,30.32,NW,322,0.0,0.0,77,0.00,,,0.01,0.00,VWS V14.00,2013-01-18 03:24:00,
2013-01-17 21:25:00,41.8,35.1,30.32,NW,322,0.0,0.0,77,0.00,,,0.01,0.00,VWS V14.00,2013-01-18 03:25:00,
2013-01-17 21:26:00,41.8,35.1,30.32,NW,322,0.0,0.0,77,0.00,,,0.01,0.00,VWS V14.00,2013-01-18 03:26:00,
2013-01-17 21:27:00,41.6,35.3,30.32,NW,322,0.0,0.0,78,0.00,,,0.01,0.00,VWS V14.00,2013-01-18 03:27:00,
2013-01-17 21:28:00,41.6,35.3,30.32,NW,322,0.0,0.0,78,0.00,,,0.01,0.00,VWS V14.00,2013-01-18 03:28:00,
2013-01-17 21:29:00,41.6,35.3,30.32,NW,321,0.0,0.0,78,0.00,,,0.01,0.00,VWS V14.00,2013-01-18 03:29:00,
2013-01-17 21:30:00,41.5,35.2,30.32,NW,321,0.0,0.0,78,0.00,,,0.01,0.00,VWS V14.00,2013-01-18 03:30:00,
2013-01-17 21:31:00,41.5,35.2,30.32,NW,321,0.0,0.0,78,0.00,,,0.01,0.00,VWS V14.00,2013-01-18 03:31:00,
2013-01-17 21:32:00,41.5,35.2,30.32,NW,321,0.0,0.0,78,0.00,,,0.01,0.00,VWS V14.00,2013-01-18 03:32:00,
2013-01-17 21:33:00,41.5,35.2,30.32,West,267,0.0,0.0,78,0.00,,,0.01,0.00,VWS V14.00,2013-01-18 03:33:00,
2013-01-17 21:34:00,41.3,35.3,30.32,West,269,0.0,0.0,79,0.00,,,0.01,0.00,VWS V14.00,2013-01-18 03:34:00,
2013-01-17 21:35:00,41.3,35.3,30.32,NNW,333,0.0,0.0,79,0.00,,,0.01,0.00,VWS V14.00,2013-01-18 03:35:00,
2013-01-17 21:36:00,41.3,35.3,30.32,NW,310,0.0,0.0,79,0.00,,,0.01,0.00,VWS V14.00,2013-01-18 03:36:00,
2013-01-17 21:37:00,41.2,35.2,30.32,NW,313,0.0,0.0,79,0.00,,,0.01,0.00,VWS V14.00,2013-01-18 03:37:00,
2013-01-17 21:38:00,41.2,35.2,30.32,NW,313,0.0,0.0,79,0.00,,,0.01,0.00,VWS V14.00,2013-01-18 03:38:00,
2013-01-17 21:39:00,41.2,35.2,30.32,WNW,290,0.0,0.0,79,0.00,,,0.01,0.00,VWS V14.00,2013-01-18 03:39:00,
2013-01-17 21:40:00,41.2,35.2,30.32,NW,308,0.0,0.0,79,0.00,,,0.01,0.00,VWS V14.00,2013-01-18 03:40:00,
2013-01-17 21:41:00,41.2,35.5,30.32,NW,308,0.0,0.0,80,0.00,,,0.01,0.00,VWS V14.00,2013-01-18 03:41:00,
2013-01-17 21:42:00,41.1,35.4,30.32,NW,308,0.0,0.0,80,0.00,,,0.01,0.00,VWS V14.00,2013-01-18 03:42:00,
2013-01-17 21:43:00,41.1,35.4,30.32,WNW,302,0.0,0.0,80,0.00,,,0.01,0.00,VWS V14.00,2013-01-18 03:43:00,
2013-01-17 21:44:00,41.1,35.4,30.31,WNW,302,0.0,0.0,80,0.00,,,0.01,0.00,VWS V14.00,2013-01-18 03:44:00,
2013-01-17 21:45:00,41.1,35.4,30.31,WNW,302,0.0,0.0,80,0.00,,,0.01,0.00,VWS V14.00,2013-01-18 03:45:00,
2013-01-17 21:46:00,41.1,35.4,30.31,WNW,302,0.0,0.0,80,0.00,,,0.01,0.00,VWS V14.00,2013-01-18 03:46:00,
2013-01-17 21:47:00,40.9,35.2,30.31,NNW,333,0.0,0.0,80,0.00,,,0.01,0.00,VWS V14.00,2013-01-18 03:47:00,
2013-01-17 21:48:00,40.9,35.2,30.31,NW,318,0.0,0.0,80,0.00,,,0.01,0.00,VWS V14.00,2013-01-18 03:48:00,
2013-01-17 21:49:00,40.9,35.2,30.31,NW,306,0.0,0.0,80,0.00,,,0.01,0.00,VWS V14.00,2013-01-18 03:49:00,
2013-01-17 21:50:00,40.9,35.5,30.31,NW,309,0.0,0.0,81,0.00,,,0.01,0.00,VWS V14.00,2013-01-18 03:50:00,
2013-01-17 21:51:00,40.8,35.4,30.31,NW,315,0.0,0.0,81,0.00,,,0.01,0.00,VWS V14.00,2013-01-18 03:51:00,
2013-01-17 21:52:00,40.8,35.4,30.31,WNW,296,0.0,0.0,81,0.00,,,0.01,0.00,VWS V14.00,2013-01-18 03:52:00,
2013-01-17 21:53:00,40.8,35.4,30.31,West,281,0.0,0.0,81,0.00,,,0.01,0.00,VWS V14.00,2013-01-18 03:53:00,
2013-01-17 21:54:00,40.8,35.4,30.31,NW,310,0.0,0.0,81,0.00,,,0.01,0.00,VWS V14.00,2013-01-18 03:54:00,
2013-01-17 21:55:00,40.6,35.2,30.31,NW,310,0.0,0.0,81,0.00,,,0.01,0.00,VWS V14.00,2013-01-18 03:55:00,
2013-01-17 21:56:00,40.6,35.2,30.31,WNW,302,0.0,0.0,81,0.00,,,0.01,0.00,VWS V14.00,2013-01-18 03:56:00,
2013-01-17 21:57:00,40.6,35.2,30.31,NNW,327,0.0,0.0,81,0.00,,,0.01,0.00,VWS V14.00,2013-01-18 03:57:00,
2013-01-17 21:58:00,40.6,35.2,30.31,NNW,327,0.0,0.0,81,0.00,,,0.01,0.00,VWS V14.00,2013-01-18 03:58:00,
2013-01-17 21:59:00,40.6,35.2,30.31,NW,304,0.0,0.0,81,0.00,,,0.01,0.00,VWS V14.00,2013-01-18 03:59:00,
2013-01-17 22:00:00,40.6,35.2,30.31,NW,323,0.0,0.0,81,0.00,,,0.01,0.00,VWS V14.00,2013-01-18 04:00:00,
2013-01-17 22:01:00,40.6,35.2,30.31,NW,309,0.0,0.0,81,0.00,,,0.01,0.00,VWS V14.00,2013-01-18 04:01:00,
2013-01-17 22:02:00,40.5,35.1,30.31,WNW,302,0.0,0.0,81,0.00,,,0.01,0.00,VWS V14.00,2013-01-18 04:02:00,
2013-01-17 22:03:00,40.5,35.1,30.31,NW,304,0.0,0.0,81,0.00,,,0.01,0.00,VWS V14.00,2013-01-18 04:03:00,
2013-01-17 22:04:00,40.5,35.5,30.31,WNW,300,0.0,0.0,82,0.00,,,0.01,0.00,VWS V14.00,2013-01-18 04:04:00,
2013-01-17 22:05:00,40.5,35.5,30.31,WNW,301,0.0,0.0,82,0.00,,,0.01,0.00,VWS V14.00,2013-01-18 04:05:00,
2013-01-17 22:06:00,40.5,35.5,30.31,NW,304,0.0,0.0,82,0.00,,,0.01,0.00,VWS V14.00,2013-01-18 04:06:00,
2013-01-17 22:07:00,40.5,35.5,30.31,NW,304,0.0,0.0,82,0.00,,,0.01,0.00,VWS V14.00,2013-01-18 04:07:00,
2013-01-17 22:08:00,40.5,35.5,30.31,WNW,302,0.0,0.0,82,0.00,,,0.01,0.00,VWS V14.00,2013-01-18 04:08:00,
2013-01-17 22:09:00,40.5,35.5,30.31,NW,306,0.0,0.0,82,0.00,,,0.01,0.00,VWS V14.00,2013-01-18 04:09:00,
2013-01-17 22:10:00,40.5,35.5,30.31,NW,314,0.0,0.0,82,0.00,,,0.01,0.00,VWS V14.00,2013-01-18 04:10:00,
2013-01-17 22:11:00,40.3,35.2,30.31,NW,320,0.0,0.0,82,0.00,,,0.01,0.00,VWS V14.00,2013-01-18 04:11:00,
2013-01-17 22:12:00,40.3,35.2,30.31,NW,315,0.0,0.0,82,0.00,,,0.01,0.00,VWS V14.00,2013-01-18 04:12:00,
2013-01-17 22:13:00,40.3,35.2,30.31,NW,315,0.0,0.0,82,0.00,,,0.01,0.00,VWS V14.00,2013-01-18 04:13:00,
2013-01-17 22:14:00,40.3,35.2,30.31,NW,313,0.0,0.0,82,0.00,,,0.01,0.00,VWS V14.00,2013-01-18 04:14:00,
2013-01-17 22:15:00,40.3,35.2,30.31,WNW,302,0.0,0.0,82,0.00,,,0.01,0.00,VWS V14.00,2013-01-18 04:15:00,
2013-01-17 22:16:00,40.3,35.2,30.31,WNW,302,0.0,0.0,82,0.00,,,0.01,0.00,VWS V14.00,2013-01-18 04:16:00,
2013-01-17 22:17:00,40.3,35.2,30.31,WNW,302,0.0,0.0,82,0.00,,,0.01,0.00,VWS V14.00,2013-01-18 04:17:00,
2013-01-17 22:18:00,40.3,35.2,30.31,NW,306,0.0,0.0,82,0.00,,,0.01,0.00,VWS V14.00,2013-01-18 04:18:00,
2013-01-17 22:19:00,40.3,35.2,30.31,WNW,292,0.0,0.0,82,0.00,,,0.01,0.00,VWS V14.00,2013-01-18 04:19:00,
2013-01-17 22:20:00,40.3,35.2,30.31,WNW,292,0.0,0.0,82,0.00,,,0.01,0.00,VWS V14.00,2013-01-18 04:20:00,
2013-01-17 22:21:00,40.3,35.2,30.31,WNW,293,0.0,0.0,82,0.00,,,0.01,0.00,VWS V14.00,2013-01-18 04:21:00,
2013-01-17 22:22:00,40.2,35.2,30.31,WNW,293,0.0,0.0,82,0.00,,,0.01,0.00,VWS V14.00,2013-01-18 04:22:00,
2013-01-17 22:23:00,40.2,35.2,30.31,WNW,293,0.0,0.0,82,0.00,,,0.01,0.00,VWS V14.00,2013-01-18 04:23:00,
2013-01-17 22:24:00,40.2,35.2,30.31,NW,319,0.0,0.0,82,0.00,,,0.01,0.00,VWS V14.00,2013-01-18 04:24:00,
2013-01-17 22:25:00,40.2,35.2,30.31,NW,306,0.0,0.0,82,0.00,,,0.01,0.00,VWS V14.00,2013-01-18 04:25:00,
2013-01-17 22:26:00,40.2,35.2,30.31,WNW,300,0.0,0.0,82,0.00,,,0.01,0.00,VWS V14.00,2013-01-18 04:26:00,
2013-01-17 22:27:00,40.2,35.2,30.31,WNW,301,0.0,0.0,82,0.00,,,0.01,0.00,VWS V14.00,2013-01-18 04:27:00,
2013-01-17 22:28:00,40.2,35.2,30.31,WNW,302,0.0,0.0,82,0.00,,,0.01,0.00,VWS V14.00,2013-01-18 04:28:00,
2013-01-17 22:29:00,40.2,35.2,30.31,NW,306,0.0,0.0,82,0.00,,,0.01,0.00,VWS V14.00,2013-01-18 04:29:00,
2013-01-17 22:30:00,40.1,35.1,30.31,NNW,347,0.0,0.0,82,0.00,,,0.01,0.00,VWS V14.00,2013-01-18 04:30:00,
2013-01-17 22:31:00,40.1,35.4,30.31,WNW,298,0.0,0.0,83,0.00,,,0.01,0.00,VWS V14.00,2013-01-18 04:31:00,
2013-01-17 22:32:00,40.1,35.4,30.31,NW,304,0.0,0.0,83,0.00,,,0.01,0.00,VWS V14.00,2013-01-18 04:32:00,
2013-01-17 22:33:00,40.1,35.4,30.31,NW,304,0.0,0.0,83,0.00,,,0.01,0.00,VWS V14.00,2013-01-18 04:33:00,
2013-01-17 22:34:00,40.1,35.4,30.31,NW,314,0.0,0.0,83,0.00,,,0.01,0.00,VWS V14.00,2013-01-18 04:34:00,
2013-01-17 22:35:00,40.1,35.4,30.31,North,360,0.0,0.0,83,0.00,,,0.01,0.00,VWS V14.00,2013-01-18 04:35:00,
2013-01-17 22:36:00,40.1,35.4,30.31,North,355,0.0,0.0,83,0.00,,,0.01,0.00,VWS V14.00,2013-01-18 04:36:00,
2013-01-17 22:37:00,40.1,35.4,30.31,NNW,335,0.0,0.0,83,0.00,,,0.01,0.00,VWS V14.00,2013-01-18 04:37:00,
2013-01-17 22:38:00,39.9,35.2,30.31,NW,307,0.0,0.0,83,0.00,,,0.01,0.00,VWS V14.00,2013-01-18 04:38:00,
2013-01-17 22:39:00,39.9,35.2,30.31,NW,308,0.0,0.0,83,0.00,,,0.01,0.00,VWS V14.00,2013-01-18 04:39:00,
2013-01-17 22:40:00,39.9,35.2,30.31,NW,311,0.0,0.0,83,0.00,,,0.01,0.00,VWS V14.00,2013-01-18 04:40:00,
2013-01-17 22:43:00,39.9,35.2,30.31,NNW,329,0.0,0.0,83,0.00,,,0.01,0.00,VWS V14.00,2013-01-18 04:43:00,
2013-01-17 22:44:00,39.9,35.2,30.31,NNW,327,0.0,0.0,83,0.00,,,0.01,0.00,VWS V14.00,2013-01-18 04:44:00,
2013-01-17 22:45:00,39.9,35.2,30.31,NW,306,0.0,0.0,83,0.00,,,0.01,0.00,VWS V14.00,2013-01-18 04:45:00,
2013-01-17 22:46:00,39.9,35.2,30.31,NNW,333,0.0,0.0,83,0.00,,,0.01,0.00,VWS V14.00,2013-01-18 04:46:00,
2013-01-17 22:47:00,39.9,35.2,30.31,NNW,334,0.0,0.0,83,0.00,,,0.01,0.00,VWS V14.00,2013-01-18 04:47:00,
2013-01-17 22:48:00,39.9,35.2,30.31,NNW,334,0.0,0.0,83,0.00,,,0.01,0.00,VWS V14.00,2013-01-18 04:48:00,
2013-01-17 22:49:00,39.9,35.2,30.31,NW,320,0.0,0.0,83,0.00,,,0.01,0.00,VWS V14.00,2013-01-18 04:49:00,
2013-01-17 22:50:00,39.8,35.1,30.31,NW,323,0.0,0.0,83,0.00,,,0.01,0.00,VWS V14.00,2013-01-18 04:50:00,
2013-01-17 22:51:00,39.8,35.4,30.31,NW,323,0.0,0.0,84,0.00,,,0.01,0.00,VWS V14.00,2013-01-18 04:51:00,
2013-01-17 22:52:00,39.8,35.4,30.31,NNW,341,0.0,0.0,84,0.00,,,0.01,0.00,VWS V14.00,2013-01-18 04:52:00,
2013-01-17 22:53:00,39.8,35.4,30.31,NNW,348,0.0,0.0,84,0.00,,,0.01,0.00,VWS V14.00,2013-01-18 04:53:00,
2013-01-17 22:54:00,39.8,35.4,30.31,NNW,340,0.0,0.0,84,0.00,,,0.01,0.00,VWS V14.00,2013-01-18 04:54:00,
2013-01-17 22:55:00,39.8,35.4,30.31,NNW,331,0.0,0.0,84,0.00,,,0.01,0.00,VWS V14.00,2013-01-18 04:55:00,
2013-01-17 22:56:00,39.8,35.4,30.31,NW,307,0.0,0.0,84,0.00,,,0.01,0.00,VWS V14.00,2013-01-18 04:56:00,
2013-01-17 22:57:00,39.8,35.4,30.31,NW,315,0.0,0.0,84,0.00,,,0.01,0.00,VWS V14.00,2013-01-18 04:57:00,
2013-01-17 22:58:00,39.8,35.4,30.31,NNW,346,0.0,0.0,84,0.00,,,0.01,0.00,VWS V14.00,2013-01-18 04:58:00,
2013-01-17 22:59:00,39.8,35.4,30.31,NNW,346,0.0,0.0,84,0.00,,,0.01,0.00,VWS V14.00,2013-01-18 04:59:00,
2013-01-17 23:00:00,39.8,35.4,30.31,NNW,346,0.0,0.0,84,0.00,,,0.01,0.00,VWS V14.00,2013-01-18 05:00:00,
2013-01-17 23:01:00,39.8,35.4,30.31,NNW,347,0.0,0.0,84,0.00,,,0.01,0.00,VWS V14.00,2013-01-18 05:01:00,
2013-01-17 23:02:00,39.8,35.4,30.31,NNW,344,0.0,0.0,84,0.00,,,0.01,0.00,VWS V14.00,2013-01-18 05:02:00,
2013-01-17 23:03:00,39.8,35.4,30.31,NNW,336,0.0,0.0,84,0.00,,,0.01,0.00,VWS V14.00,2013-01-18 05:03:00,
2013-01-17 23:04:00,39.8,35.4,30.31,NNW,336,0.0,0.0,84,0.00,,,0.01,0.00,VWS V14.00,2013-01-18 05:04:00,
2013-01-17 23:05:00,39.8,35.4,30.31,NW,315,0.0,0.0,84,0.00,,,0.01,0.00,VWS V14.00,2013-01-18 05:05:00,
2013-01-17 23:06:00,39.8,35.4,30.31,NW,315,0.0,0.0,84,0.00,,,0.01,0.00,VWS V14.00,2013-01-18 05:06:00,
2013-01-17 23:07:00,39.8,35.4,30.31,WNW,298,0.0,0.0,84,0.00,,,0.01,0.00,VWS V14.00,2013-01-18 05:07:00,
2013-01-17 23:08:00,39.8,35.4,30.31,NW,321,0.0,0.0,84,0.00,,,0.01,0.00,VWS V14.00,2013-01-18 05:08:00,
2013-01-17 23:09:00,39.8,35.4,30.31,NW,321,0.0,0.0,84,0.00,,,0.01,0.00,VWS V14.00,2013-01-18 05:09:00,
2013-01-17 23:10:00,39.8,35.4,30.31,NW,311,0.0,0.0,84,0.00,,,0.01,0.00,VWS V14.00,2013-01-18 05:10:00,
2013-01-17 23:11:00,39.8,35.4,30.31,WNW,291,0.0,0.0,84,0.00,,,0.01,0.00,VWS V14.00,2013-01-18 05:11:00,
2013-01-17 23:12:00,39.8,35.4,30.31,NNW,345,0.0,0.0,84,0.00,,,0.01,0.00,VWS V14.00,2013-01-18 05:12:00,
2013-01-17 23:13:00,39.8,35.4,30.31,NNW,342,0.0,0.0,84,0.00,,,0.01,0.00,VWS V14.00,2013-01-18 05:13:00,
2013-01-17 23:14:00,39.9,35.5,30.31,NNW,330,0.0,0.0,84,0.00,,,0.01,0.00,VWS V14.00,2013-01-18 05:14:00,
2013-01-17 23:15:00,39.9,35.5,30.31,NNW,331,0.0,0.0,84,0.00,,,0.01,0.00,VWS V14.00,2013-01-18 05:15:00,
2013-01-17 23:16:00,39.9,35.5,30.31,NNW,331,0.0,0.0,84,0.00,,,0.01,0.00,VWS V14.00,2013-01-18 05:16:00,
2013-01-17 23:17:00,39.9,35.5,30.31,NW,313,0.0,0.0,84,0.00,,,0.01,0.00,VWS V14.00,2013-01-18 05:17:00,
2013-01-17 23:18:00,39.9,35.5,30.31,NNW,341,0.0,0.0,84,0.00,,,0.01,0.00,VWS V14.00,2013-01-18 05:18:00,
2013-01-17 23:19:00,39.9,35.5,30.31,NW,325,0.0,0.0,84,0.00,,,0.01,0.00,VWS V14.00,2013-01-18 05:19:00,
2013-01-17 23:20:00,39.9,35.5,30.31,North,349,0.0,0.0,84,0.00,,,0.01,0.00,VWS V14.00,2013-01-18 05:20:00,
2013-01-17 23:21:00,39.9,35.5,30.31,WNW,290,0.0,0.0,84,0.00,,,0.01,0.00,VWS V14.00,2013-01-18 05:21:00,
2013-01-17 23:22:00,39.9,35.5,30.31,NNW,340,0.0,0.0,84,0.00,,,0.01,0.00,VWS V14.00,2013-01-18 05:22:00,
2013-01-17 23:23:00,40.1,35.7,30.31,North,10,0.0,0.0,84,0.00,,,0.01,0.00,VWS V14.00,2013-01-18 05:23:00,
2013-01-17 23:24:00,40.1,35.7,30.31,NW,323,0.0,0.0,84,0.00,,,0.01,0.00,VWS V14.00,2013-01-18 05:24:00,
2013-01-17 23:25:00,40.1,35.7,30.31,WNW,285,0.0,0.0,84,0.00,,,0.01,0.00,VWS V14.00,2013-01-18 05:25:00,
2013-01-17 23:26:00,40.1,35.7,30.31,WNW,300,0.0,0.0,84,0.00,,,0.01,0.00,VWS V14.00,2013-01-18 05:26:00,
2013-01-17 23:27:00,40.1,35.7,30.31,NW,308,0.0,0.0,84,0.00,,,0.01,0.00,VWS V14.00,2013-01-18 05:27:00,
2013-01-17 23:28:00,40.1,35.7,30.31,NW,317,0.0,0.0,84,0.00,,,0.01,0.00,VWS V14.00,2013-01-18 05:28:00,
2013-01-17 23:29:00,40.1,35.7,30.31,WNW,296,0.0,0.0,84,0.00,,,0.01,0.00,VWS V14.00,2013-01-18 05:29:00,
2013-01-17 23:30:00,40.2,35.8,30.31,WNW,301,0.0,0.0,84,0.00,,,0.01,0.00,VWS V14.00,2013-01-18 05:30:00,
2013-01-17 23:31:00,40.2,35.8,30.31,WNW,292,0.0,0.0,84,0.00,,,0.01,0.00,VWS V14.00,2013-01-18 05:31:00,
2013-01-17 23:32:00,40.2,35.8,30.31,NNW,327,0.0,0.0,84,0.00,,,0.01,0.00,VWS V14.00,2013-01-18 05:32:00,
2013-01-17 23:33:00,40.2,35.8,30.31,NW,311,0.0,0.0,84,0.00,,,0.01,0.00,VWS V14.00,2013-01-18 05:33:00,
2013-01-17 23:34:00,40.2,35.8,30.31,NNW,340,0.0,0.0,84,0.00,,,0.01,0.00,VWS V14.00,2013-01-18 05:34:00,
2013-01-17 23:35:00,40.2,35.8,30.31,North,360,0.0,0.0,84,0.00,,,0.01,0.00,VWS V14.00,2013-01-18 05:35:00,
2013-01-17 23:36:00,40.2,35.8,30.31,NNW,348,0.0,0.0,84,0.00,,,0.01,0.00,VWS V14.00,2013-01-18 05:36:00,
2013-01-17 23:37:00,40.2,35.5,30.31,NNW,348,0.0,0.0,83,0.00,,,0.01,0.00,VWS V14.00,2013-01-18 05:37:00,
2013-01-17 23:38:00,40.2,35.5,30.31,NNW,337,0.0,0.0,83,0.00,,,0.01,0.00,VWS V14.00,2013-01-18 05:38:00,
2013-01-17 23:39:00,40.2,35.5,30.31,North,360,0.0,0.0,83,0.00,,,0.01,0.00,VWS V14.00,2013-01-18 05:39:00,
2013-01-17 23:40:00,40.2,35.5,30.31,North,360,0.0,0.0,83,0.00,,,0.01,0.00,VWS V14.00,2013-01-18 05:40:00,
2013-01-17 23:41:00,40.2,35.5,30.31,NNW,329,0.0,0.0,83,0.00,,,0.01,0.00,VWS V14.00,2013-01-18 05:41:00,
2013-01-17 23:42:00,40.2,35.5,30.31,NW,319,0.0,0.0,83,0.00,,,0.01,0.00,VWS V14.00,2013-01-18 05:42:00,
2013-01-17 23:43:00,40.2,35.5,30.31,NW,309,0.0,0.0,83,0.00,,,0.01,0.00,VWS V14.00,2013-01-18 05:43:00,
2013-01-17 23:44:00,40.2,35.5,30.32,NNW,339,0.0,0.0,83,0.00,,,0.01,0.00,VWS V14.00,2013-01-18 05:44:00,
2013-01-17 23:45:00,40.2,35.5,30.32,West,272,0.0,0.0,83,0.00,,,0.01,0.00,VWS V14.00,2013-01-18 05:45:00,
2013-01-17 23:46:00,40.2,35.5,30.32,West,274,0.0,0.0,83,0.00,,,0.01,0.00,VWS V14.00,2013-01-18 05:46:00,
2013-01-17 23:47:00,40.2,35.5,30.32,NNW,327,0.0,0.0,83,0.00,,,0.01,0.00,VWS V14.00,2013-01-18 05:47:00,
2013-01-17 23:48:00,40.2,35.5,30.32,WNW,303,0.0,0.0,83,0.00,,,0.01,0.00,VWS V14.00,2013-01-18 05:48:00,
2013-01-17 23:49:00,40.2,35.5,30.32,North,355,0.0,0.0,83,0.00,,,0.01,0.00,VWS V14.00,2013-01-18 05:49:00,
2013-01-17 23:50:00,40.2,35.5,30.32,North,355,0.0,0.0,83,0.00,,,0.01,0.00,VWS V14.00,2013-01-18 05:50:00,
2013-01-17 23:51:00,40.2,35.5,30.32,NNW,340,0.0,0.0,83,0.00,,,0.01,0.00,VWS V14.00,2013-01-18 05:51:00,
2013-01-17 23:52:00,40.2,35.5,30.32,North,355,0.0,0.0,83,0.00,,,0.01,0.00,VWS V14.00,2013-01-18 05:52:00,
2013-01-17 23:53:00,40.1,35.4,30.32,NNW,328,0.0,0.0,83,0.00,,,0.01,0.00,VWS V14.00,2013-01-18 05:53:00,
2013-01-17 23:54:00,40.1,35.4,30.32,NW,318,0.0,0.0,83,0.00,,,0.01,0.00,VWS V14.00,2013-01-18 05:54:00,
2013-01-17 23:55:00,40.1,35.7,30.32,NW,304,0.0,0.0,84,0.00,,,0.01,0.00,VWS V14.00,2013-01-18 05:55:00,
2013-01-17 23:56:00,40.1,35.4,30.32,WNW,288,0.0,0.0,83,0.00,,,0.01,0.00,VWS V14.00,2013-01-18 05:56:00,
2013-01-17 23:57:00,40.1,35.4,30.32,NW,315,0.0,0.0,83,0.00,,,0.01,0.00,VWS V14.00,2013-01-18 05:57:00,
2013-01-17 23:58:00,40.1,35.7,30.32,NNW,328,0.0,0.0,84,0.00,,,0.01,0.00,VWS V14.00,2013-01-18 05:58:00,
2013-01-17 23:59:00,40.1,35.7,30.32,NW,313,0.0,0.0,84,0.00,,,0.01,0.00,VWS V14.00,2013-01-18 05:59:00,